<?xml version="1.0" encoding="UTF-8" standalone="no" ?>
<gpx xmlns="http://www.topografix.com/GPX/1/1" xmlns:xsi="http://www.w3.org/2001/XMLSchema-instance" xsi:schemaLocation="http://www.topografix.com/GPX/1/1 http://www.topografix.com/GPX/1/1/gpx.xsd" version="1.1" creator="VisuGPX - https://www.visugpx.com">
  <metadata>
    <name>Mercredi 1er avril 2026</name>
  </metadata>
  <trk>
    <name><![CDATA[Mercredi 1er avril 2026]]></name>
    <extensions>
      <line xmlns="http://www.topografix.com/GPX/gpx_style/0/2">
        <width>7</width>
      </line>
    </extensions>
    <trkseg>
      <trkpt lat="43.38203" lon="-1.66169">
        <ele>3</ele>
        <time>2026-03-09T16:29:46.000Z</time>
      </trkpt>
      <trkpt lat="43.38238" lon="-1.66228">
        <ele>4</ele>
        <time>2026-03-09T16:29:56.000Z</time>
      </trkpt>
      <trkpt lat="43.38298" lon="-1.66335">
        <ele>5</ele>
        <time>2026-03-09T16:30:13.000Z</time>
      </trkpt>
      <trkpt lat="43.38306" lon="-1.66354">
        <ele>5</ele>
        <time>2026-03-09T16:30:16.000Z</time>
      </trkpt>
      <trkpt lat="43.38297" lon="-1.66411">
        <ele>5</ele>
        <time>2026-03-09T16:30:24.000Z</time>
      </trkpt>
      <trkpt lat="43.38291" lon="-1.66432">
        <ele>5</ele>
        <time>2026-03-09T16:30:27.000Z</time>
      </trkpt>
      <trkpt lat="43.38284" lon="-1.66442">
        <ele>5</ele>
        <time>2026-03-09T16:30:28.000Z</time>
      </trkpt>
      <trkpt lat="43.3826" lon="-1.66462">
        <ele>5</ele>
        <time>2026-03-09T16:30:33.000Z</time>
      </trkpt>
      <trkpt lat="43.38264" lon="-1.66503">
        <ele>4</ele>
        <time>2026-03-09T16:30:39.000Z</time>
      </trkpt>
      <trkpt lat="43.38272" lon="-1.66557">
        <ele>4</ele>
        <time>2026-03-09T16:30:46.000Z</time>
      </trkpt>
      <trkpt lat="43.38327" lon="-1.66703">
        <ele>6</ele>
        <time>2026-03-09T16:31:07.000Z</time>
      </trkpt>
      <trkpt lat="43.38343" lon="-1.66748">
        <ele>6</ele>
        <time>2026-03-09T16:31:14.000Z</time>
      </trkpt>
      <trkpt lat="43.38344" lon="-1.66759">
        <ele>7</ele>
        <time>2026-03-09T16:31:15.000Z</time>
      </trkpt>
      <trkpt lat="43.38366" lon="-1.66755">
        <ele>6</ele>
        <time>2026-03-09T16:31:19.000Z</time>
      </trkpt>
      <trkpt lat="43.38378" lon="-1.66744">
        <ele>5</ele>
        <time>2026-03-09T16:31:22.000Z</time>
      </trkpt>
      <trkpt lat="43.38449" lon="-1.66646">
        <ele>4</ele>
        <time>2026-03-09T16:31:39.000Z</time>
      </trkpt>
      <trkpt lat="43.38446" lon="-1.66639">
        <ele>4</ele>
        <time>2026-03-09T16:31:41.000Z</time>
      </trkpt>
      <trkpt lat="43.38446" lon="-1.66631">
        <ele>4</ele>
        <time>2026-03-09T16:31:42.000Z</time>
      </trkpt>
      <trkpt lat="43.38411" lon="-1.66589">
        <ele>4</ele>
        <time>2026-03-09T16:31:50.000Z</time>
      </trkpt>
      <trkpt lat="43.38408" lon="-1.66568">
        <ele>4</ele>
        <time>2026-03-09T16:31:53.000Z</time>
      </trkpt>
      <trkpt lat="43.38416" lon="-1.66546">
        <ele>4</ele>
        <time>2026-03-09T16:31:56.000Z</time>
      </trkpt>
      <trkpt lat="43.38482" lon="-1.6642">
        <ele>5</ele>
        <time>2026-03-09T16:32:16.000Z</time>
      </trkpt>
      <trkpt lat="43.38517" lon="-1.66346">
        <ele>2</ele>
        <time>2026-03-09T16:32:27.000Z</time>
      </trkpt>
      <trkpt lat="43.38548" lon="-1.66274">
        <ele>3</ele>
        <time>2026-03-09T16:32:38.000Z</time>
      </trkpt>
      <trkpt lat="43.38558" lon="-1.6625">
        <ele>3</ele>
        <time>2026-03-09T16:32:42.000Z</time>
      </trkpt>
      <trkpt lat="43.38566" lon="-1.66229">
        <ele>3</ele>
        <time>2026-03-09T16:32:45.000Z</time>
      </trkpt>
      <trkpt lat="43.38574" lon="-1.66212">
        <ele>4</ele>
        <time>2026-03-09T16:32:47.000Z</time>
      </trkpt>
      <trkpt lat="43.38589" lon="-1.66194">
        <ele>4</ele>
        <time>2026-03-09T16:32:51.000Z</time>
      </trkpt>
      <trkpt lat="43.3859" lon="-1.66189">
        <ele>4</ele>
        <time>2026-03-09T16:32:52.000Z</time>
      </trkpt>
      <trkpt lat="43.38593" lon="-1.66178">
        <ele>4</ele>
        <time>2026-03-09T16:32:53.000Z</time>
      </trkpt>
      <trkpt lat="43.38598" lon="-1.66173">
        <ele>5</ele>
        <time>2026-03-09T16:32:54.000Z</time>
      </trkpt>
      <trkpt lat="43.38603" lon="-1.6617">
        <ele>5</ele>
        <time>2026-03-09T16:32:55.000Z</time>
      </trkpt>
      <trkpt lat="43.38609" lon="-1.6617">
        <ele>5</ele>
        <time>2026-03-09T16:32:56.000Z</time>
      </trkpt>
      <trkpt lat="43.38615" lon="-1.66172">
        <ele>6</ele>
        <time>2026-03-09T16:32:57.000Z</time>
      </trkpt>
      <trkpt lat="43.38623" lon="-1.66181">
        <ele>6</ele>
        <time>2026-03-09T16:32:59.000Z</time>
      </trkpt>
      <trkpt lat="43.38625" lon="-1.66195">
        <ele>5</ele>
        <time>2026-03-09T16:33:01.000Z</time>
      </trkpt>
      <trkpt lat="43.3863" lon="-1.66198">
        <ele>6</ele>
        <time>2026-03-09T16:33:02.000Z</time>
      </trkpt>
      <trkpt lat="43.38654" lon="-1.66271">
        <ele>3</ele>
        <time>2026-03-09T16:33:12.000Z</time>
      </trkpt>
      <trkpt lat="43.38665" lon="-1.66299">
        <ele>2</ele>
        <time>2026-03-09T16:33:16.000Z</time>
      </trkpt>
      <trkpt lat="43.38674" lon="-1.66306">
        <ele>2</ele>
        <time>2026-03-09T16:33:18.000Z</time>
      </trkpt>
      <trkpt lat="43.3868" lon="-1.66306">
        <ele>2</ele>
        <time>2026-03-09T16:33:19.000Z</time>
      </trkpt>
      <trkpt lat="43.38685" lon="-1.66309">
        <ele>2</ele>
        <time>2026-03-09T16:33:20.000Z</time>
      </trkpt>
      <trkpt lat="43.38688" lon="-1.66317">
        <ele>2</ele>
        <time>2026-03-09T16:33:21.000Z</time>
      </trkpt>
      <trkpt lat="43.38687" lon="-1.66329">
        <ele>1</ele>
        <time>2026-03-09T16:33:23.000Z</time>
      </trkpt>
      <trkpt lat="43.38682" lon="-1.66334">
        <ele>1</ele>
        <time>2026-03-09T16:33:24.000Z</time>
      </trkpt>
      <trkpt lat="43.38678" lon="-1.66335">
        <ele>1</ele>
        <time>2026-03-09T16:33:25.000Z</time>
      </trkpt>
      <trkpt lat="43.3867" lon="-1.66331">
        <ele>4</ele>
        <time>2026-03-09T16:33:26.000Z</time>
      </trkpt>
      <trkpt lat="43.38668" lon="-1.66327">
        <ele>4</ele>
        <time>2026-03-09T16:33:27.000Z</time>
      </trkpt>
      <trkpt lat="43.38651" lon="-1.66328">
        <ele>4</ele>
        <time>2026-03-09T16:33:30.000Z</time>
      </trkpt>
      <trkpt lat="43.38636" lon="-1.66325">
        <ele>3.9</ele>
        <time>2026-03-09T16:33:33.000Z</time>
      </trkpt>
      <trkpt lat="43.38617" lon="-1.66317">
        <ele>3.4</ele>
        <time>2026-03-09T16:33:36.000Z</time>
      </trkpt>
      <trkpt lat="43.386" lon="-1.66303">
        <ele>1</ele>
        <time>2026-03-09T16:33:40.000Z</time>
      </trkpt>
      <trkpt lat="43.3857" lon="-1.66267">
        <ele>2</ele>
        <time>2026-03-09T16:33:47.000Z</time>
      </trkpt>
      <trkpt lat="43.38503" lon="-1.66208">
        <ele>4</ele>
        <time>2026-03-09T16:34:01.000Z</time>
      </trkpt>
      <trkpt lat="43.38496" lon="-1.66199">
        <ele>5</ele>
        <time>2026-03-09T16:34:03.000Z</time>
      </trkpt>
      <trkpt lat="43.38487" lon="-1.66173">
        <ele>5</ele>
        <time>2026-03-09T16:34:06.000Z</time>
      </trkpt>
      <trkpt lat="43.38481" lon="-1.66172">
        <ele>5</ele>
        <time>2026-03-09T16:34:08.000Z</time>
      </trkpt>
      <trkpt lat="43.38478" lon="-1.66167">
        <ele>6</ele>
        <time>2026-03-09T16:34:08.000Z</time>
      </trkpt>
      <trkpt lat="43.38477" lon="-1.66161">
        <ele>5</ele>
        <time>2026-03-09T16:34:09.000Z</time>
      </trkpt>
      <trkpt lat="43.38479" lon="-1.66155">
        <ele>5</ele>
        <time>2026-03-09T16:34:10.000Z</time>
      </trkpt>
      <trkpt lat="43.38462" lon="-1.66121">
        <ele>5</ele>
        <time>2026-03-09T16:34:15.000Z</time>
      </trkpt>
      <trkpt lat="43.38445" lon="-1.66095">
        <ele>5</ele>
        <time>2026-03-09T16:34:20.000Z</time>
      </trkpt>
      <trkpt lat="43.38392" lon="-1.66023">
        <ele>5</ele>
        <time>2026-03-09T16:34:33.000Z</time>
      </trkpt>
      <trkpt lat="43.38347" lon="-1.65961">
        <ele>6</ele>
        <time>2026-03-09T16:34:44.000Z</time>
      </trkpt>
      <trkpt lat="43.3834" lon="-1.65943">
        <ele>6</ele>
        <time>2026-03-09T16:34:47.000Z</time>
      </trkpt>
      <trkpt lat="43.38336" lon="-1.65944">
        <ele>6</ele>
        <time>2026-03-09T16:34:48.000Z</time>
      </trkpt>
      <trkpt lat="43.3833" lon="-1.65941">
        <ele>6</ele>
        <time>2026-03-09T16:34:49.000Z</time>
      </trkpt>
      <trkpt lat="43.38328" lon="-1.65932">
        <ele>6</ele>
        <time>2026-03-09T16:34:50.000Z</time>
      </trkpt>
      <trkpt lat="43.3833" lon="-1.65928">
        <ele>6</ele>
        <time>2026-03-09T16:34:51.000Z</time>
      </trkpt>
      <trkpt lat="43.38324" lon="-1.65923">
        <ele>6</ele>
        <time>2026-03-09T16:34:52.000Z</time>
      </trkpt>
      <trkpt lat="43.38309" lon="-1.65902">
        <ele>5</ele>
        <time>2026-03-09T16:34:56.000Z</time>
      </trkpt>
      <trkpt lat="43.38298" lon="-1.65877">
        <ele>4</ele>
        <time>2026-03-09T16:35:00.000Z</time>
      </trkpt>
      <trkpt lat="43.38234" lon="-1.65703">
        <ele>4</ele>
        <time>2026-03-09T16:35:25.000Z</time>
      </trkpt>
      <trkpt lat="43.38233" lon="-1.65687">
        <ele>4</ele>
        <time>2026-03-09T16:35:27.000Z</time>
      </trkpt>
      <trkpt lat="43.38236" lon="-1.65679">
        <ele>4</ele>
        <time>2026-03-09T16:35:28.000Z</time>
      </trkpt>
      <trkpt lat="43.38252" lon="-1.65655">
        <ele>4</ele>
        <time>2026-03-09T16:35:32.000Z</time>
      </trkpt>
      <trkpt lat="43.38351" lon="-1.65522">
        <ele>4</ele>
        <time>2026-03-09T16:35:57.000Z</time>
      </trkpt>
      <trkpt lat="43.38357" lon="-1.65509">
        <ele>4</ele>
        <time>2026-03-09T16:35:59.000Z</time>
      </trkpt>
      <trkpt lat="43.38352" lon="-1.65508">
        <ele>4</ele>
        <time>2026-03-09T16:36:00.000Z</time>
      </trkpt>
      <trkpt lat="43.38328" lon="-1.65473">
        <ele>4</ele>
        <time>2026-03-09T16:36:06.000Z</time>
      </trkpt>
      <trkpt lat="43.38325" lon="-1.65465">
        <ele>4</ele>
        <time>2026-03-09T16:36:07.000Z</time>
      </trkpt>
      <trkpt lat="43.38326" lon="-1.65462">
        <ele>4</ele>
        <time>2026-03-09T16:36:08.000Z</time>
      </trkpt>
      <trkpt lat="43.38327" lon="-1.65457">
        <ele>4</ele>
        <time>2026-03-09T16:36:08.000Z</time>
      </trkpt>
      <trkpt lat="43.38331" lon="-1.65453">
        <ele>5</ele>
        <time>2026-03-09T16:36:09.000Z</time>
      </trkpt>
      <trkpt lat="43.3837" lon="-1.65376">
        <ele>5</ele>
        <time>2026-03-09T16:36:21.000Z</time>
      </trkpt>
      <trkpt lat="43.3839" lon="-1.65332">
        <ele>6</ele>
        <time>2026-03-09T16:36:28.000Z</time>
      </trkpt>
      <trkpt lat="43.38394" lon="-1.65317">
        <ele>8</ele>
        <time>2026-03-09T16:36:30.000Z</time>
      </trkpt>
      <trkpt lat="43.38392" lon="-1.65295">
        <ele>10</ele>
        <time>2026-03-09T16:36:33.000Z</time>
      </trkpt>
      <trkpt lat="43.38384" lon="-1.65266">
        <ele>13</ele>
        <time>2026-03-09T16:36:37.000Z</time>
      </trkpt>
      <trkpt lat="43.38365" lon="-1.65248">
        <ele>13</ele>
        <time>2026-03-09T16:36:41.000Z</time>
      </trkpt>
      <trkpt lat="43.3836" lon="-1.65239">
        <ele>13</ele>
        <time>2026-03-09T16:36:43.000Z</time>
      </trkpt>
      <trkpt lat="43.38356" lon="-1.65227">
        <ele>13</ele>
        <time>2026-03-09T16:36:44.000Z</time>
      </trkpt>
      <trkpt lat="43.38343" lon="-1.652">
        <ele>12</ele>
        <time>2026-03-09T16:36:48.000Z</time>
      </trkpt>
      <trkpt lat="43.38276" lon="-1.65016">
        <ele>9</ele>
        <time>2026-03-09T16:37:15.000Z</time>
      </trkpt>
      <trkpt lat="43.3826" lon="-1.64971">
        <ele>8</ele>
        <time>2026-03-09T16:37:22.000Z</time>
      </trkpt>
      <trkpt lat="43.38254" lon="-1.64945">
        <ele>8</ele>
        <time>2026-03-09T16:37:25.000Z</time>
      </trkpt>
      <trkpt lat="43.38252" lon="-1.64928">
        <ele>8</ele>
        <time>2026-03-09T16:37:27.000Z</time>
      </trkpt>
      <trkpt lat="43.38255" lon="-1.6488">
        <ele>9</ele>
        <time>2026-03-09T16:37:34.000Z</time>
      </trkpt>
      <trkpt lat="43.38279" lon="-1.64626">
        <ele>7</ele>
        <time>2026-03-09T16:38:07.000Z</time>
      </trkpt>
      <trkpt lat="43.3828" lon="-1.64595">
        <ele>8</ele>
        <time>2026-03-09T16:38:11.000Z</time>
      </trkpt>
      <trkpt lat="43.38277" lon="-1.64488">
        <ele>10</ele>
        <time>2026-03-09T16:38:25.000Z</time>
      </trkpt>
      <trkpt lat="43.38272" lon="-1.64424">
        <ele>8</ele>
        <time>2026-03-09T16:38:33.000Z</time>
      </trkpt>
      <trkpt lat="43.38264" lon="-1.64383">
        <ele>7</ele>
        <time>2026-03-09T16:38:38.000Z</time>
      </trkpt>
      <trkpt lat="43.3825" lon="-1.64341">
        <ele>5</ele>
        <time>2026-03-09T16:38:44.000Z</time>
      </trkpt>
      <trkpt lat="43.38232" lon="-1.64309">
        <ele>5</ele>
        <time>2026-03-09T16:38:50.000Z</time>
      </trkpt>
      <trkpt lat="43.38212" lon="-1.64283">
        <ele>5</ele>
        <time>2026-03-09T16:38:54.000Z</time>
      </trkpt>
      <trkpt lat="43.38155" lon="-1.6423">
        <ele>6</ele>
        <time>2026-03-09T16:39:07.000Z</time>
      </trkpt>
      <trkpt lat="43.3812" lon="-1.64193">
        <ele>6</ele>
        <time>2026-03-09T16:39:15.000Z</time>
      </trkpt>
      <trkpt lat="43.38056" lon="-1.64058">
        <ele>9</ele>
        <time>2026-03-09T16:39:35.000Z</time>
      </trkpt>
      <trkpt lat="43.37906" lon="-1.63917">
        <ele>6</ele>
        <time>2026-03-09T16:40:08.000Z</time>
      </trkpt>
      <trkpt lat="43.37776" lon="-1.63786">
        <ele>8</ele>
        <time>2026-03-09T16:40:36.000Z</time>
      </trkpt>
      <trkpt lat="43.37759" lon="-1.63774">
        <ele>8</ele>
        <time>2026-03-09T16:40:40.000Z</time>
      </trkpt>
      <trkpt lat="43.37738" lon="-1.63772">
        <ele>8</ele>
        <time>2026-03-09T16:40:44.000Z</time>
      </trkpt>
      <trkpt lat="43.37642" lon="-1.63776">
        <ele>6</ele>
        <time>2026-03-09T16:41:01.000Z</time>
      </trkpt>
      <trkpt lat="43.37604" lon="-1.63785">
        <ele>6</ele>
        <time>2026-03-09T16:41:07.000Z</time>
      </trkpt>
      <trkpt lat="43.37541" lon="-1.63786">
        <ele>5</ele>
        <time>2026-03-09T16:41:19.000Z</time>
      </trkpt>
      <trkpt lat="43.37526" lon="-1.63781">
        <ele>5</ele>
        <time>2026-03-09T16:41:21.000Z</time>
      </trkpt>
      <trkpt lat="43.37517" lon="-1.6379">
        <ele>4</ele>
        <time>2026-03-09T16:41:23.000Z</time>
      </trkpt>
      <trkpt lat="43.3751" lon="-1.63791">
        <ele>4</ele>
        <time>2026-03-09T16:41:25.000Z</time>
      </trkpt>
      <trkpt lat="43.37445" lon="-1.63794">
        <ele>4</ele>
        <time>2026-03-09T16:41:36.000Z</time>
      </trkpt>
      <trkpt lat="43.37409" lon="-1.63788">
        <ele>4</ele>
        <time>2026-03-09T16:41:43.000Z</time>
      </trkpt>
      <trkpt lat="43.37111" lon="-1.63806">
        <ele>5</ele>
        <time>2026-03-09T16:42:36.000Z</time>
      </trkpt>
      <trkpt lat="43.37085" lon="-1.63801">
        <ele>6</ele>
        <time>2026-03-09T16:42:40.000Z</time>
      </trkpt>
      <trkpt lat="43.37067" lon="-1.63794">
        <ele>6</ele>
        <time>2026-03-09T16:42:44.000Z</time>
      </trkpt>
      <trkpt lat="43.36753" lon="-1.63597">
        <ele>7</ele>
        <time>2026-03-09T16:43:45.000Z</time>
      </trkpt>
      <trkpt lat="43.36709" lon="-1.63582">
        <ele>8</ele>
        <time>2026-03-09T16:43:53.000Z</time>
      </trkpt>
      <trkpt lat="43.36675" lon="-1.63576">
        <ele>8</ele>
        <time>2026-03-09T16:43:59.000Z</time>
      </trkpt>
      <trkpt lat="43.36638" lon="-1.63578">
        <ele>7</ele>
        <time>2026-03-09T16:44:06.000Z</time>
      </trkpt>
      <trkpt lat="43.36595" lon="-1.63589">
        <ele>5</ele>
        <time>2026-03-09T16:44:14.000Z</time>
      </trkpt>
      <trkpt lat="43.36349" lon="-1.63669">
        <ele>7</ele>
        <time>2026-03-09T16:44:59.000Z</time>
      </trkpt>
      <trkpt lat="43.36308" lon="-1.63673">
        <ele>7</ele>
        <time>2026-03-09T16:45:06.000Z</time>
      </trkpt>
      <trkpt lat="43.36277" lon="-1.63671">
        <ele>6</ele>
        <time>2026-03-09T16:45:11.000Z</time>
      </trkpt>
      <trkpt lat="43.36255" lon="-1.63666">
        <ele>6</ele>
        <time>2026-03-09T16:45:15.000Z</time>
      </trkpt>
      <trkpt lat="43.36097" lon="-1.63603">
        <ele>5</ele>
        <time>2026-03-09T16:45:45.000Z</time>
      </trkpt>
      <trkpt lat="43.36075" lon="-1.63589">
        <ele>5</ele>
        <time>2026-03-09T16:45:49.000Z</time>
      </trkpt>
      <trkpt lat="43.36061" lon="-1.63577">
        <ele>5</ele>
        <time>2026-03-09T16:45:52.000Z</time>
      </trkpt>
      <trkpt lat="43.36039" lon="-1.63549">
        <ele>6</ele>
        <time>2026-03-09T16:45:57.000Z</time>
      </trkpt>
      <trkpt lat="43.36029" lon="-1.63531">
        <ele>6</ele>
        <time>2026-03-09T16:46:00.000Z</time>
      </trkpt>
      <trkpt lat="43.36014" lon="-1.63501">
        <ele>6</ele>
        <time>2026-03-09T16:46:05.000Z</time>
      </trkpt>
      <trkpt lat="43.35995" lon="-1.63453">
        <ele>8</ele>
        <time>2026-03-09T16:46:12.000Z</time>
      </trkpt>
      <trkpt lat="43.35984" lon="-1.63434">
        <ele>8</ele>
        <time>2026-03-09T16:46:15.000Z</time>
      </trkpt>
      <trkpt lat="43.35935" lon="-1.63358">
        <ele>9</ele>
        <time>2026-03-09T16:46:28.000Z</time>
      </trkpt>
      <trkpt lat="43.35921" lon="-1.63341">
        <ele>8</ele>
        <time>2026-03-09T16:46:32.000Z</time>
      </trkpt>
      <trkpt lat="43.35859" lon="-1.6328">
        <ele>9</ele>
        <time>2026-03-09T16:46:45.000Z</time>
      </trkpt>
      <trkpt lat="43.35789" lon="-1.63219">
        <ele>9</ele>
        <time>2026-03-09T16:47:00.000Z</time>
      </trkpt>
      <trkpt lat="43.3575" lon="-1.63192">
        <ele>7</ele>
        <time>2026-03-09T16:47:08.000Z</time>
      </trkpt>
      <trkpt lat="43.35728" lon="-1.63183">
        <ele>7</ele>
        <time>2026-03-09T16:47:12.000Z</time>
      </trkpt>
      <trkpt lat="43.35699" lon="-1.63173">
        <ele>6</ele>
        <time>2026-03-09T16:47:17.000Z</time>
      </trkpt>
      <trkpt lat="43.35673" lon="-1.63163">
        <ele>6</ele>
        <time>2026-03-09T16:47:22.000Z</time>
      </trkpt>
      <trkpt lat="43.35667" lon="-1.63163">
        <ele>6</ele>
        <time>2026-03-09T16:47:23.000Z</time>
      </trkpt>
      <trkpt lat="43.35663" lon="-1.63166">
        <ele>6</ele>
        <time>2026-03-09T16:47:24.000Z</time>
      </trkpt>
      <trkpt lat="43.35657" lon="-1.63166">
        <ele>6</ele>
        <time>2026-03-09T16:47:25.000Z</time>
      </trkpt>
      <trkpt lat="43.35638" lon="-1.63154">
        <ele>6</ele>
        <time>2026-03-09T16:47:29.000Z</time>
      </trkpt>
      <trkpt lat="43.35614" lon="-1.63148">
        <ele>5</ele>
        <time>2026-03-09T16:47:33.000Z</time>
      </trkpt>
      <trkpt lat="43.3544" lon="-1.63097">
        <ele>6</ele>
        <time>2026-03-09T16:48:05.000Z</time>
      </trkpt>
      <trkpt lat="43.35403" lon="-1.63082">
        <ele>7</ele>
        <time>2026-03-09T16:48:11.000Z</time>
      </trkpt>
      <trkpt lat="43.35386" lon="-1.63073">
        <ele>7</ele>
        <time>2026-03-09T16:48:15.000Z</time>
      </trkpt>
      <trkpt lat="43.3535" lon="-1.63044">
        <ele>7</ele>
        <time>2026-03-09T16:48:22.000Z</time>
      </trkpt>
      <trkpt lat="43.35306" lon="-1.62998">
        <ele>6</ele>
        <time>2026-03-09T16:48:32.000Z</time>
      </trkpt>
      <trkpt lat="43.35289" lon="-1.62974">
        <ele>6</ele>
        <time>2026-03-09T16:48:36.000Z</time>
      </trkpt>
      <trkpt lat="43.35268" lon="-1.62932">
        <ele>6</ele>
        <time>2026-03-09T16:48:43.000Z</time>
      </trkpt>
      <trkpt lat="43.35255" lon="-1.629">
        <ele>6</ele>
        <time>2026-03-09T16:48:48.000Z</time>
      </trkpt>
      <trkpt lat="43.35207" lon="-1.62759">
        <ele>8</ele>
        <time>2026-03-09T16:49:08.000Z</time>
      </trkpt>
      <trkpt lat="43.35118" lon="-1.62528">
        <ele>12</ele>
        <time>2026-03-09T16:49:42.000Z</time>
      </trkpt>
      <trkpt lat="43.35108" lon="-1.62493">
        <ele>11</ele>
        <time>2026-03-09T16:49:46.000Z</time>
      </trkpt>
      <trkpt lat="43.35103" lon="-1.62461">
        <ele>10</ele>
        <time>2026-03-09T16:49:51.000Z</time>
      </trkpt>
      <trkpt lat="43.35103" lon="-1.62402">
        <ele>11</ele>
        <time>2026-03-09T16:49:58.000Z</time>
      </trkpt>
      <trkpt lat="43.35109" lon="-1.62334">
        <ele>10</ele>
        <time>2026-03-09T16:50:07.000Z</time>
      </trkpt>
      <trkpt lat="43.35118" lon="-1.62308">
        <ele>11</ele>
        <time>2026-03-09T16:50:11.000Z</time>
      </trkpt>
      <trkpt lat="43.35181" lon="-1.62185">
        <ele>11</ele>
        <time>2026-03-09T16:50:30.000Z</time>
      </trkpt>
      <trkpt lat="43.35201" lon="-1.62157">
        <ele>12</ele>
        <time>2026-03-09T16:50:35.000Z</time>
      </trkpt>
      <trkpt lat="43.35214" lon="-1.62143">
        <ele>12</ele>
        <time>2026-03-09T16:50:38.000Z</time>
      </trkpt>
      <trkpt lat="43.3524" lon="-1.62126">
        <ele>14</ele>
        <time>2026-03-09T16:50:44.000Z</time>
      </trkpt>
      <trkpt lat="43.35403" lon="-1.62062">
        <ele>22</ele>
        <time>2026-03-09T16:51:14.000Z</time>
      </trkpt>
      <trkpt lat="43.35432" lon="-1.62045">
        <ele>21</ele>
        <time>2026-03-09T16:51:19.000Z</time>
      </trkpt>
      <trkpt lat="43.35486" lon="-1.62001">
        <ele>18</ele>
        <time>2026-03-09T16:51:30.000Z</time>
      </trkpt>
      <trkpt lat="43.35515" lon="-1.61963">
        <ele>18</ele>
        <time>2026-03-09T16:51:38.000Z</time>
      </trkpt>
      <trkpt lat="43.35787" lon="-1.61535">
        <ele>14</ele>
        <time>2026-03-09T16:52:51.000Z</time>
      </trkpt>
      <trkpt lat="43.35815" lon="-1.61503">
        <ele>12</ele>
        <time>2026-03-09T16:52:58.000Z</time>
      </trkpt>
      <trkpt lat="43.35913" lon="-1.61419">
        <ele>16</ele>
        <time>2026-03-09T16:53:18.000Z</time>
      </trkpt>
      <trkpt lat="43.35934" lon="-1.61396">
        <ele>16</ele>
        <time>2026-03-09T16:53:23.000Z</time>
      </trkpt>
      <trkpt lat="43.36033" lon="-1.61268">
        <ele>11</ele>
        <time>2026-03-09T16:53:47.000Z</time>
      </trkpt>
      <trkpt lat="43.36058" lon="-1.61226">
        <ele>11</ele>
        <time>2026-03-09T16:53:54.000Z</time>
      </trkpt>
      <trkpt lat="43.36075" lon="-1.61188">
        <ele>12</ele>
        <time>2026-03-09T16:54:00.000Z</time>
      </trkpt>
      <trkpt lat="43.36091" lon="-1.61139">
        <ele>13</ele>
        <time>2026-03-09T16:54:07.000Z</time>
      </trkpt>
      <trkpt lat="43.36101" lon="-1.61078">
        <ele>15</ele>
        <time>2026-03-09T16:54:15.000Z</time>
      </trkpt>
      <trkpt lat="43.36105" lon="-1.61018">
        <ele>17</ele>
        <time>2026-03-09T16:54:23.000Z</time>
      </trkpt>
      <trkpt lat="43.36113" lon="-1.60838">
        <ele>16</ele>
        <time>2026-03-09T16:54:46.000Z</time>
      </trkpt>
      <trkpt lat="43.36119" lon="-1.6075">
        <ele>18</ele>
        <time>2026-03-09T16:54:57.000Z</time>
      </trkpt>
      <trkpt lat="43.36118" lon="-1.60724">
        <ele>18</ele>
        <time>2026-03-09T16:55:01.000Z</time>
      </trkpt>
      <trkpt lat="43.36104" lon="-1.60585">
        <ele>18</ele>
        <time>2026-03-09T16:55:19.000Z</time>
      </trkpt>
      <trkpt lat="43.36102" lon="-1.60551">
        <ele>17</ele>
        <time>2026-03-09T16:55:23.000Z</time>
      </trkpt>
      <trkpt lat="43.36102" lon="-1.60518">
        <ele>17</ele>
        <time>2026-03-09T16:55:28.000Z</time>
      </trkpt>
      <trkpt lat="43.36103" lon="-1.60494">
        <ele>17</ele>
        <time>2026-03-09T16:55:31.000Z</time>
      </trkpt>
      <trkpt lat="43.36109" lon="-1.60462">
        <ele>16</ele>
        <time>2026-03-09T16:55:35.000Z</time>
      </trkpt>
      <trkpt lat="43.36126" lon="-1.60409">
        <ele>15</ele>
        <time>2026-03-09T16:55:43.000Z</time>
      </trkpt>
      <trkpt lat="43.36138" lon="-1.60384">
        <ele>15</ele>
        <time>2026-03-09T16:55:46.000Z</time>
      </trkpt>
      <trkpt lat="43.36153" lon="-1.60362">
        <ele>14</ele>
        <time>2026-03-09T16:55:50.000Z</time>
      </trkpt>
      <trkpt lat="43.36173" lon="-1.60338">
        <ele>13</ele>
        <time>2026-03-09T16:55:55.000Z</time>
      </trkpt>
      <trkpt lat="43.36211" lon="-1.60302">
        <ele>16</ele>
        <time>2026-03-09T16:56:03.000Z</time>
      </trkpt>
      <trkpt lat="43.36264" lon="-1.60257">
        <ele>19</ele>
        <time>2026-03-09T16:56:14.000Z</time>
      </trkpt>
      <trkpt lat="43.36299" lon="-1.60225">
        <ele>21</ele>
        <time>2026-03-09T16:56:22.000Z</time>
      </trkpt>
      <trkpt lat="43.36316" lon="-1.60201">
        <ele>20</ele>
        <time>2026-03-09T16:56:26.000Z</time>
      </trkpt>
      <trkpt lat="43.36336" lon="-1.60166">
        <ele>16</ele>
        <time>2026-03-09T16:56:32.000Z</time>
      </trkpt>
      <trkpt lat="43.36371" lon="-1.60073">
        <ele>15</ele>
        <time>2026-03-09T16:56:45.000Z</time>
      </trkpt>
      <trkpt lat="43.36387" lon="-1.60042">
        <ele>15</ele>
        <time>2026-03-09T16:56:50.000Z</time>
      </trkpt>
      <trkpt lat="43.36404" lon="-1.60015">
        <ele>14</ele>
        <time>2026-03-09T16:56:55.000Z</time>
      </trkpt>
      <trkpt lat="43.36418" lon="-1.59996">
        <ele>13</ele>
        <time>2026-03-09T16:56:59.000Z</time>
      </trkpt>
      <trkpt lat="43.36447" lon="-1.59965">
        <ele>14</ele>
        <time>2026-03-09T16:57:05.000Z</time>
      </trkpt>
      <trkpt lat="43.36476" lon="-1.5994">
        <ele>14</ele>
        <time>2026-03-09T16:57:11.000Z</time>
      </trkpt>
      <trkpt lat="43.36533" lon="-1.59897">
        <ele>16</ele>
        <time>2026-03-09T16:57:23.000Z</time>
      </trkpt>
      <trkpt lat="43.36549" lon="-1.59873">
        <ele>17</ele>
        <time>2026-03-09T16:57:27.000Z</time>
      </trkpt>
      <trkpt lat="43.36562" lon="-1.59843">
        <ele>18</ele>
        <time>2026-03-09T16:57:31.000Z</time>
      </trkpt>
      <trkpt lat="43.36567" lon="-1.59809">
        <ele>18</ele>
        <time>2026-03-09T16:57:36.000Z</time>
      </trkpt>
      <trkpt lat="43.36588" lon="-1.59546">
        <ele>11</ele>
        <time>2026-03-09T16:58:10.000Z</time>
      </trkpt>
      <trkpt lat="43.36592" lon="-1.59482">
        <ele>9</ele>
        <time>2026-03-09T16:58:18.000Z</time>
      </trkpt>
      <trkpt lat="43.36589" lon="-1.5943">
        <ele>9</ele>
        <time>2026-03-09T16:58:25.000Z</time>
      </trkpt>
      <trkpt lat="43.36581" lon="-1.59376">
        <ele>9</ele>
        <time>2026-03-09T16:58:32.000Z</time>
      </trkpt>
      <trkpt lat="43.36482" lon="-1.59044">
        <ele>9</ele>
        <time>2026-03-09T16:59:19.000Z</time>
      </trkpt>
      <trkpt lat="43.3646" lon="-1.58976">
        <ele>11</ele>
        <time>2026-03-09T16:59:28.000Z</time>
      </trkpt>
      <trkpt lat="43.36444" lon="-1.58941">
        <ele>12</ele>
        <time>2026-03-09T16:59:34.000Z</time>
      </trkpt>
      <trkpt lat="43.36427" lon="-1.58913">
        <ele>13</ele>
        <time>2026-03-09T16:59:38.000Z</time>
      </trkpt>
      <trkpt lat="43.36402" lon="-1.58885">
        <ele>17</ele>
        <time>2026-03-09T16:59:44.000Z</time>
      </trkpt>
      <trkpt lat="43.36308" lon="-1.58801">
        <ele>19</ele>
        <time>2026-03-09T17:00:04.000Z</time>
      </trkpt>
      <trkpt lat="43.3628" lon="-1.58766">
        <ele>18</ele>
        <time>2026-03-09T17:00:11.000Z</time>
      </trkpt>
      <trkpt lat="43.36257" lon="-1.58723">
        <ele>14</ele>
        <time>2026-03-09T17:00:18.000Z</time>
      </trkpt>
      <trkpt lat="43.36164" lon="-1.58429">
        <ele>12</ele>
        <time>2026-03-09T17:00:59.000Z</time>
      </trkpt>
      <trkpt lat="43.36139" lon="-1.58363">
        <ele>12</ele>
        <time>2026-03-09T17:01:09.000Z</time>
      </trkpt>
      <trkpt lat="43.36129" lon="-1.58341">
        <ele>12</ele>
        <time>2026-03-09T17:01:12.000Z</time>
      </trkpt>
      <trkpt lat="43.36109" lon="-1.58303">
        <ele>12</ele>
        <time>2026-03-09T17:01:18.000Z</time>
      </trkpt>
      <trkpt lat="43.36003" lon="-1.58148">
        <ele>11</ele>
        <time>2026-03-09T17:01:46.000Z</time>
      </trkpt>
      <trkpt lat="43.35894" lon="-1.57993">
        <ele>11</ele>
        <time>2026-03-09T17:02:14.000Z</time>
      </trkpt>
      <trkpt lat="43.35882" lon="-1.57972">
        <ele>11</ele>
        <time>2026-03-09T17:02:17.000Z</time>
      </trkpt>
      <trkpt lat="43.35852" lon="-1.57913">
        <ele>12</ele>
        <time>2026-03-09T17:02:26.000Z</time>
      </trkpt>
      <trkpt lat="43.35838" lon="-1.57869">
        <ele>11</ele>
        <time>2026-03-09T17:02:33.000Z</time>
      </trkpt>
      <trkpt lat="43.35807" lon="-1.5772">
        <ele>12</ele>
        <time>2026-03-09T17:02:53.000Z</time>
      </trkpt>
      <trkpt lat="43.35782" lon="-1.57586">
        <ele>13</ele>
        <time>2026-03-09T17:03:11.000Z</time>
      </trkpt>
      <trkpt lat="43.35779" lon="-1.57552">
        <ele>13</ele>
        <time>2026-03-09T17:03:15.000Z</time>
      </trkpt>
      <trkpt lat="43.35779" lon="-1.57526">
        <ele>13</ele>
        <time>2026-03-09T17:03:18.000Z</time>
      </trkpt>
      <trkpt lat="43.35773" lon="-1.57481">
        <ele>13</ele>
        <time>2026-03-09T17:03:24.000Z</time>
      </trkpt>
      <trkpt lat="43.3577" lon="-1.57476">
        <ele>13</ele>
        <time>2026-03-09T17:03:25.000Z</time>
      </trkpt>
      <trkpt lat="43.35768" lon="-1.57469">
        <ele>13</ele>
        <time>2026-03-09T17:03:26.000Z</time>
      </trkpt>
      <trkpt lat="43.35771" lon="-1.57458">
        <ele>13</ele>
        <time>2026-03-09T17:03:28.000Z</time>
      </trkpt>
      <trkpt lat="43.35767" lon="-1.57433">
        <ele>13</ele>
        <time>2026-03-09T17:03:31.000Z</time>
      </trkpt>
      <trkpt lat="43.35763" lon="-1.57418">
        <ele>13</ele>
        <time>2026-03-09T17:03:33.000Z</time>
      </trkpt>
      <trkpt lat="43.35745" lon="-1.57225">
        <ele>14</ele>
        <time>2026-03-09T17:03:58.000Z</time>
      </trkpt>
      <trkpt lat="43.3574" lon="-1.57189">
        <ele>15</ele>
        <time>2026-03-09T17:04:03.000Z</time>
      </trkpt>
      <trkpt lat="43.35733" lon="-1.5716">
        <ele>15</ele>
        <time>2026-03-09T17:04:07.000Z</time>
      </trkpt>
      <trkpt lat="43.35723" lon="-1.57132">
        <ele>15</ele>
        <time>2026-03-09T17:04:11.000Z</time>
      </trkpt>
      <trkpt lat="43.35625" lon="-1.56922">
        <ele>17</ele>
        <time>2026-03-09T17:04:43.000Z</time>
      </trkpt>
      <trkpt lat="43.35597" lon="-1.56872">
        <ele>17</ele>
        <time>2026-03-09T17:04:51.000Z</time>
      </trkpt>
      <trkpt lat="43.35588" lon="-1.56851">
        <ele>17</ele>
        <time>2026-03-09T17:04:55.000Z</time>
      </trkpt>
      <trkpt lat="43.35586" lon="-1.56839">
        <ele>17</ele>
        <time>2026-03-09T17:04:56.000Z</time>
      </trkpt>
      <trkpt lat="43.35585" lon="-1.56813">
        <ele>17</ele>
        <time>2026-03-09T17:05:00.000Z</time>
      </trkpt>
      <trkpt lat="43.35589" lon="-1.56787">
        <ele>17</ele>
        <time>2026-03-09T17:05:03.000Z</time>
      </trkpt>
      <trkpt lat="43.35608" lon="-1.56729">
        <ele>18</ele>
        <time>2026-03-09T17:05:11.000Z</time>
      </trkpt>
      <trkpt lat="43.35617" lon="-1.56692">
        <ele>19</ele>
        <time>2026-03-09T17:05:16.000Z</time>
      </trkpt>
      <trkpt lat="43.35625" lon="-1.56642">
        <ele>19</ele>
        <time>2026-03-09T17:05:23.000Z</time>
      </trkpt>
      <trkpt lat="43.35624" lon="-1.56615">
        <ele>19</ele>
        <time>2026-03-09T17:05:26.000Z</time>
      </trkpt>
      <trkpt lat="43.35619" lon="-1.56612">
        <ele>19</ele>
        <time>2026-03-09T17:05:27.000Z</time>
      </trkpt>
      <trkpt lat="43.35615" lon="-1.56601">
        <ele>19</ele>
        <time>2026-03-09T17:05:29.000Z</time>
      </trkpt>
      <trkpt lat="43.35617" lon="-1.56593">
        <ele>19</ele>
        <time>2026-03-09T17:05:30.000Z</time>
      </trkpt>
      <trkpt lat="43.35621" lon="-1.56588">
        <ele>19</ele>
        <time>2026-03-09T17:05:31.000Z</time>
      </trkpt>
      <trkpt lat="43.35624" lon="-1.56587">
        <ele>19</ele>
        <time>2026-03-09T17:05:32.000Z</time>
      </trkpt>
      <trkpt lat="43.35622" lon="-1.56558">
        <ele>19</ele>
        <time>2026-03-09T17:05:35.000Z</time>
      </trkpt>
      <trkpt lat="43.35622" lon="-1.56509">
        <ele>19</ele>
        <time>2026-03-09T17:05:42.000Z</time>
      </trkpt>
      <trkpt lat="43.35616" lon="-1.56498">
        <ele>18</ele>
        <time>2026-03-09T17:05:43.000Z</time>
      </trkpt>
      <trkpt lat="43.3561" lon="-1.56297">
        <ele>18</ele>
        <time>2026-03-09T17:06:09.000Z</time>
      </trkpt>
      <trkpt lat="43.35609" lon="-1.56223">
        <ele>18</ele>
        <time>2026-03-09T17:06:19.000Z</time>
      </trkpt>
      <trkpt lat="43.35614" lon="-1.56149">
        <ele>19</ele>
        <time>2026-03-09T17:06:29.000Z</time>
      </trkpt>
      <trkpt lat="43.35618" lon="-1.56125">
        <ele>18</ele>
        <time>2026-03-09T17:06:32.000Z</time>
      </trkpt>
      <trkpt lat="43.35635" lon="-1.56094">
        <ele>18</ele>
        <time>2026-03-09T17:06:37.000Z</time>
      </trkpt>
      <trkpt lat="43.35642" lon="-1.56085">
        <ele>17</ele>
        <time>2026-03-09T17:06:39.000Z</time>
      </trkpt>
      <trkpt lat="43.35648" lon="-1.5608">
        <ele>17</ele>
        <time>2026-03-09T17:06:40.000Z</time>
      </trkpt>
      <trkpt lat="43.35652" lon="-1.56086">
        <ele>18</ele>
        <time>2026-03-09T17:06:41.000Z</time>
      </trkpt>
      <trkpt lat="43.35721" lon="-1.56041">
        <ele>19</ele>
        <time>2026-03-09T17:06:54.000Z</time>
      </trkpt>
      <trkpt lat="43.3573" lon="-1.56032">
        <ele>19</ele>
        <time>2026-03-09T17:06:56.000Z</time>
      </trkpt>
      <trkpt lat="43.35734" lon="-1.56023">
        <ele>19</ele>
        <time>2026-03-09T17:06:58.000Z</time>
      </trkpt>
      <trkpt lat="43.35739" lon="-1.56006">
        <ele>18</ele>
        <time>2026-03-09T17:07:00.000Z</time>
      </trkpt>
      <trkpt lat="43.35737" lon="-1.55994">
        <ele>17</ele>
        <time>2026-03-09T17:07:02.000Z</time>
      </trkpt>
      <trkpt lat="43.35741" lon="-1.55983">
        <ele>17</ele>
        <time>2026-03-09T17:07:03.000Z</time>
      </trkpt>
      <trkpt lat="43.35745" lon="-1.55978">
        <ele>17</ele>
        <time>2026-03-09T17:07:04.000Z</time>
      </trkpt>
      <trkpt lat="43.35751" lon="-1.55976">
        <ele>17</ele>
        <time>2026-03-09T17:07:05.000Z</time>
      </trkpt>
      <trkpt lat="43.35756" lon="-1.55977">
        <ele>17</ele>
        <time>2026-03-09T17:07:06.000Z</time>
      </trkpt>
      <trkpt lat="43.35774" lon="-1.55958">
        <ele>18</ele>
        <time>2026-03-09T17:07:10.000Z</time>
      </trkpt>
      <trkpt lat="43.35781" lon="-1.55938">
        <ele>18</ele>
        <time>2026-03-09T17:07:13.000Z</time>
      </trkpt>
      <trkpt lat="43.35785" lon="-1.55918">
        <ele>18</ele>
        <time>2026-03-09T17:07:16.000Z</time>
      </trkpt>
      <trkpt lat="43.35787" lon="-1.55898">
        <ele>20</ele>
        <time>2026-03-09T17:07:18.000Z</time>
      </trkpt>
      <trkpt lat="43.3578" lon="-1.55666">
        <ele>23</ele>
        <time>2026-03-09T17:07:49.000Z</time>
      </trkpt>
      <trkpt lat="43.35781" lon="-1.55641">
        <ele>23</ele>
        <time>2026-03-09T17:07:52.000Z</time>
      </trkpt>
      <trkpt lat="43.35784" lon="-1.55615">
        <ele>23</ele>
        <time>2026-03-09T17:07:55.000Z</time>
      </trkpt>
      <trkpt lat="43.35793" lon="-1.55578">
        <ele>24</ele>
        <time>2026-03-09T17:08:00.000Z</time>
      </trkpt>
      <trkpt lat="43.35797" lon="-1.55542">
        <ele>25</ele>
        <time>2026-03-09T17:08:05.000Z</time>
      </trkpt>
      <trkpt lat="43.35798" lon="-1.55504">
        <ele>25</ele>
        <time>2026-03-09T17:08:10.000Z</time>
      </trkpt>
      <trkpt lat="43.35769" lon="-1.55301">
        <ele>22</ele>
        <time>2026-03-09T17:08:37.000Z</time>
      </trkpt>
      <trkpt lat="43.35763" lon="-1.55276">
        <ele>22</ele>
        <time>2026-03-09T17:08:40.000Z</time>
      </trkpt>
      <trkpt lat="43.35747" lon="-1.55246">
        <ele>22</ele>
        <time>2026-03-09T17:08:45.000Z</time>
      </trkpt>
      <trkpt lat="43.3574" lon="-1.55234">
        <ele>22</ele>
        <time>2026-03-09T17:08:47.000Z</time>
      </trkpt>
      <trkpt lat="43.35705" lon="-1.55184">
        <ele>22</ele>
        <time>2026-03-09T17:08:56.000Z</time>
      </trkpt>
      <trkpt lat="43.35676" lon="-1.55133">
        <ele>21</ele>
        <time>2026-03-09T17:09:04.000Z</time>
      </trkpt>
      <trkpt lat="43.35639" lon="-1.55061">
        <ele>22</ele>
        <time>2026-03-09T17:09:16.000Z</time>
      </trkpt>
      <trkpt lat="43.35753" lon="-1.54939">
        <ele>27</ele>
        <time>2026-03-09T17:09:41.000Z</time>
      </trkpt>
      <trkpt lat="43.35784" lon="-1.54901">
        <ele>30</ele>
        <time>2026-03-09T17:09:49.000Z</time>
      </trkpt>
      <trkpt lat="43.35848" lon="-1.54788">
        <ele>35</ele>
        <time>2026-03-09T17:10:07.000Z</time>
      </trkpt>
      <trkpt lat="43.35856" lon="-1.54778">
        <ele>36</ele>
        <time>2026-03-09T17:10:09.000Z</time>
      </trkpt>
      <trkpt lat="43.35883" lon="-1.5476">
        <ele>39</ele>
        <time>2026-03-09T17:10:14.000Z</time>
      </trkpt>
      <trkpt lat="43.3601" lon="-1.54708">
        <ele>53</ele>
        <time>2026-03-09T17:10:38.000Z</time>
      </trkpt>
      <trkpt lat="43.36026" lon="-1.54699">
        <ele>55</ele>
        <time>2026-03-09T17:10:41.000Z</time>
      </trkpt>
      <trkpt lat="43.36068" lon="-1.54671">
        <ele>58</ele>
        <time>2026-03-09T17:10:49.000Z</time>
      </trkpt>
      <trkpt lat="43.36199" lon="-1.54619">
        <ele>67</ele>
        <time>2026-03-09T17:11:14.000Z</time>
      </trkpt>
      <trkpt lat="43.36233" lon="-1.54606">
        <ele>67</ele>
        <time>2026-03-09T17:11:20.000Z</time>
      </trkpt>
      <trkpt lat="43.36274" lon="-1.54596">
        <ele>69</ele>
        <time>2026-03-09T17:11:27.000Z</time>
      </trkpt>
      <trkpt lat="43.3629" lon="-1.54587">
        <ele>70</ele>
        <time>2026-03-09T17:11:30.000Z</time>
      </trkpt>
      <trkpt lat="43.36304" lon="-1.54576">
        <ele>72</ele>
        <time>2026-03-09T17:11:33.000Z</time>
      </trkpt>
      <trkpt lat="43.3632" lon="-1.54556">
        <ele>76</ele>
        <time>2026-03-09T17:11:37.000Z</time>
      </trkpt>
      <trkpt lat="43.36338" lon="-1.54516">
        <ele>82</ele>
        <time>2026-03-09T17:11:43.000Z</time>
      </trkpt>
      <trkpt lat="43.36347" lon="-1.54511">
        <ele>83</ele>
        <time>2026-03-09T17:11:45.000Z</time>
      </trkpt>
      <trkpt lat="43.3637" lon="-1.54515">
        <ele>84</ele>
        <time>2026-03-09T17:11:49.000Z</time>
      </trkpt>
      <trkpt lat="43.36384" lon="-1.54515">
        <ele>85</ele>
        <time>2026-03-09T17:11:52.000Z</time>
      </trkpt>
      <trkpt lat="43.36529" lon="-1.54476">
        <ele>90</ele>
        <time>2026-03-09T17:12:18.000Z</time>
      </trkpt>
      <trkpt lat="43.36539" lon="-1.54346">
        <ele>90</ele>
        <time>2026-03-09T17:12:35.000Z</time>
      </trkpt>
      <trkpt lat="43.36522" lon="-1.54318">
        <ele>91</ele>
        <time>2026-03-09T17:12:40.000Z</time>
      </trkpt>
      <trkpt lat="43.36492" lon="-1.54318">
        <ele>95</ele>
        <time>2026-03-09T17:12:45.000Z</time>
      </trkpt>
      <trkpt lat="43.36468" lon="-1.54315">
        <ele>97</ele>
        <time>2026-03-09T17:12:49.000Z</time>
      </trkpt>
      <trkpt lat="43.3645" lon="-1.54307">
        <ele>99</ele>
        <time>2026-03-09T17:12:53.000Z</time>
      </trkpt>
      <trkpt lat="43.36434" lon="-1.54296">
        <ele>100</ele>
        <time>2026-03-09T17:12:56.000Z</time>
      </trkpt>
      <trkpt lat="43.36422" lon="-1.54277">
        <ele>101</ele>
        <time>2026-03-09T17:12:59.000Z</time>
      </trkpt>
      <trkpt lat="43.36416" lon="-1.54258">
        <ele>100</ele>
        <time>2026-03-09T17:13:02.000Z</time>
      </trkpt>
      <trkpt lat="43.36416" lon="-1.54232">
        <ele>99</ele>
        <time>2026-03-09T17:13:05.000Z</time>
      </trkpt>
      <trkpt lat="43.36438" lon="-1.54039">
        <ele>95</ele>
        <time>2026-03-09T17:13:30.000Z</time>
      </trkpt>
      <trkpt lat="43.3644" lon="-1.53976">
        <ele>96</ele>
        <time>2026-03-09T17:13:38.000Z</time>
      </trkpt>
      <trkpt lat="43.36451" lon="-1.53875">
        <ele>99</ele>
        <time>2026-03-09T17:13:52.000Z</time>
      </trkpt>
      <trkpt lat="43.36453" lon="-1.53796">
        <ele>99</ele>
        <time>2026-03-09T17:14:02.000Z</time>
      </trkpt>
      <trkpt lat="43.36458" lon="-1.5377">
        <ele>99</ele>
        <time>2026-03-09T17:14:05.000Z</time>
      </trkpt>
      <trkpt lat="43.36486" lon="-1.53691">
        <ele>98</ele>
        <time>2026-03-09T17:14:17.000Z</time>
      </trkpt>
      <trkpt lat="43.36504" lon="-1.53627">
        <ele>97</ele>
        <time>2026-03-09T17:14:26.000Z</time>
      </trkpt>
      <trkpt lat="43.36507" lon="-1.53566">
        <ele>97</ele>
        <time>2026-03-09T17:14:33.000Z</time>
      </trkpt>
      <trkpt lat="43.36496" lon="-1.53439">
        <ele>104</ele>
        <time>2026-03-09T17:14:50.000Z</time>
      </trkpt>
      <trkpt lat="43.36463" lon="-1.53252">
        <ele>108</ele>
        <time>2026-03-09T17:15:15.000Z</time>
      </trkpt>
      <trkpt lat="43.36424" lon="-1.53">
        <ele>110</ele>
        <time>2026-03-09T17:15:48.000Z</time>
      </trkpt>
      <trkpt lat="43.3641" lon="-1.52925">
        <ele>115</ele>
        <time>2026-03-09T17:15:58.000Z</time>
      </trkpt>
      <trkpt lat="43.36402" lon="-1.52897">
        <ele>114</ele>
        <time>2026-03-09T17:16:02.000Z</time>
      </trkpt>
      <trkpt lat="43.3639" lon="-1.52871">
        <ele>114</ele>
        <time>2026-03-09T17:16:06.000Z</time>
      </trkpt>
      <trkpt lat="43.36341" lon="-1.52783">
        <ele>117</ele>
        <time>2026-03-09T17:16:20.000Z</time>
      </trkpt>
      <trkpt lat="43.36322" lon="-1.52743">
        <ele>118</ele>
        <time>2026-03-09T17:16:27.000Z</time>
      </trkpt>
      <trkpt lat="43.36305" lon="-1.5269">
        <ele>120</ele>
        <time>2026-03-09T17:16:34.000Z</time>
      </trkpt>
      <trkpt lat="43.36299" lon="-1.52656">
        <ele>123</ele>
        <time>2026-03-09T17:16:39.000Z</time>
      </trkpt>
      <trkpt lat="43.36298" lon="-1.52625">
        <ele>125</ele>
        <time>2026-03-09T17:16:43.000Z</time>
      </trkpt>
      <trkpt lat="43.36335" lon="-1.52415">
        <ele>132</ele>
        <time>2026-03-09T17:17:11.000Z</time>
      </trkpt>
      <trkpt lat="43.36342" lon="-1.52397">
        <ele>132</ele>
        <time>2026-03-09T17:17:13.000Z</time>
      </trkpt>
      <trkpt lat="43.36356" lon="-1.52376">
        <ele>132</ele>
        <time>2026-03-09T17:17:17.000Z</time>
      </trkpt>
      <trkpt lat="43.3638" lon="-1.52351">
        <ele>132</ele>
        <time>2026-03-09T17:17:22.000Z</time>
      </trkpt>
      <trkpt lat="43.36417" lon="-1.52323">
        <ele>131</ele>
        <time>2026-03-09T17:17:30.000Z</time>
      </trkpt>
      <trkpt lat="43.36446" lon="-1.52304">
        <ele>130</ele>
        <time>2026-03-09T17:17:36.000Z</time>
      </trkpt>
      <trkpt lat="43.36473" lon="-1.5229">
        <ele>130</ele>
        <time>2026-03-09T17:17:41.000Z</time>
      </trkpt>
      <trkpt lat="43.36506" lon="-1.52278">
        <ele>131</ele>
        <time>2026-03-09T17:17:47.000Z</time>
      </trkpt>
      <trkpt lat="43.36523" lon="-1.52274">
        <ele>133</ele>
        <time>2026-03-09T17:17:50.000Z</time>
      </trkpt>
      <trkpt lat="43.36534" lon="-1.52277">
        <ele>133</ele>
        <time>2026-03-09T17:17:52.000Z</time>
      </trkpt>
      <trkpt lat="43.36545" lon="-1.52284">
        <ele>134</ele>
        <time>2026-03-09T17:17:54.000Z</time>
      </trkpt>
      <trkpt lat="43.36555" lon="-1.52297">
        <ele>134</ele>
        <time>2026-03-09T17:17:56.000Z</time>
      </trkpt>
      <trkpt lat="43.36591" lon="-1.52379">
        <ele>132</ele>
        <time>2026-03-09T17:18:09.000Z</time>
      </trkpt>
      <trkpt lat="43.36599" lon="-1.52391">
        <ele>132</ele>
        <time>2026-03-09T17:18:11.000Z</time>
      </trkpt>
      <trkpt lat="43.36609" lon="-1.52398">
        <ele>132</ele>
        <time>2026-03-09T17:18:13.000Z</time>
      </trkpt>
      <trkpt lat="43.3662" lon="-1.52401">
        <ele>133</ele>
        <time>2026-03-09T17:18:15.000Z</time>
      </trkpt>
      <trkpt lat="43.3663" lon="-1.52398">
        <ele>134</ele>
        <time>2026-03-09T17:18:17.000Z</time>
      </trkpt>
      <trkpt lat="43.36641" lon="-1.52391">
        <ele>135</ele>
        <time>2026-03-09T17:18:19.000Z</time>
      </trkpt>
      <trkpt lat="43.36655" lon="-1.52375">
        <ele>137</ele>
        <time>2026-03-09T17:18:22.000Z</time>
      </trkpt>
      <trkpt lat="43.36668" lon="-1.52369">
        <ele>138</ele>
        <time>2026-03-09T17:18:25.000Z</time>
      </trkpt>
      <trkpt lat="43.36702" lon="-1.52364">
        <ele>137</ele>
        <time>2026-03-09T17:18:31.000Z</time>
      </trkpt>
      <trkpt lat="43.36717" lon="-1.52356">
        <ele>137</ele>
        <time>2026-03-09T17:18:34.000Z</time>
      </trkpt>
      <trkpt lat="43.36755" lon="-1.52327">
        <ele>140</ele>
        <time>2026-03-09T17:18:41.000Z</time>
      </trkpt>
      <trkpt lat="43.36764" lon="-1.52325">
        <ele>141</ele>
        <time>2026-03-09T17:18:43.000Z</time>
      </trkpt>
      <trkpt lat="43.36773" lon="-1.52329">
        <ele>142</ele>
        <time>2026-03-09T17:18:45.000Z</time>
      </trkpt>
      <trkpt lat="43.36779" lon="-1.52335">
        <ele>142</ele>
        <time>2026-03-09T17:18:46.000Z</time>
      </trkpt>
      <trkpt lat="43.36787" lon="-1.5235">
        <ele>142</ele>
        <time>2026-03-09T17:18:48.000Z</time>
      </trkpt>
      <trkpt lat="43.36799" lon="-1.52394">
        <ele>140</ele>
        <time>2026-03-09T17:18:54.000Z</time>
      </trkpt>
      <trkpt lat="43.36817" lon="-1.52434">
        <ele>140</ele>
        <time>2026-03-09T17:19:00.000Z</time>
      </trkpt>
      <trkpt lat="43.36831" lon="-1.52476">
        <ele>140</ele>
        <time>2026-03-09T17:19:06.000Z</time>
      </trkpt>
      <trkpt lat="43.36841" lon="-1.52544">
        <ele>141</ele>
        <time>2026-03-09T17:19:15.000Z</time>
      </trkpt>
      <trkpt lat="43.36833" lon="-1.52584">
        <ele>140</ele>
        <time>2026-03-09T17:19:21.000Z</time>
      </trkpt>
      <trkpt lat="43.36833" lon="-1.52616">
        <ele>139</ele>
        <time>2026-03-09T17:19:25.000Z</time>
      </trkpt>
      <trkpt lat="43.36841" lon="-1.52631">
        <ele>139</ele>
        <time>2026-03-09T17:19:27.000Z</time>
      </trkpt>
      <trkpt lat="43.36853" lon="-1.52645">
        <ele>139</ele>
        <time>2026-03-09T17:19:30.000Z</time>
      </trkpt>
      <trkpt lat="43.36867" lon="-1.52655">
        <ele>139</ele>
        <time>2026-03-09T17:19:33.000Z</time>
      </trkpt>
      <trkpt lat="43.36882" lon="-1.52658">
        <ele>139</ele>
        <time>2026-03-09T17:19:36.000Z</time>
      </trkpt>
      <trkpt lat="43.36908" lon="-1.52652">
        <ele>141</ele>
        <time>2026-03-09T17:19:40.000Z</time>
      </trkpt>
      <trkpt lat="43.36952" lon="-1.52605">
        <ele>142</ele>
        <time>2026-03-09T17:19:50.000Z</time>
      </trkpt>
      <trkpt lat="43.37005" lon="-1.52582">
        <ele>141</ele>
        <time>2026-03-09T17:20:00.000Z</time>
      </trkpt>
      <trkpt lat="43.3703" lon="-1.52563">
        <ele>141</ele>
        <time>2026-03-09T17:20:05.000Z</time>
      </trkpt>
      <trkpt lat="43.37046" lon="-1.52546">
        <ele>141</ele>
        <time>2026-03-09T17:20:09.000Z</time>
      </trkpt>
      <trkpt lat="43.37057" lon="-1.52524">
        <ele>141</ele>
        <time>2026-03-09T17:20:12.000Z</time>
      </trkpt>
      <trkpt lat="43.37064" lon="-1.52497">
        <ele>141</ele>
        <time>2026-03-09T17:20:16.000Z</time>
      </trkpt>
      <trkpt lat="43.37068" lon="-1.52455">
        <ele>141</ele>
        <time>2026-03-09T17:20:21.000Z</time>
      </trkpt>
      <trkpt lat="43.37071" lon="-1.52361">
        <ele>143</ele>
        <time>2026-03-09T17:20:34.000Z</time>
      </trkpt>
      <trkpt lat="43.37078" lon="-1.52342">
        <ele>143</ele>
        <time>2026-03-09T17:20:36.000Z</time>
      </trkpt>
      <trkpt lat="43.37089" lon="-1.52331">
        <ele>142</ele>
        <time>2026-03-09T17:20:39.000Z</time>
      </trkpt>
      <trkpt lat="43.37124" lon="-1.52316">
        <ele>138</ele>
        <time>2026-03-09T17:20:45.000Z</time>
      </trkpt>
      <trkpt lat="43.37147" lon="-1.52301">
        <ele>136</ele>
        <time>2026-03-09T17:20:50.000Z</time>
      </trkpt>
      <trkpt lat="43.37178" lon="-1.52275">
        <ele>134</ele>
        <time>2026-03-09T17:20:56.000Z</time>
      </trkpt>
      <trkpt lat="43.37235" lon="-1.52208">
        <ele>137</ele>
        <time>2026-03-09T17:21:10.000Z</time>
      </trkpt>
      <trkpt lat="43.37257" lon="-1.52177">
        <ele>139</ele>
        <time>2026-03-09T17:21:15.000Z</time>
      </trkpt>
      <trkpt lat="43.37271" lon="-1.52149">
        <ele>139</ele>
        <time>2026-03-09T17:21:20.000Z</time>
      </trkpt>
      <trkpt lat="43.37283" lon="-1.52118">
        <ele>138</ele>
        <time>2026-03-09T17:21:24.000Z</time>
      </trkpt>
      <trkpt lat="43.37289" lon="-1.52082">
        <ele>138</ele>
        <time>2026-03-09T17:21:29.000Z</time>
      </trkpt>
      <trkpt lat="43.37287" lon="-1.52055">
        <ele>138</ele>
        <time>2026-03-09T17:21:32.000Z</time>
      </trkpt>
      <trkpt lat="43.37275" lon="-1.52001">
        <ele>138</ele>
        <time>2026-03-09T17:21:40.000Z</time>
      </trkpt>
      <trkpt lat="43.37258" lon="-1.51934">
        <ele>139</ele>
        <time>2026-03-09T17:21:49.000Z</time>
      </trkpt>
      <trkpt lat="43.37239" lon="-1.51887">
        <ele>140</ele>
        <time>2026-03-09T17:21:56.000Z</time>
      </trkpt>
      <trkpt lat="43.37228" lon="-1.51845">
        <ele>139</ele>
        <time>2026-03-09T17:22:02.000Z</time>
      </trkpt>
      <trkpt lat="43.37229" lon="-1.518">
        <ele>139</ele>
        <time>2026-03-09T17:22:07.000Z</time>
      </trkpt>
      <trkpt lat="43.37249" lon="-1.51722">
        <ele>139</ele>
        <time>2026-03-09T17:22:18.000Z</time>
      </trkpt>
      <trkpt lat="43.37263" lon="-1.51685">
        <ele>138</ele>
        <time>2026-03-09T17:22:24.000Z</time>
      </trkpt>
      <trkpt lat="43.37279" lon="-1.51656">
        <ele>137</ele>
        <time>2026-03-09T17:22:28.000Z</time>
      </trkpt>
      <trkpt lat="43.373" lon="-1.51641">
        <ele>137</ele>
        <time>2026-03-09T17:22:32.000Z</time>
      </trkpt>
      <trkpt lat="43.37384" lon="-1.51611">
        <ele>134</ele>
        <time>2026-03-09T17:22:48.000Z</time>
      </trkpt>
      <trkpt lat="43.374" lon="-1.51603">
        <ele>134</ele>
        <time>2026-03-09T17:22:51.000Z</time>
      </trkpt>
      <trkpt lat="43.37411" lon="-1.51588">
        <ele>135</ele>
        <time>2026-03-09T17:22:54.000Z</time>
      </trkpt>
      <trkpt lat="43.37423" lon="-1.51565">
        <ele>134</ele>
        <time>2026-03-09T17:22:57.000Z</time>
      </trkpt>
      <trkpt lat="43.37427" lon="-1.51539">
        <ele>134</ele>
        <time>2026-03-09T17:23:01.000Z</time>
      </trkpt>
      <trkpt lat="43.37438" lon="-1.51436">
        <ele>133</ele>
        <time>2026-03-09T17:23:14.000Z</time>
      </trkpt>
      <trkpt lat="43.37448" lon="-1.51363">
        <ele>132</ele>
        <time>2026-03-09T17:23:24.000Z</time>
      </trkpt>
      <trkpt lat="43.37452" lon="-1.51326">
        <ele>131</ele>
        <time>2026-03-09T17:23:29.000Z</time>
      </trkpt>
      <trkpt lat="43.37452" lon="-1.51292">
        <ele>132</ele>
        <time>2026-03-09T17:23:33.000Z</time>
      </trkpt>
      <trkpt lat="43.37454" lon="-1.51254">
        <ele>132</ele>
        <time>2026-03-09T17:23:38.000Z</time>
      </trkpt>
      <trkpt lat="43.37462" lon="-1.51223">
        <ele>132</ele>
        <time>2026-03-09T17:23:42.000Z</time>
      </trkpt>
      <trkpt lat="43.37487" lon="-1.51176">
        <ele>134</ele>
        <time>2026-03-09T17:23:50.000Z</time>
      </trkpt>
      <trkpt lat="43.37498" lon="-1.51158">
        <ele>135</ele>
        <time>2026-03-09T17:23:53.000Z</time>
      </trkpt>
      <trkpt lat="43.37508" lon="-1.51147">
        <ele>136</ele>
        <time>2026-03-09T17:23:55.000Z</time>
      </trkpt>
      <trkpt lat="43.37523" lon="-1.51135">
        <ele>136</ele>
        <time>2026-03-09T17:23:58.000Z</time>
      </trkpt>
      <trkpt lat="43.37543" lon="-1.5113">
        <ele>136</ele>
        <time>2026-03-09T17:24:02.000Z</time>
      </trkpt>
      <trkpt lat="43.37576" lon="-1.51129">
        <ele>136</ele>
        <time>2026-03-09T17:24:08.000Z</time>
      </trkpt>
      <trkpt lat="43.37596" lon="-1.51133">
        <ele>136</ele>
        <time>2026-03-09T17:24:11.000Z</time>
      </trkpt>
      <trkpt lat="43.37641" lon="-1.51154">
        <ele>135</ele>
        <time>2026-03-09T17:24:20.000Z</time>
      </trkpt>
      <trkpt lat="43.37666" lon="-1.51152">
        <ele>136</ele>
        <time>2026-03-09T17:24:24.000Z</time>
      </trkpt>
      <trkpt lat="43.3768" lon="-1.51144">
        <ele>136</ele>
        <time>2026-03-09T17:24:27.000Z</time>
      </trkpt>
      <trkpt lat="43.37693" lon="-1.51128">
        <ele>136</ele>
        <time>2026-03-09T17:24:30.000Z</time>
      </trkpt>
      <trkpt lat="43.37704" lon="-1.51106">
        <ele>137</ele>
        <time>2026-03-09T17:24:33.000Z</time>
      </trkpt>
      <trkpt lat="43.37723" lon="-1.51051">
        <ele>137</ele>
        <time>2026-03-09T17:24:41.000Z</time>
      </trkpt>
      <trkpt lat="43.37737" lon="-1.51026">
        <ele>136</ele>
        <time>2026-03-09T17:24:45.000Z</time>
      </trkpt>
      <trkpt lat="43.37768" lon="-1.50997">
        <ele>135</ele>
        <time>2026-03-09T17:24:52.000Z</time>
      </trkpt>
      <trkpt lat="43.37838" lon="-1.50848">
        <ele>132</ele>
        <time>2026-03-09T17:25:15.000Z</time>
      </trkpt>
      <trkpt lat="43.37847" lon="-1.50819">
        <ele>132</ele>
        <time>2026-03-09T17:25:19.000Z</time>
      </trkpt>
      <trkpt lat="43.37859" lon="-1.50665">
        <ele>129</ele>
        <time>2026-03-09T17:25:39.000Z</time>
      </trkpt>
      <trkpt lat="43.37871" lon="-1.50596">
        <ele>128</ele>
        <time>2026-03-09T17:25:48.000Z</time>
      </trkpt>
      <trkpt lat="43.37875" lon="-1.50531">
        <ele>128</ele>
        <time>2026-03-09T17:25:57.000Z</time>
      </trkpt>
      <trkpt lat="43.37867" lon="-1.50466">
        <ele>127</ele>
        <time>2026-03-09T17:26:05.000Z</time>
      </trkpt>
      <trkpt lat="43.37871" lon="-1.5045">
        <ele>127</ele>
        <time>2026-03-09T17:26:07.000Z</time>
      </trkpt>
      <trkpt lat="43.37878" lon="-1.50441">
        <ele>128</ele>
        <time>2026-03-09T17:26:09.000Z</time>
      </trkpt>
      <trkpt lat="43.3789" lon="-1.50437">
        <ele>128</ele>
        <time>2026-03-09T17:26:11.000Z</time>
      </trkpt>
      <trkpt lat="43.37906" lon="-1.50439">
        <ele>129</ele>
        <time>2026-03-09T17:26:14.000Z</time>
      </trkpt>
      <trkpt lat="43.37933" lon="-1.50453">
        <ele>129</ele>
        <time>2026-03-09T17:26:19.000Z</time>
      </trkpt>
      <trkpt lat="43.37947" lon="-1.50456">
        <ele>129</ele>
        <time>2026-03-09T17:26:22.000Z</time>
      </trkpt>
      <trkpt lat="43.37963" lon="-1.50452">
        <ele>129</ele>
        <time>2026-03-09T17:26:25.000Z</time>
      </trkpt>
      <trkpt lat="43.37996" lon="-1.50438">
        <ele>128</ele>
        <time>2026-03-09T17:26:31.000Z</time>
      </trkpt>
      <trkpt lat="43.38017" lon="-1.50433">
        <ele>128</ele>
        <time>2026-03-09T17:26:35.000Z</time>
      </trkpt>
      <trkpt lat="43.38125" lon="-1.5043">
        <ele>127</ele>
        <time>2026-03-09T17:26:54.000Z</time>
      </trkpt>
      <trkpt lat="43.3815" lon="-1.50433">
        <ele>127</ele>
        <time>2026-03-09T17:26:58.000Z</time>
      </trkpt>
      <trkpt lat="43.3826" lon="-1.50458">
        <ele>127</ele>
        <time>2026-03-09T17:27:18.000Z</time>
      </trkpt>
      <trkpt lat="43.38265" lon="-1.50446">
        <ele>127</ele>
        <time>2026-03-09T17:27:20.000Z</time>
      </trkpt>
      <trkpt lat="43.38359" lon="-1.50285">
        <ele>126</ele>
        <time>2026-03-09T17:27:47.000Z</time>
      </trkpt>
      <trkpt lat="43.38412" lon="-1.50226">
        <ele>128</ele>
        <time>2026-03-09T17:27:59.000Z</time>
      </trkpt>
      <trkpt lat="43.3844" lon="-1.50174">
        <ele>129</ele>
        <time>2026-03-09T17:28:07.000Z</time>
      </trkpt>
      <trkpt lat="43.38452" lon="-1.50137">
        <ele>131</ele>
        <time>2026-03-09T17:28:12.000Z</time>
      </trkpt>
      <trkpt lat="43.38468" lon="-1.50015">
        <ele>135</ele>
        <time>2026-03-09T17:28:29.000Z</time>
      </trkpt>
      <trkpt lat="43.38475" lon="-1.49994">
        <ele>136</ele>
        <time>2026-03-09T17:28:32.000Z</time>
      </trkpt>
      <trkpt lat="43.38555" lon="-1.49922">
        <ele>140</ele>
        <time>2026-03-09T17:28:49.000Z</time>
      </trkpt>
      <trkpt lat="43.38573" lon="-1.49898">
        <ele>141</ele>
        <time>2026-03-09T17:28:53.000Z</time>
      </trkpt>
      <trkpt lat="43.3866" lon="-1.49697">
        <ele>138</ele>
        <time>2026-03-09T17:29:23.000Z</time>
      </trkpt>
      <trkpt lat="43.3868" lon="-1.49636">
        <ele>134</ele>
        <time>2026-03-09T17:29:32.000Z</time>
      </trkpt>
      <trkpt lat="43.38685" lon="-1.49592">
        <ele>133</ele>
        <time>2026-03-09T17:29:38.000Z</time>
      </trkpt>
      <trkpt lat="43.38678" lon="-1.49501">
        <ele>133</ele>
        <time>2026-03-09T17:29:49.000Z</time>
      </trkpt>
      <trkpt lat="43.38706" lon="-1.49424">
        <ele>126</ele>
        <time>2026-03-09T17:30:01.000Z</time>
      </trkpt>
      <trkpt lat="43.38737" lon="-1.49263">
        <ele>126</ele>
        <time>2026-03-09T17:30:22.000Z</time>
      </trkpt>
      <trkpt lat="43.38734" lon="-1.49133">
        <ele>119</ele>
        <time>2026-03-09T17:30:39.000Z</time>
      </trkpt>
      <trkpt lat="43.38702" lon="-1.4886">
        <ele>107</ele>
        <time>2026-03-09T17:31:15.000Z</time>
      </trkpt>
      <trkpt lat="43.38696" lon="-1.4882">
        <ele>107</ele>
        <time>2026-03-09T17:31:20.000Z</time>
      </trkpt>
      <trkpt lat="43.38651" lon="-1.48743">
        <ele>108</ele>
        <time>2026-03-09T17:31:33.000Z</time>
      </trkpt>
      <trkpt lat="43.38642" lon="-1.48713">
        <ele>107</ele>
        <time>2026-03-09T17:31:37.000Z</time>
      </trkpt>
      <trkpt lat="43.38633" lon="-1.48568">
        <ele>114</ele>
        <time>2026-03-09T17:31:56.000Z</time>
      </trkpt>
      <trkpt lat="43.38636" lon="-1.48544">
        <ele>115</ele>
        <time>2026-03-09T17:31:59.000Z</time>
      </trkpt>
      <trkpt lat="43.38647" lon="-1.48516">
        <ele>116</ele>
        <time>2026-03-09T17:32:03.000Z</time>
      </trkpt>
      <trkpt lat="43.3866" lon="-1.48496">
        <ele>117</ele>
        <time>2026-03-09T17:32:07.000Z</time>
      </trkpt>
      <trkpt lat="43.38686" lon="-1.48472">
        <ele>116</ele>
        <time>2026-03-09T17:32:12.000Z</time>
      </trkpt>
      <trkpt lat="43.3871" lon="-1.48454">
        <ele>114</ele>
        <time>2026-03-09T17:32:17.000Z</time>
      </trkpt>
      <trkpt lat="43.38729" lon="-1.48433">
        <ele>114</ele>
        <time>2026-03-09T17:32:21.000Z</time>
      </trkpt>
      <trkpt lat="43.38767" lon="-1.48371">
        <ele>112</ele>
        <time>2026-03-09T17:32:32.000Z</time>
      </trkpt>
      <trkpt lat="43.38777" lon="-1.48351">
        <ele>111</ele>
        <time>2026-03-09T17:32:35.000Z</time>
      </trkpt>
      <trkpt lat="43.38785" lon="-1.48321">
        <ele>111</ele>
        <time>2026-03-09T17:32:39.000Z</time>
      </trkpt>
      <trkpt lat="43.38806" lon="-1.48177">
        <ele>112</ele>
        <time>2026-03-09T17:32:58.000Z</time>
      </trkpt>
      <trkpt lat="43.38806" lon="-1.48158">
        <ele>113</ele>
        <time>2026-03-09T17:33:01.000Z</time>
      </trkpt>
      <trkpt lat="43.38797" lon="-1.48047">
        <ele>111</ele>
        <time>2026-03-09T17:33:15.000Z</time>
      </trkpt>
      <trkpt lat="43.38795" lon="-1.48032">
        <ele>110</ele>
        <time>2026-03-09T17:33:17.000Z</time>
      </trkpt>
      <trkpt lat="43.38791" lon="-1.48017">
        <ele>110</ele>
        <time>2026-03-09T17:33:19.000Z</time>
      </trkpt>
      <trkpt lat="43.38784" lon="-1.48006">
        <ele>109</ele>
        <time>2026-03-09T17:33:21.000Z</time>
      </trkpt>
      <trkpt lat="43.38723" lon="-1.47963">
        <ele>107</ele>
        <time>2026-03-09T17:33:33.000Z</time>
      </trkpt>
      <trkpt lat="43.38712" lon="-1.47953">
        <ele>106</ele>
        <time>2026-03-09T17:33:35.000Z</time>
      </trkpt>
      <trkpt lat="43.3869" lon="-1.47921">
        <ele>104</ele>
        <time>2026-03-09T17:33:41.000Z</time>
      </trkpt>
      <trkpt lat="43.38651" lon="-1.4784">
        <ele>99</ele>
        <time>2026-03-09T17:33:54.000Z</time>
      </trkpt>
      <trkpt lat="43.3861" lon="-1.4777">
        <ele>95</ele>
        <time>2026-03-09T17:34:05.000Z</time>
      </trkpt>
      <trkpt lat="43.38599" lon="-1.47742">
        <ele>94</ele>
        <time>2026-03-09T17:34:09.000Z</time>
      </trkpt>
      <trkpt lat="43.3859" lon="-1.47707">
        <ele>92</ele>
        <time>2026-03-09T17:34:14.000Z</time>
      </trkpt>
      <trkpt lat="43.38582" lon="-1.47664">
        <ele>91</ele>
        <time>2026-03-09T17:34:20.000Z</time>
      </trkpt>
      <trkpt lat="43.38576" lon="-1.4763">
        <ele>90</ele>
        <time>2026-03-09T17:34:24.000Z</time>
      </trkpt>
      <trkpt lat="43.38573" lon="-1.47605">
        <ele>90</ele>
        <time>2026-03-09T17:34:28.000Z</time>
      </trkpt>
      <trkpt lat="43.38574" lon="-1.47586">
        <ele>89</ele>
        <time>2026-03-09T17:34:30.000Z</time>
      </trkpt>
      <trkpt lat="43.38583" lon="-1.47472">
        <ele>86</ele>
        <time>2026-03-09T17:34:45.000Z</time>
      </trkpt>
      <trkpt lat="43.38581" lon="-1.4744">
        <ele>87</ele>
        <time>2026-03-09T17:34:49.000Z</time>
      </trkpt>
      <trkpt lat="43.38532" lon="-1.47259">
        <ele>79</ele>
        <time>2026-03-09T17:35:14.000Z</time>
      </trkpt>
      <trkpt lat="43.3853" lon="-1.47247">
        <ele>79</ele>
        <time>2026-03-09T17:35:16.000Z</time>
      </trkpt>
      <trkpt lat="43.38531" lon="-1.47234">
        <ele>77</ele>
        <time>2026-03-09T17:35:17.000Z</time>
      </trkpt>
      <trkpt lat="43.38534" lon="-1.47222">
        <ele>76</ele>
        <time>2026-03-09T17:35:19.000Z</time>
      </trkpt>
      <trkpt lat="43.38539" lon="-1.47212">
        <ele>76</ele>
        <time>2026-03-09T17:35:21.000Z</time>
      </trkpt>
      <trkpt lat="43.38574" lon="-1.47178">
        <ele>76</ele>
        <time>2026-03-09T17:35:28.000Z</time>
      </trkpt>
      <trkpt lat="43.38578" lon="-1.47162">
        <ele>75</ele>
        <time>2026-03-09T17:35:30.000Z</time>
      </trkpt>
      <trkpt lat="43.38578" lon="-1.47147">
        <ele>75</ele>
        <time>2026-03-09T17:35:32.000Z</time>
      </trkpt>
      <trkpt lat="43.38552" lon="-1.47046">
        <ele>70</ele>
        <time>2026-03-09T17:35:46.000Z</time>
      </trkpt>
      <trkpt lat="43.38527" lon="-1.4698">
        <ele>65</ele>
        <time>2026-03-09T17:35:56.000Z</time>
      </trkpt>
      <trkpt lat="43.3847" lon="-1.46856">
        <ele>54</ele>
        <time>2026-03-09T17:36:15.000Z</time>
      </trkpt>
      <trkpt lat="43.38358" lon="-1.46657">
        <ele>45</ele>
        <time>2026-03-09T17:36:47.000Z</time>
      </trkpt>
      <trkpt lat="43.38352" lon="-1.4663">
        <ele>45</ele>
        <time>2026-03-09T17:36:51.000Z</time>
      </trkpt>
      <trkpt lat="43.3835" lon="-1.46599">
        <ele>45</ele>
        <time>2026-03-09T17:36:55.000Z</time>
      </trkpt>
      <trkpt lat="43.38352" lon="-1.46552">
        <ele>43</ele>
        <time>2026-03-09T17:37:01.000Z</time>
      </trkpt>
      <trkpt lat="43.38359" lon="-1.46518">
        <ele>42</ele>
        <time>2026-03-09T17:37:06.000Z</time>
      </trkpt>
      <trkpt lat="43.38368" lon="-1.46483">
        <ele>41</ele>
        <time>2026-03-09T17:37:11.000Z</time>
      </trkpt>
      <trkpt lat="43.38394" lon="-1.46433">
        <ele>39</ele>
        <time>2026-03-09T17:37:19.000Z</time>
      </trkpt>
      <trkpt lat="43.38392" lon="-1.46425">
        <ele>39</ele>
        <time>2026-03-09T17:37:20.000Z</time>
      </trkpt>
      <trkpt lat="43.38394" lon="-1.46418">
        <ele>39</ele>
        <time>2026-03-09T17:37:21.000Z</time>
      </trkpt>
      <trkpt lat="43.38398" lon="-1.46414">
        <ele>38</ele>
        <time>2026-03-09T17:37:21.000Z</time>
      </trkpt>
      <trkpt lat="43.38402" lon="-1.46413">
        <ele>38</ele>
        <time>2026-03-09T17:37:22.000Z</time>
      </trkpt>
      <trkpt lat="43.38406" lon="-1.46414">
        <ele>38</ele>
        <time>2026-03-09T17:37:23.000Z</time>
      </trkpt>
      <trkpt lat="43.3841" lon="-1.46418">
        <ele>38</ele>
        <time>2026-03-09T17:37:24.000Z</time>
      </trkpt>
      <trkpt lat="43.38446" lon="-1.46384">
        <ele>37</ele>
        <time>2026-03-09T17:37:32.000Z</time>
      </trkpt>
      <trkpt lat="43.38461" lon="-1.46373">
        <ele>36</ele>
        <time>2026-03-09T17:37:35.000Z</time>
      </trkpt>
      <trkpt lat="43.38476" lon="-1.4637">
        <ele>35</ele>
        <time>2026-03-09T17:37:37.000Z</time>
      </trkpt>
      <trkpt lat="43.38513" lon="-1.46373">
        <ele>34</ele>
        <time>2026-03-09T17:37:44.000Z</time>
      </trkpt>
      <trkpt lat="43.3853" lon="-1.46369">
        <ele>34</ele>
        <time>2026-03-09T17:37:47.000Z</time>
      </trkpt>
      <trkpt lat="43.38545" lon="-1.4636">
        <ele>35</ele>
        <time>2026-03-09T17:37:50.000Z</time>
      </trkpt>
      <trkpt lat="43.38558" lon="-1.46346">
        <ele>35</ele>
        <time>2026-03-09T17:37:53.000Z</time>
      </trkpt>
      <trkpt lat="43.38591" lon="-1.463">
        <ele>39</ele>
        <time>2026-03-09T17:38:01.000Z</time>
      </trkpt>
      <trkpt lat="43.38628" lon="-1.46268">
        <ele>44</ele>
        <time>2026-03-09T17:38:09.000Z</time>
      </trkpt>
      <trkpt lat="43.38653" lon="-1.46266">
        <ele>45</ele>
        <time>2026-03-09T17:38:13.000Z</time>
      </trkpt>
      <trkpt lat="43.38684" lon="-1.46285">
        <ele>44</ele>
        <time>2026-03-09T17:38:19.000Z</time>
      </trkpt>
      <trkpt lat="43.38738" lon="-1.46328">
        <ele>44</ele>
        <time>2026-03-09T17:38:31.000Z</time>
      </trkpt>
      <trkpt lat="43.38761" lon="-1.46327">
        <ele>46</ele>
        <time>2026-03-09T17:38:35.000Z</time>
      </trkpt>
      <trkpt lat="43.3887" lon="-1.46281">
        <ele>48</ele>
        <time>2026-03-09T17:38:55.000Z</time>
      </trkpt>
      <trkpt lat="43.38906" lon="-1.46253">
        <ele>48</ele>
        <time>2026-03-09T17:39:02.000Z</time>
      </trkpt>
      <trkpt lat="43.38929" lon="-1.46219">
        <ele>53</ele>
        <time>2026-03-09T17:39:08.000Z</time>
      </trkpt>
      <trkpt lat="43.38963" lon="-1.46201">
        <ele>51</ele>
        <time>2026-03-09T17:39:15.000Z</time>
      </trkpt>
      <trkpt lat="43.38993" lon="-1.46164">
        <ele>52</ele>
        <time>2026-03-09T17:39:22.000Z</time>
      </trkpt>
      <trkpt lat="43.39025" lon="-1.46092">
        <ele>57</ele>
        <time>2026-03-09T17:39:33.000Z</time>
      </trkpt>
      <trkpt lat="43.39051" lon="-1.46055">
        <ele>55</ele>
        <time>2026-03-09T17:39:39.000Z</time>
      </trkpt>
      <trkpt lat="43.39088" lon="-1.45996">
        <ele>58</ele>
        <time>2026-03-09T17:39:50.000Z</time>
      </trkpt>
      <trkpt lat="43.39119" lon="-1.45965">
        <ele>57</ele>
        <time>2026-03-09T17:39:56.000Z</time>
      </trkpt>
      <trkpt lat="43.39134" lon="-1.45958">
        <ele>56</ele>
        <time>2026-03-09T17:39:59.000Z</time>
      </trkpt>
      <trkpt lat="43.39149" lon="-1.45954">
        <ele>56</ele>
        <time>2026-03-09T17:40:02.000Z</time>
      </trkpt>
      <trkpt lat="43.39246" lon="-1.45946">
        <ele>54</ele>
        <time>2026-03-09T17:40:19.000Z</time>
      </trkpt>
      <trkpt lat="43.39251" lon="-1.45933">
        <ele>55</ele>
        <time>2026-03-09T17:40:21.000Z</time>
      </trkpt>
      <trkpt lat="43.39245" lon="-1.45828">
        <ele>54</ele>
        <time>2026-03-09T17:40:35.000Z</time>
      </trkpt>
      <trkpt lat="43.39255" lon="-1.45781">
        <ele>46</ele>
        <time>2026-03-09T17:40:41.000Z</time>
      </trkpt>
      <trkpt lat="43.39253" lon="-1.4577">
        <ele>45</ele>
        <time>2026-03-09T17:40:43.000Z</time>
      </trkpt>
      <trkpt lat="43.39246" lon="-1.4576">
        <ele>45</ele>
        <time>2026-03-09T17:40:44.000Z</time>
      </trkpt>
      <trkpt lat="43.39228" lon="-1.4575">
        <ele>46</ele>
        <time>2026-03-09T17:40:48.000Z</time>
      </trkpt>
      <trkpt lat="43.39218" lon="-1.45741">
        <ele>47</ele>
        <time>2026-03-09T17:40:50.000Z</time>
      </trkpt>
      <trkpt lat="43.39213" lon="-1.45731">
        <ele>46</ele>
        <time>2026-03-09T17:40:51.000Z</time>
      </trkpt>
      <trkpt lat="43.39212" lon="-1.45709">
        <ele>43</ele>
        <time>2026-03-09T17:40:54.000Z</time>
      </trkpt>
      <trkpt lat="43.39203" lon="-1.45677">
        <ele>39</ele>
        <time>2026-03-09T17:40:59.000Z</time>
      </trkpt>
      <trkpt lat="43.39204" lon="-1.45664">
        <ele>37</ele>
        <time>2026-03-09T17:41:00.000Z</time>
      </trkpt>
      <trkpt lat="43.39208" lon="-1.45648">
        <ele>35</ele>
        <time>2026-03-09T17:41:03.000Z</time>
      </trkpt>
      <trkpt lat="43.39207" lon="-1.45617">
        <ele>33</ele>
        <time>2026-03-09T17:41:07.000Z</time>
      </trkpt>
      <trkpt lat="43.39181" lon="-1.45585">
        <ele>32</ele>
        <time>2026-03-09T17:41:13.000Z</time>
      </trkpt>
      <trkpt lat="43.39159" lon="-1.45546">
        <ele>33</ele>
        <time>2026-03-09T17:41:19.000Z</time>
      </trkpt>
      <trkpt lat="43.3915" lon="-1.45523">
        <ele>34</ele>
        <time>2026-03-09T17:41:23.000Z</time>
      </trkpt>
      <trkpt lat="43.39154" lon="-1.45518">
        <ele>33</ele>
        <time>2026-03-09T17:41:24.000Z</time>
      </trkpt>
      <trkpt lat="43.39141" lon="-1.45505">
        <ele>35</ele>
        <time>2026-03-09T17:41:26.000Z</time>
      </trkpt>
      <trkpt lat="43.39136" lon="-1.45496">
        <ele>35</ele>
        <time>2026-03-09T17:41:28.000Z</time>
      </trkpt>
      <trkpt lat="43.39116" lon="-1.45451">
        <ele>35</ele>
        <time>2026-03-09T17:41:35.000Z</time>
      </trkpt>
      <trkpt lat="43.39073" lon="-1.45339">
        <ele>33</ele>
        <time>2026-03-09T17:41:51.000Z</time>
      </trkpt>
      <trkpt lat="43.39054" lon="-1.453">
        <ele>30</ele>
        <time>2026-03-09T17:41:57.000Z</time>
      </trkpt>
      <trkpt lat="43.39037" lon="-1.45273">
        <ele>27</ele>
        <time>2026-03-09T17:42:02.000Z</time>
      </trkpt>
      <trkpt lat="43.39025" lon="-1.45257">
        <ele>26</ele>
        <time>2026-03-09T17:42:05.000Z</time>
      </trkpt>
      <trkpt lat="43.39019" lon="-1.45252">
        <ele>25</ele>
        <time>2026-03-09T17:42:06.000Z</time>
      </trkpt>
      <trkpt lat="43.39007" lon="-1.45247">
        <ele>25</ele>
        <time>2026-03-09T17:42:08.000Z</time>
      </trkpt>
      <trkpt lat="43.38999" lon="-1.45247">
        <ele>25</ele>
        <time>2026-03-09T17:42:10.000Z</time>
      </trkpt>
      <trkpt lat="43.38994" lon="-1.45244">
        <ele>25</ele>
        <time>2026-03-09T17:42:11.000Z</time>
      </trkpt>
      <trkpt lat="43.3899" lon="-1.45236">
        <ele>24</ele>
        <time>2026-03-09T17:42:12.000Z</time>
      </trkpt>
      <trkpt lat="43.3899" lon="-1.45226">
        <ele>23</ele>
        <time>2026-03-09T17:42:13.000Z</time>
      </trkpt>
      <trkpt lat="43.38994" lon="-1.45218">
        <ele>22</ele>
        <time>2026-03-09T17:42:14.000Z</time>
      </trkpt>
      <trkpt lat="43.39" lon="-1.45213">
        <ele>22</ele>
        <time>2026-03-09T17:42:16.000Z</time>
      </trkpt>
      <trkpt lat="43.39008" lon="-1.45215">
        <ele>22</ele>
        <time>2026-03-09T17:42:17.000Z</time>
      </trkpt>
      <trkpt lat="43.39029" lon="-1.45218">
        <ele>22</ele>
        <time>2026-03-09T17:42:21.000Z</time>
      </trkpt>
      <trkpt lat="43.39057" lon="-1.45214">
        <ele>21</ele>
        <time>2026-03-09T17:42:26.000Z</time>
      </trkpt>
      <trkpt lat="43.3913" lon="-1.45196">
        <ele>21</ele>
        <time>2026-03-09T17:42:39.000Z</time>
      </trkpt>
      <trkpt lat="43.39246" lon="-1.45171">
        <ele>23</ele>
        <time>2026-03-09T17:43:00.000Z</time>
      </trkpt>
      <trkpt lat="43.39242" lon="-1.45157">
        <ele>22</ele>
        <time>2026-03-09T17:43:02.000Z</time>
      </trkpt>
      <trkpt lat="43.39245" lon="-1.45143">
        <ele>20</ele>
        <time>2026-03-09T17:43:04.000Z</time>
      </trkpt>
      <trkpt lat="43.39242" lon="-1.45136">
        <ele>19</ele>
        <time>2026-03-09T17:43:05.000Z</time>
      </trkpt>
      <trkpt lat="43.39247" lon="-1.45107">
        <ele>16</ele>
        <time>2026-03-09T17:43:09.000Z</time>
      </trkpt>
      <trkpt lat="43.39242" lon="-1.45099">
        <ele>14</ele>
        <time>2026-03-09T17:43:10.000Z</time>
      </trkpt>
      <trkpt lat="43.39228" lon="-1.45061">
        <ele>10</ele>
        <time>2026-03-09T17:43:16.000Z</time>
      </trkpt>
      <trkpt lat="43.39212" lon="-1.4501">
        <ele>7</ele>
        <time>2026-03-09T17:43:23.000Z</time>
      </trkpt>
      <trkpt lat="43.39179" lon="-1.44939">
        <ele>8</ele>
        <time>2026-03-09T17:43:34.000Z</time>
      </trkpt>
      <trkpt lat="43.39147" lon="-1.44854">
        <ele>8</ele>
        <time>2026-03-09T17:43:46.000Z</time>
      </trkpt>
      <trkpt lat="43.39112" lon="-1.4473">
        <ele>7</ele>
        <time>2026-03-09T17:44:03.000Z</time>
      </trkpt>
      <trkpt lat="43.39074" lon="-1.4464">
        <ele>7</ele>
        <time>2026-03-09T17:44:17.000Z</time>
      </trkpt>
      <trkpt lat="43.39069" lon="-1.44623">
        <ele>7</ele>
        <time>2026-03-09T17:44:19.000Z</time>
      </trkpt>
      <trkpt lat="43.39067" lon="-1.44608">
        <ele>6</ele>
        <time>2026-03-09T17:44:21.000Z</time>
      </trkpt>
      <trkpt lat="43.39068" lon="-1.44596">
        <ele>6</ele>
        <time>2026-03-09T17:44:23.000Z</time>
      </trkpt>
      <trkpt lat="43.3907" lon="-1.44587">
        <ele>6</ele>
        <time>2026-03-09T17:44:24.000Z</time>
      </trkpt>
      <trkpt lat="43.39075" lon="-1.4457">
        <ele>6</ele>
        <time>2026-03-09T17:44:26.000Z</time>
      </trkpt>
      <trkpt lat="43.39144" lon="-1.44392">
        <ele>14</ele>
        <time>2026-03-09T17:44:52.000Z</time>
      </trkpt>
      <trkpt lat="43.39148" lon="-1.44373">
        <ele>16</ele>
        <time>2026-03-09T17:44:55.000Z</time>
      </trkpt>
      <trkpt lat="43.39147" lon="-1.44353">
        <ele>17</ele>
        <time>2026-03-09T17:44:57.000Z</time>
      </trkpt>
      <trkpt lat="43.39142" lon="-1.44329">
        <ele>19</ele>
        <time>2026-03-09T17:45:01.000Z</time>
      </trkpt>
      <trkpt lat="43.39124" lon="-1.44287">
        <ele>23</ele>
        <time>2026-03-09T17:45:07.000Z</time>
      </trkpt>
      <trkpt lat="43.3912" lon="-1.4427">
        <ele>24</ele>
        <time>2026-03-09T17:45:09.000Z</time>
      </trkpt>
      <trkpt lat="43.39121" lon="-1.44248">
        <ele>26</ele>
        <time>2026-03-09T17:45:12.000Z</time>
      </trkpt>
      <trkpt lat="43.39131" lon="-1.44162">
        <ele>33</ele>
        <time>2026-03-09T17:45:23.000Z</time>
      </trkpt>
      <trkpt lat="43.39157" lon="-1.44072">
        <ele>40</ele>
        <time>2026-03-09T17:45:36.000Z</time>
      </trkpt>
      <trkpt lat="43.39159" lon="-1.44043">
        <ele>41</ele>
        <time>2026-03-09T17:45:40.000Z</time>
      </trkpt>
      <trkpt lat="43.39158" lon="-1.44015">
        <ele>43</ele>
        <time>2026-03-09T17:45:43.000Z</time>
      </trkpt>
      <trkpt lat="43.39153" lon="-1.43981">
        <ele>45</ele>
        <time>2026-03-09T17:45:48.000Z</time>
      </trkpt>
      <trkpt lat="43.39151" lon="-1.43972">
        <ele>46</ele>
        <time>2026-03-09T17:45:49.000Z</time>
      </trkpt>
      <trkpt lat="43.39138" lon="-1.43938">
        <ele>47</ele>
        <time>2026-03-09T17:45:54.000Z</time>
      </trkpt>
      <trkpt lat="43.39105" lon="-1.43873">
        <ele>49</ele>
        <time>2026-03-09T17:46:04.000Z</time>
      </trkpt>
      <trkpt lat="43.39084" lon="-1.43846">
        <ele>48</ele>
        <time>2026-03-09T17:46:09.000Z</time>
      </trkpt>
      <trkpt lat="43.3906" lon="-1.43829">
        <ele>49</ele>
        <time>2026-03-09T17:46:14.000Z</time>
      </trkpt>
      <trkpt lat="43.39014" lon="-1.43809">
        <ele>49</ele>
        <time>2026-03-09T17:46:23.000Z</time>
      </trkpt>
      <trkpt lat="43.38986" lon="-1.43789">
        <ele>50</ele>
        <time>2026-03-09T17:46:28.000Z</time>
      </trkpt>
      <trkpt lat="43.38971" lon="-1.43773">
        <ele>50</ele>
        <time>2026-03-09T17:46:32.000Z</time>
      </trkpt>
      <trkpt lat="43.38955" lon="-1.43743">
        <ele>51</ele>
        <time>2026-03-09T17:46:37.000Z</time>
      </trkpt>
      <trkpt lat="43.38951" lon="-1.4373">
        <ele>52</ele>
        <time>2026-03-09T17:46:38.000Z</time>
      </trkpt>
      <trkpt lat="43.38948" lon="-1.43632">
        <ele>56</ele>
        <time>2026-03-09T17:46:51.000Z</time>
      </trkpt>
      <trkpt lat="43.38928" lon="-1.43505">
        <ele>59</ele>
        <time>2026-03-09T17:47:08.000Z</time>
      </trkpt>
      <trkpt lat="43.38915" lon="-1.43462">
        <ele>59</ele>
        <time>2026-03-09T17:47:14.000Z</time>
      </trkpt>
      <trkpt lat="43.38905" lon="-1.43443">
        <ele>58</ele>
        <time>2026-03-09T17:47:17.000Z</time>
      </trkpt>
      <trkpt lat="43.38888" lon="-1.43418">
        <ele>57</ele>
        <time>2026-03-09T17:47:21.000Z</time>
      </trkpt>
      <trkpt lat="43.38876" lon="-1.43393">
        <ele>57</ele>
        <time>2026-03-09T17:47:25.000Z</time>
      </trkpt>
      <trkpt lat="43.38855" lon="-1.43345">
        <ele>58</ele>
        <time>2026-03-09T17:47:32.000Z</time>
      </trkpt>
      <trkpt lat="43.38841" lon="-1.43304">
        <ele>58</ele>
        <time>2026-03-09T17:47:38.000Z</time>
      </trkpt>
      <trkpt lat="43.3879" lon="-1.43116">
        <ele>61</ele>
        <time>2026-03-09T17:48:04.000Z</time>
      </trkpt>
      <trkpt lat="43.38799" lon="-1.4304">
        <ele>62</ele>
        <time>2026-03-09T17:48:14.000Z</time>
      </trkpt>
      <trkpt lat="43.3881" lon="-1.42996">
        <ele>62</ele>
        <time>2026-03-09T17:48:20.000Z</time>
      </trkpt>
      <trkpt lat="43.38815" lon="-1.42966">
        <ele>63</ele>
        <time>2026-03-09T17:48:24.000Z</time>
      </trkpt>
      <trkpt lat="43.3882" lon="-1.42901">
        <ele>64</ele>
        <time>2026-03-09T17:48:33.000Z</time>
      </trkpt>
      <trkpt lat="43.38815" lon="-1.42898">
        <ele>64</ele>
        <time>2026-03-09T17:48:34.000Z</time>
      </trkpt>
      <trkpt lat="43.38813" lon="-1.42892">
        <ele>64</ele>
        <time>2026-03-09T17:48:34.000Z</time>
      </trkpt>
      <trkpt lat="43.38814" lon="-1.42886">
        <ele>64</ele>
        <time>2026-03-09T17:48:35.000Z</time>
      </trkpt>
      <trkpt lat="43.38819" lon="-1.42881">
        <ele>65</ele>
        <time>2026-03-09T17:48:36.000Z</time>
      </trkpt>
      <trkpt lat="43.38816" lon="-1.42853">
        <ele>65</ele>
        <time>2026-03-09T17:48:40.000Z</time>
      </trkpt>
      <trkpt lat="43.38815" lon="-1.42814">
        <ele>66</ele>
        <time>2026-03-09T17:48:45.000Z</time>
      </trkpt>
      <trkpt lat="43.38819" lon="-1.42756">
        <ele>66</ele>
        <time>2026-03-09T17:48:53.000Z</time>
      </trkpt>
      <trkpt lat="43.38831" lon="-1.4266">
        <ele>73</ele>
        <time>2026-03-09T17:49:05.000Z</time>
      </trkpt>
      <trkpt lat="43.38837" lon="-1.42515">
        <ele>84</ele>
        <time>2026-03-09T17:49:24.000Z</time>
      </trkpt>
      <trkpt lat="43.38822" lon="-1.42418">
        <ele>88</ele>
        <time>2026-03-09T17:49:37.000Z</time>
      </trkpt>
      <trkpt lat="43.3882" lon="-1.4239">
        <ele>90</ele>
        <time>2026-03-09T17:49:40.000Z</time>
      </trkpt>
      <trkpt lat="43.3882" lon="-1.42289">
        <ele>95</ele>
        <time>2026-03-09T17:49:53.000Z</time>
      </trkpt>
      <trkpt lat="43.38818" lon="-1.42215">
        <ele>95</ele>
        <time>2026-03-09T17:50:03.000Z</time>
      </trkpt>
      <trkpt lat="43.38812" lon="-1.4218">
        <ele>94</ele>
        <time>2026-03-09T17:50:08.000Z</time>
      </trkpt>
      <trkpt lat="43.38804" lon="-1.42158">
        <ele>94</ele>
        <time>2026-03-09T17:50:11.000Z</time>
      </trkpt>
      <trkpt lat="43.38777" lon="-1.42111">
        <ele>93</ele>
        <time>2026-03-09T17:50:19.000Z</time>
      </trkpt>
      <trkpt lat="43.38747" lon="-1.42059">
        <ele>93</ele>
        <time>2026-03-09T17:50:27.000Z</time>
      </trkpt>
      <trkpt lat="43.3874" lon="-1.42035">
        <ele>91</ele>
        <time>2026-03-09T17:50:31.000Z</time>
      </trkpt>
      <trkpt lat="43.38736" lon="-1.42018">
        <ele>90</ele>
        <time>2026-03-09T17:50:33.000Z</time>
      </trkpt>
      <trkpt lat="43.38737" lon="-1.41977">
        <ele>89</ele>
        <time>2026-03-09T17:50:38.000Z</time>
      </trkpt>
      <trkpt lat="43.38746" lon="-1.41934">
        <ele>90</ele>
        <time>2026-03-09T17:50:44.000Z</time>
      </trkpt>
      <trkpt lat="43.3875" lon="-1.419">
        <ele>90</ele>
        <time>2026-03-09T17:50:48.000Z</time>
      </trkpt>
      <trkpt lat="43.3875" lon="-1.41882">
        <ele>91</ele>
        <time>2026-03-09T17:50:51.000Z</time>
      </trkpt>
      <trkpt lat="43.38736" lon="-1.41828">
        <ele>90</ele>
        <time>2026-03-09T17:50:58.000Z</time>
      </trkpt>
      <trkpt lat="43.38684" lon="-1.41667">
        <ele>87</ele>
        <time>2026-03-09T17:51:21.000Z</time>
      </trkpt>
      <trkpt lat="43.38654" lon="-1.41598">
        <ele>88</ele>
        <time>2026-03-09T17:51:31.000Z</time>
      </trkpt>
      <trkpt lat="43.38517" lon="-1.41356">
        <ele>97</ele>
        <time>2026-03-09T17:52:11.000Z</time>
      </trkpt>
      <trkpt lat="43.3845" lon="-1.4126">
        <ele>101</ele>
        <time>2026-03-09T17:52:28.000Z</time>
      </trkpt>
      <trkpt lat="43.38432" lon="-1.41229">
        <ele>102</ele>
        <time>2026-03-09T17:52:33.000Z</time>
      </trkpt>
      <trkpt lat="43.38409" lon="-1.41185">
        <ele>102</ele>
        <time>2026-03-09T17:52:40.000Z</time>
      </trkpt>
      <trkpt lat="43.38401" lon="-1.41166">
        <ele>102</ele>
        <time>2026-03-09T17:52:43.000Z</time>
      </trkpt>
      <trkpt lat="43.38393" lon="-1.41137">
        <ele>101</ele>
        <time>2026-03-09T17:52:47.000Z</time>
      </trkpt>
      <trkpt lat="43.38382" lon="-1.41083">
        <ele>101</ele>
        <time>2026-03-09T17:52:54.000Z</time>
      </trkpt>
      <trkpt lat="43.38379" lon="-1.41023">
        <ele>101</ele>
        <time>2026-03-09T17:53:02.000Z</time>
      </trkpt>
      <trkpt lat="43.38377" lon="-1.41006">
        <ele>102</ele>
        <time>2026-03-09T17:53:04.000Z</time>
      </trkpt>
      <trkpt lat="43.38363" lon="-1.40966">
        <ele>101</ele>
        <time>2026-03-09T17:53:10.000Z</time>
      </trkpt>
      <trkpt lat="43.38318" lon="-1.4086">
        <ele>102</ele>
        <time>2026-03-09T17:53:26.000Z</time>
      </trkpt>
      <trkpt lat="43.38284" lon="-1.40767">
        <ele>105</ele>
        <time>2026-03-09T17:53:40.000Z</time>
      </trkpt>
      <trkpt lat="43.38277" lon="-1.40741">
        <ele>106</ele>
        <time>2026-03-09T17:53:43.000Z</time>
      </trkpt>
      <trkpt lat="43.38262" lon="-1.40665">
        <ele>109</ele>
        <time>2026-03-09T17:53:53.000Z</time>
      </trkpt>
      <trkpt lat="43.38256" lon="-1.40653">
        <ele>109</ele>
        <time>2026-03-09T17:53:55.000Z</time>
      </trkpt>
      <trkpt lat="43.38248" lon="-1.40642">
        <ele>109</ele>
        <time>2026-03-09T17:53:57.000Z</time>
      </trkpt>
      <trkpt lat="43.38236" lon="-1.40634">
        <ele>108</ele>
        <time>2026-03-09T17:54:00.000Z</time>
      </trkpt>
      <trkpt lat="43.38213" lon="-1.40625">
        <ele>108</ele>
        <time>2026-03-09T17:54:04.000Z</time>
      </trkpt>
      <trkpt lat="43.38202" lon="-1.40619">
        <ele>108</ele>
        <time>2026-03-09T17:54:06.000Z</time>
      </trkpt>
      <trkpt lat="43.38193" lon="-1.40611">
        <ele>108</ele>
        <time>2026-03-09T17:54:08.000Z</time>
      </trkpt>
      <trkpt lat="43.38188" lon="-1.40602">
        <ele>108</ele>
        <time>2026-03-09T17:54:09.000Z</time>
      </trkpt>
      <trkpt lat="43.38181" lon="-1.40574">
        <ele>108</ele>
        <time>2026-03-09T17:54:13.000Z</time>
      </trkpt>
      <trkpt lat="43.38179" lon="-1.40547">
        <ele>109</ele>
        <time>2026-03-09T17:54:17.000Z</time>
      </trkpt>
      <trkpt lat="43.3818" lon="-1.40525">
        <ele>109</ele>
        <time>2026-03-09T17:54:20.000Z</time>
      </trkpt>
      <trkpt lat="43.38185" lon="-1.40503">
        <ele>108</ele>
        <time>2026-03-09T17:54:22.000Z</time>
      </trkpt>
      <trkpt lat="43.38194" lon="-1.40478">
        <ele>107</ele>
        <time>2026-03-09T17:54:26.000Z</time>
      </trkpt>
      <trkpt lat="43.3821" lon="-1.40445">
        <ele>107</ele>
        <time>2026-03-09T17:54:31.000Z</time>
      </trkpt>
      <trkpt lat="43.38228" lon="-1.40414">
        <ele>107</ele>
        <time>2026-03-09T17:54:36.000Z</time>
      </trkpt>
      <trkpt lat="43.3825" lon="-1.40382">
        <ele>109</ele>
        <time>2026-03-09T17:54:42.000Z</time>
      </trkpt>
      <trkpt lat="43.38264" lon="-1.40365">
        <ele>109</ele>
        <time>2026-03-09T17:54:45.000Z</time>
      </trkpt>
      <trkpt lat="43.38366" lon="-1.4028">
        <ele>109</ele>
        <time>2026-03-09T17:55:07.000Z</time>
      </trkpt>
      <trkpt lat="43.38379" lon="-1.40264">
        <ele>109</ele>
        <time>2026-03-09T17:55:10.000Z</time>
      </trkpt>
      <trkpt lat="43.38412" lon="-1.40196">
        <ele>108</ele>
        <time>2026-03-09T17:55:20.000Z</time>
      </trkpt>
      <trkpt lat="43.38481" lon="-1.40032">
        <ele>108</ele>
        <time>2026-03-09T17:55:45.000Z</time>
      </trkpt>
      <trkpt lat="43.38615" lon="-1.39723">
        <ele>113</ele>
        <time>2026-03-09T17:56:31.000Z</time>
      </trkpt>
      <trkpt lat="43.38625" lon="-1.3971">
        <ele>113</ele>
        <time>2026-03-09T17:56:34.000Z</time>
      </trkpt>
      <trkpt lat="43.38636" lon="-1.397">
        <ele>114</ele>
        <time>2026-03-09T17:56:36.000Z</time>
      </trkpt>
      <trkpt lat="43.3869" lon="-1.39664">
        <ele>117</ele>
        <time>2026-03-09T17:56:47.000Z</time>
      </trkpt>
      <trkpt lat="43.38707" lon="-1.39649">
        <ele>117</ele>
        <time>2026-03-09T17:56:50.000Z</time>
      </trkpt>
      <trkpt lat="43.38714" lon="-1.39636">
        <ele>117</ele>
        <time>2026-03-09T17:56:52.000Z</time>
      </trkpt>
      <trkpt lat="43.38765" lon="-1.39488">
        <ele>121</ele>
        <time>2026-03-09T17:57:14.000Z</time>
      </trkpt>
      <trkpt lat="43.38789" lon="-1.39399">
        <ele>126</ele>
        <time>2026-03-09T17:57:26.000Z</time>
      </trkpt>
      <trkpt lat="43.38805" lon="-1.39362">
        <ele>127</ele>
        <time>2026-03-09T17:57:31.000Z</time>
      </trkpt>
      <trkpt lat="43.38817" lon="-1.39337">
        <ele>129</ele>
        <time>2026-03-09T17:57:35.000Z</time>
      </trkpt>
      <trkpt lat="43.38787" lon="-1.39292">
        <ele>125</ele>
        <time>2026-03-09T17:57:43.000Z</time>
      </trkpt>
      <trkpt lat="43.38775" lon="-1.3927">
        <ele>123</ele>
        <time>2026-03-09T17:57:47.000Z</time>
      </trkpt>
      <trkpt lat="43.38765" lon="-1.39241">
        <ele>123</ele>
        <time>2026-03-09T17:57:51.000Z</time>
      </trkpt>
      <trkpt lat="43.38747" lon="-1.39157">
        <ele>121</ele>
        <time>2026-03-09T17:58:02.000Z</time>
      </trkpt>
      <trkpt lat="43.38726" lon="-1.39051">
        <ele>120</ele>
        <time>2026-03-09T17:58:16.000Z</time>
      </trkpt>
      <trkpt lat="43.38719" lon="-1.38999">
        <ele>120</ele>
        <time>2026-03-09T17:58:23.000Z</time>
      </trkpt>
      <trkpt lat="43.38704" lon="-1.38714">
        <ele>127</ele>
        <time>2026-03-09T17:59:00.000Z</time>
      </trkpt>
      <trkpt lat="43.38682" lon="-1.3853">
        <ele>127</ele>
        <time>2026-03-09T17:59:24.000Z</time>
      </trkpt>
      <trkpt lat="43.38679" lon="-1.38497">
        <ele>128</ele>
        <time>2026-03-09T17:59:29.000Z</time>
      </trkpt>
      <trkpt lat="43.38673" lon="-1.38345">
        <ele>123</ele>
        <time>2026-03-09T17:59:48.000Z</time>
      </trkpt>
      <trkpt lat="43.38667" lon="-1.38293">
        <ele>122</ele>
        <time>2026-03-09T17:59:55.000Z</time>
      </trkpt>
      <trkpt lat="43.38662" lon="-1.38267">
        <ele>121</ele>
        <time>2026-03-09T17:59:59.000Z</time>
      </trkpt>
      <trkpt lat="43.38652" lon="-1.38232">
        <ele>118</ele>
        <time>2026-03-09T18:00:04.000Z</time>
      </trkpt>
      <trkpt lat="43.38642" lon="-1.3821">
        <ele>117</ele>
        <time>2026-03-09T18:00:07.000Z</time>
      </trkpt>
      <trkpt lat="43.38625" lon="-1.38189">
        <ele>115</ele>
        <time>2026-03-09T18:00:11.000Z</time>
      </trkpt>
      <trkpt lat="43.38588" lon="-1.38159">
        <ele>114</ele>
        <time>2026-03-09T18:00:19.000Z</time>
      </trkpt>
      <trkpt lat="43.38524" lon="-1.38123">
        <ele>116</ele>
        <time>2026-03-09T18:00:31.000Z</time>
      </trkpt>
      <trkpt lat="43.38507" lon="-1.3811">
        <ele>118</ele>
        <time>2026-03-09T18:00:34.000Z</time>
      </trkpt>
      <trkpt lat="43.38481" lon="-1.38087">
        <ele>119</ele>
        <time>2026-03-09T18:00:40.000Z</time>
      </trkpt>
      <trkpt lat="43.38459" lon="-1.38057">
        <ele>118</ele>
        <time>2026-03-09T18:00:45.000Z</time>
      </trkpt>
      <trkpt lat="43.38416" lon="-1.37984">
        <ele>117</ele>
        <time>2026-03-09T18:00:58.000Z</time>
      </trkpt>
      <trkpt lat="43.3831" lon="-1.37795">
        <ele>117</ele>
        <time>2026-03-09T18:01:28.000Z</time>
      </trkpt>
      <trkpt lat="43.38185" lon="-1.37614">
        <ele>120</ele>
        <time>2026-03-09T18:02:01.000Z</time>
      </trkpt>
      <trkpt lat="43.38111" lon="-1.37522">
        <ele>125</ele>
        <time>2026-03-09T18:02:18.000Z</time>
      </trkpt>
      <trkpt lat="43.37891" lon="-1.37277">
        <ele>115</ele>
        <time>2026-03-09T18:03:09.000Z</time>
      </trkpt>
      <trkpt lat="43.37811" lon="-1.3719">
        <ele>122</ele>
        <time>2026-03-09T18:03:27.000Z</time>
      </trkpt>
      <trkpt lat="43.37795" lon="-1.3717">
        <ele>125</ele>
        <time>2026-03-09T18:03:31.000Z</time>
      </trkpt>
      <trkpt lat="43.37782" lon="-1.3715">
        <ele>126</ele>
        <time>2026-03-09T18:03:34.000Z</time>
      </trkpt>
      <trkpt lat="43.37766" lon="-1.37116">
        <ele>127</ele>
        <time>2026-03-09T18:03:39.000Z</time>
      </trkpt>
      <trkpt lat="43.37753" lon="-1.3708">
        <ele>129</ele>
        <time>2026-03-09T18:03:45.000Z</time>
      </trkpt>
      <trkpt lat="43.37685" lon="-1.36841">
        <ele>136</ele>
        <time>2026-03-09T18:04:18.000Z</time>
      </trkpt>
      <trkpt lat="43.37674" lon="-1.36791">
        <ele>140</ele>
        <time>2026-03-09T18:04:25.000Z</time>
      </trkpt>
      <trkpt lat="43.37672" lon="-1.36764">
        <ele>142</ele>
        <time>2026-03-09T18:04:28.000Z</time>
      </trkpt>
      <trkpt lat="43.37673" lon="-1.36719">
        <ele>141</ele>
        <time>2026-03-09T18:04:34.000Z</time>
      </trkpt>
      <trkpt lat="43.37671" lon="-1.36698">
        <ele>140</ele>
        <time>2026-03-09T18:04:37.000Z</time>
      </trkpt>
      <trkpt lat="43.37666" lon="-1.36682">
        <ele>141</ele>
        <time>2026-03-09T18:04:39.000Z</time>
      </trkpt>
      <trkpt lat="43.37652" lon="-1.36658">
        <ele>139</ele>
        <time>2026-03-09T18:04:43.000Z</time>
      </trkpt>
      <trkpt lat="43.37596" lon="-1.36582">
        <ele>137</ele>
        <time>2026-03-09T18:04:57.000Z</time>
      </trkpt>
      <trkpt lat="43.3758" lon="-1.36552">
        <ele>135</ele>
        <time>2026-03-09T18:05:02.000Z</time>
      </trkpt>
      <trkpt lat="43.37564" lon="-1.36511">
        <ele>130</ele>
        <time>2026-03-09T18:05:08.000Z</time>
      </trkpt>
      <trkpt lat="43.37542" lon="-1.3645">
        <ele>126</ele>
        <time>2026-03-09T18:05:17.000Z</time>
      </trkpt>
      <trkpt lat="43.37538" lon="-1.36425">
        <ele>126</ele>
        <time>2026-03-09T18:05:20.000Z</time>
      </trkpt>
      <trkpt lat="43.37538" lon="-1.36317">
        <ele>135</ele>
        <time>2026-03-09T18:05:34.000Z</time>
      </trkpt>
      <trkpt lat="43.37541" lon="-1.36302">
        <ele>136</ele>
        <time>2026-03-09T18:05:36.000Z</time>
      </trkpt>
      <trkpt lat="43.37565" lon="-1.36217">
        <ele>139</ele>
        <time>2026-03-09T18:05:48.000Z</time>
      </trkpt>
      <trkpt lat="43.37571" lon="-1.36183">
        <ele>139</ele>
        <time>2026-03-09T18:05:52.000Z</time>
      </trkpt>
      <trkpt lat="43.37572" lon="-1.36137">
        <ele>138</ele>
        <time>2026-03-09T18:05:58.000Z</time>
      </trkpt>
      <trkpt lat="43.3757" lon="-1.36103">
        <ele>137</ele>
        <time>2026-03-09T18:06:03.000Z</time>
      </trkpt>
      <trkpt lat="43.37563" lon="-1.36068">
        <ele>136</ele>
        <time>2026-03-09T18:06:07.000Z</time>
      </trkpt>
      <trkpt lat="43.37548" lon="-1.36025">
        <ele>134</ele>
        <time>2026-03-09T18:06:13.000Z</time>
      </trkpt>
      <trkpt lat="43.37549" lon="-1.36006">
        <ele>133</ele>
        <time>2026-03-09T18:06:16.000Z</time>
      </trkpt>
      <trkpt lat="43.37555" lon="-1.3599">
        <ele>133</ele>
        <time>2026-03-09T18:06:18.000Z</time>
      </trkpt>
      <trkpt lat="43.37565" lon="-1.35978">
        <ele>134</ele>
        <time>2026-03-09T18:06:21.000Z</time>
      </trkpt>
      <trkpt lat="43.3758" lon="-1.35975">
        <ele>136</ele>
        <time>2026-03-09T18:06:23.000Z</time>
      </trkpt>
      <trkpt lat="43.3759" lon="-1.35976">
        <ele>137</ele>
        <time>2026-03-09T18:06:25.000Z</time>
      </trkpt>
      <trkpt lat="43.37641" lon="-1.36007">
        <ele>141</ele>
        <time>2026-03-09T18:06:35.000Z</time>
      </trkpt>
      <trkpt lat="43.37663" lon="-1.36008">
        <ele>143</ele>
        <time>2026-03-09T18:06:39.000Z</time>
      </trkpt>
      <trkpt lat="43.3768" lon="-1.35999">
        <ele>145</ele>
        <time>2026-03-09T18:06:42.000Z</time>
      </trkpt>
      <trkpt lat="43.37699" lon="-1.35982">
        <ele>149</ele>
        <time>2026-03-09T18:06:46.000Z</time>
      </trkpt>
      <trkpt lat="43.37764" lon="-1.35881">
        <ele>160</ele>
        <time>2026-03-09T18:07:04.000Z</time>
      </trkpt>
      <trkpt lat="43.37794" lon="-1.35844">
        <ele>163</ele>
        <time>2026-03-09T18:07:11.000Z</time>
      </trkpt>
      <trkpt lat="43.37817" lon="-1.3582">
        <ele>164</ele>
        <time>2026-03-09T18:07:16.000Z</time>
      </trkpt>
      <trkpt lat="43.3787" lon="-1.358">
        <ele>166</ele>
        <time>2026-03-09T18:07:26.000Z</time>
      </trkpt>
      <trkpt lat="43.37889" lon="-1.35789">
        <ele>167</ele>
        <time>2026-03-09T18:07:29.000Z</time>
      </trkpt>
      <trkpt lat="43.37901" lon="-1.35776">
        <ele>169</ele>
        <time>2026-03-09T18:07:32.000Z</time>
      </trkpt>
      <trkpt lat="43.37924" lon="-1.35741">
        <ele>171</ele>
        <time>2026-03-09T18:07:38.000Z</time>
      </trkpt>
      <trkpt lat="43.37936" lon="-1.35713">
        <ele>171</ele>
        <time>2026-03-09T18:07:42.000Z</time>
      </trkpt>
      <trkpt lat="43.37945" lon="-1.35675">
        <ele>172</ele>
        <time>2026-03-09T18:07:48.000Z</time>
      </trkpt>
      <trkpt lat="43.37949" lon="-1.35623">
        <ele>176</ele>
        <time>2026-03-09T18:07:54.000Z</time>
      </trkpt>
      <trkpt lat="43.37948" lon="-1.35588">
        <ele>179</ele>
        <time>2026-03-09T18:07:59.000Z</time>
      </trkpt>
      <trkpt lat="43.3793" lon="-1.35501">
        <ele>185</ele>
        <time>2026-03-09T18:08:11.000Z</time>
      </trkpt>
      <trkpt lat="43.3791" lon="-1.35432">
        <ele>181</ele>
        <time>2026-03-09T18:08:20.000Z</time>
      </trkpt>
      <trkpt lat="43.37877" lon="-1.35336">
        <ele>178</ele>
        <time>2026-03-09T18:08:34.000Z</time>
      </trkpt>
      <trkpt lat="43.37858" lon="-1.35292">
        <ele>180</ele>
        <time>2026-03-09T18:08:40.000Z</time>
      </trkpt>
      <trkpt lat="43.37855" lon="-1.35281">
        <ele>181</ele>
        <time>2026-03-09T18:08:42.000Z</time>
      </trkpt>
      <trkpt lat="43.37859" lon="-1.35206">
        <ele>182</ele>
        <time>2026-03-09T18:08:52.000Z</time>
      </trkpt>
      <trkpt lat="43.37858" lon="-1.35129">
        <ele>179</ele>
        <time>2026-03-09T18:09:02.000Z</time>
      </trkpt>
      <trkpt lat="43.37862" lon="-1.35125">
        <ele>179</ele>
        <time>2026-03-09T18:09:03.000Z</time>
      </trkpt>
      <trkpt lat="43.37908" lon="-1.35052">
        <ele>178</ele>
        <time>2026-03-09T18:09:15.000Z</time>
      </trkpt>
      <trkpt lat="43.37943" lon="-1.34989">
        <ele>179</ele>
        <time>2026-03-09T18:09:25.000Z</time>
      </trkpt>
      <trkpt lat="43.37964" lon="-1.34924">
        <ele>177</ele>
        <time>2026-03-09T18:09:35.000Z</time>
      </trkpt>
      <trkpt lat="43.37976" lon="-1.34911">
        <ele>176</ele>
        <time>2026-03-09T18:09:37.000Z</time>
      </trkpt>
      <trkpt lat="43.37986" lon="-1.34906">
        <ele>174</ele>
        <time>2026-03-09T18:09:39.000Z</time>
      </trkpt>
      <trkpt lat="43.38074" lon="-1.34883">
        <ele>161</ele>
        <time>2026-03-09T18:09:55.000Z</time>
      </trkpt>
      <trkpt lat="43.38165" lon="-1.34822">
        <ele>156</ele>
        <time>2026-03-09T18:10:13.000Z</time>
      </trkpt>
      <trkpt lat="43.38249" lon="-1.34752">
        <ele>154</ele>
        <time>2026-03-09T18:10:31.000Z</time>
      </trkpt>
      <trkpt lat="43.38335" lon="-1.34598">
        <ele>147</ele>
        <time>2026-03-09T18:10:56.000Z</time>
      </trkpt>
      <trkpt lat="43.38375" lon="-1.34546">
        <ele>145</ele>
        <time>2026-03-09T18:11:05.000Z</time>
      </trkpt>
      <trkpt lat="43.38498" lon="-1.34451">
        <ele>146</ele>
        <time>2026-03-09T18:11:31.000Z</time>
      </trkpt>
      <trkpt lat="43.3851" lon="-1.34432">
        <ele>145</ele>
        <time>2026-03-09T18:11:34.000Z</time>
      </trkpt>
      <trkpt lat="43.38549" lon="-1.34289">
        <ele>144</ele>
        <time>2026-03-09T18:11:54.000Z</time>
      </trkpt>
      <trkpt lat="43.38579" lon="-1.3421">
        <ele>149</ele>
        <time>2026-03-09T18:12:05.000Z</time>
      </trkpt>
      <trkpt lat="43.38618" lon="-1.34131">
        <ele>149</ele>
        <time>2026-03-09T18:12:17.000Z</time>
      </trkpt>
      <trkpt lat="43.38649" lon="-1.3405">
        <ele>148</ele>
        <time>2026-03-09T18:12:29.000Z</time>
      </trkpt>
      <trkpt lat="43.38677" lon="-1.33953">
        <ele>146</ele>
        <time>2026-03-09T18:12:43.000Z</time>
      </trkpt>
      <trkpt lat="43.38724" lon="-1.33867">
        <ele>147</ele>
        <time>2026-03-09T18:12:57.000Z</time>
      </trkpt>
      <trkpt lat="43.38779" lon="-1.33832">
        <ele>144</ele>
        <time>2026-03-09T18:13:07.000Z</time>
      </trkpt>
      <trkpt lat="43.38837" lon="-1.33785">
        <ele>141</ele>
        <time>2026-03-09T18:13:19.000Z</time>
      </trkpt>
      <trkpt lat="43.38863" lon="-1.33752">
        <ele>141</ele>
        <time>2026-03-09T18:13:26.000Z</time>
      </trkpt>
      <trkpt lat="43.38882" lon="-1.33718">
        <ele>141</ele>
        <time>2026-03-09T18:13:31.000Z</time>
      </trkpt>
      <trkpt lat="43.38893" lon="-1.33694">
        <ele>142</ele>
        <time>2026-03-09T18:13:35.000Z</time>
      </trkpt>
      <trkpt lat="43.38924" lon="-1.33544">
        <ele>152</ele>
        <time>2026-03-09T18:13:55.000Z</time>
      </trkpt>
      <trkpt lat="43.38938" lon="-1.33476">
        <ele>150</ele>
        <time>2026-03-09T18:14:04.000Z</time>
      </trkpt>
      <trkpt lat="43.38939" lon="-1.33464">
        <ele>149</ele>
        <time>2026-03-09T18:14:06.000Z</time>
      </trkpt>
      <trkpt lat="43.38932" lon="-1.33433">
        <ele>148</ele>
        <time>2026-03-09T18:14:10.000Z</time>
      </trkpt>
      <trkpt lat="43.38947" lon="-1.33371">
        <ele>151</ele>
        <time>2026-03-09T18:14:18.000Z</time>
      </trkpt>
      <trkpt lat="43.3895" lon="-1.33326">
        <ele>154</ele>
        <time>2026-03-09T18:14:24.000Z</time>
      </trkpt>
      <trkpt lat="43.38947" lon="-1.33285">
        <ele>154</ele>
        <time>2026-03-09T18:14:30.000Z</time>
      </trkpt>
      <trkpt lat="43.38919" lon="-1.33182">
        <ele>154</ele>
        <time>2026-03-09T18:14:44.000Z</time>
      </trkpt>
      <trkpt lat="43.38917" lon="-1.33111">
        <ele>154</ele>
        <time>2026-03-09T18:14:53.000Z</time>
      </trkpt>
      <trkpt lat="43.38921" lon="-1.3307">
        <ele>153</ele>
        <time>2026-03-09T18:14:58.000Z</time>
      </trkpt>
      <trkpt lat="43.38937" lon="-1.32998">
        <ele>149</ele>
        <time>2026-03-09T18:15:08.000Z</time>
      </trkpt>
      <trkpt lat="43.38945" lon="-1.32944">
        <ele>149</ele>
        <time>2026-03-09T18:15:15.000Z</time>
      </trkpt>
      <trkpt lat="43.38943" lon="-1.32923">
        <ele>149</ele>
        <time>2026-03-09T18:15:18.000Z</time>
      </trkpt>
      <trkpt lat="43.38935" lon="-1.32875">
        <ele>150</ele>
        <time>2026-03-09T18:15:24.000Z</time>
      </trkpt>
      <trkpt lat="43.38931" lon="-1.32821">
        <ele>152</ele>
        <time>2026-03-09T18:15:31.000Z</time>
      </trkpt>
      <trkpt lat="43.38937" lon="-1.32798">
        <ele>151</ele>
        <time>2026-03-09T18:15:35.000Z</time>
      </trkpt>
      <trkpt lat="43.38941" lon="-1.32791">
        <ele>151</ele>
        <time>2026-03-09T18:15:36.000Z</time>
      </trkpt>
      <trkpt lat="43.38967" lon="-1.32765">
        <ele>148</ele>
        <time>2026-03-09T18:15:41.000Z</time>
      </trkpt>
      <trkpt lat="43.38977" lon="-1.32747">
        <ele>146</ele>
        <time>2026-03-09T18:15:44.000Z</time>
      </trkpt>
      <trkpt lat="43.38988" lon="-1.32649">
        <ele>135</ele>
        <time>2026-03-09T18:15:57.000Z</time>
      </trkpt>
      <trkpt lat="43.39046" lon="-1.32499">
        <ele>131</ele>
        <time>2026-03-09T18:16:19.000Z</time>
      </trkpt>
      <trkpt lat="43.39057" lon="-1.32481">
        <ele>133</ele>
        <time>2026-03-09T18:16:22.000Z</time>
      </trkpt>
      <trkpt lat="43.39077" lon="-1.32462">
        <ele>135</ele>
        <time>2026-03-09T18:16:26.000Z</time>
      </trkpt>
      <trkpt lat="43.39147" lon="-1.32384">
        <ele>134</ele>
        <time>2026-03-09T18:16:43.000Z</time>
      </trkpt>
      <trkpt lat="43.39142" lon="-1.32353">
        <ele>134</ele>
        <time>2026-03-09T18:16:47.000Z</time>
      </trkpt>
      <trkpt lat="43.39138" lon="-1.32345">
        <ele>134</ele>
        <time>2026-03-09T18:16:48.000Z</time>
      </trkpt>
      <trkpt lat="43.39129" lon="-1.32335">
        <ele>135</ele>
        <time>2026-03-09T18:16:50.000Z</time>
      </trkpt>
      <trkpt lat="43.39097" lon="-1.32307">
        <ele>135</ele>
        <time>2026-03-09T18:16:57.000Z</time>
      </trkpt>
      <trkpt lat="43.39083" lon="-1.32288">
        <ele>135</ele>
        <time>2026-03-09T18:17:00.000Z</time>
      </trkpt>
      <trkpt lat="43.39062" lon="-1.32219">
        <ele>128</ele>
        <time>2026-03-09T18:17:10.000Z</time>
      </trkpt>
      <trkpt lat="43.39056" lon="-1.3221">
        <ele>127</ele>
        <time>2026-03-09T18:17:11.000Z</time>
      </trkpt>
      <trkpt lat="43.39025" lon="-1.32184">
        <ele>126</ele>
        <time>2026-03-09T18:17:18.000Z</time>
      </trkpt>
      <trkpt lat="43.38999" lon="-1.32138">
        <ele>124</ele>
        <time>2026-03-09T18:17:25.000Z</time>
      </trkpt>
      <trkpt lat="43.38969" lon="-1.32052">
        <ele>116</ele>
        <time>2026-03-09T18:17:38.000Z</time>
      </trkpt>
      <trkpt lat="43.3895" lon="-1.32018">
        <ele>113</ele>
        <time>2026-03-09T18:17:43.000Z</time>
      </trkpt>
      <trkpt lat="43.3887" lon="-1.319">
        <ele>104</ele>
        <time>2026-03-09T18:18:04.000Z</time>
      </trkpt>
      <trkpt lat="43.38862" lon="-1.31883">
        <ele>102</ele>
        <time>2026-03-09T18:18:07.000Z</time>
      </trkpt>
      <trkpt lat="43.38855" lon="-1.31862">
        <ele>100</ele>
        <time>2026-03-09T18:18:10.000Z</time>
      </trkpt>
      <trkpt lat="43.3885" lon="-1.31828">
        <ele>99</ele>
        <time>2026-03-09T18:18:14.000Z</time>
      </trkpt>
      <trkpt lat="43.38845" lon="-1.31803">
        <ele>97</ele>
        <time>2026-03-09T18:18:18.000Z</time>
      </trkpt>
      <trkpt lat="43.38818" lon="-1.31746">
        <ele>91</ele>
        <time>2026-03-09T18:18:26.000Z</time>
      </trkpt>
      <trkpt lat="43.38812" lon="-1.31732">
        <ele>88</ele>
        <time>2026-03-09T18:18:29.000Z</time>
      </trkpt>
      <trkpt lat="43.38812" lon="-1.31719">
        <ele>87</ele>
        <time>2026-03-09T18:18:30.000Z</time>
      </trkpt>
      <trkpt lat="43.38815" lon="-1.31703">
        <ele>86</ele>
        <time>2026-03-09T18:18:32.000Z</time>
      </trkpt>
      <trkpt lat="43.3882" lon="-1.3169">
        <ele>86</ele>
        <time>2026-03-09T18:18:34.000Z</time>
      </trkpt>
      <trkpt lat="43.38827" lon="-1.31682">
        <ele>86</ele>
        <time>2026-03-09T18:18:36.000Z</time>
      </trkpt>
      <trkpt lat="43.38837" lon="-1.31676">
        <ele>87</ele>
        <time>2026-03-09T18:18:38.000Z</time>
      </trkpt>
      <trkpt lat="43.38847" lon="-1.31666">
        <ele>88</ele>
        <time>2026-03-09T18:18:40.000Z</time>
      </trkpt>
      <trkpt lat="43.38876" lon="-1.31616">
        <ele>81</ele>
        <time>2026-03-09T18:18:48.000Z</time>
      </trkpt>
      <trkpt lat="43.38912" lon="-1.31594">
        <ele>79</ele>
        <time>2026-03-09T18:18:55.000Z</time>
      </trkpt>
      <trkpt lat="43.38965" lon="-1.31594">
        <ele>77</ele>
        <time>2026-03-09T18:19:05.000Z</time>
      </trkpt>
      <trkpt lat="43.38971" lon="-1.31586">
        <ele>75</ele>
        <time>2026-03-09T18:19:06.000Z</time>
      </trkpt>
      <trkpt lat="43.38963" lon="-1.31579">
        <ele>74</ele>
        <time>2026-03-09T18:19:08.000Z</time>
      </trkpt>
      <trkpt lat="43.38916" lon="-1.31575">
        <ele>75</ele>
        <time>2026-03-09T18:19:16.000Z</time>
      </trkpt>
      <trkpt lat="43.38866" lon="-1.31544">
        <ele>67</ele>
        <time>2026-03-09T18:19:26.000Z</time>
      </trkpt>
      <trkpt lat="43.38863" lon="-1.31532">
        <ele>64</ele>
        <time>2026-03-09T18:19:28.000Z</time>
      </trkpt>
      <trkpt lat="43.38801" lon="-1.31561">
        <ele>65</ele>
        <time>2026-03-09T18:19:39.000Z</time>
      </trkpt>
      <trkpt lat="43.38789" lon="-1.31563">
        <ele>65</ele>
        <time>2026-03-09T18:19:41.000Z</time>
      </trkpt>
      <trkpt lat="43.38708" lon="-1.31557">
        <ele>61</ele>
        <time>2026-03-09T18:19:56.000Z</time>
      </trkpt>
      <trkpt lat="43.38682" lon="-1.31546">
        <ele>61</ele>
        <time>2026-03-09T18:20:01.000Z</time>
      </trkpt>
      <trkpt lat="43.38643" lon="-1.31505">
        <ele>60</ele>
        <time>2026-03-09T18:20:09.000Z</time>
      </trkpt>
      <trkpt lat="43.38614" lon="-1.3147">
        <ele>60</ele>
        <time>2026-03-09T18:20:16.000Z</time>
      </trkpt>
      <trkpt lat="43.3856" lon="-1.31373">
        <ele>61</ele>
        <time>2026-03-09T18:20:32.000Z</time>
      </trkpt>
      <trkpt lat="43.38551" lon="-1.31378">
        <ele>61</ele>
        <time>2026-03-09T18:20:34.000Z</time>
      </trkpt>
      <trkpt lat="43.38542" lon="-1.31373">
        <ele>61</ele>
        <time>2026-03-09T18:20:36.000Z</time>
      </trkpt>
      <trkpt lat="43.38537" lon="-1.31362">
        <ele>61</ele>
        <time>2026-03-09T18:20:37.000Z</time>
      </trkpt>
      <trkpt lat="43.38537" lon="-1.31349">
        <ele>61</ele>
        <time>2026-03-09T18:20:39.000Z</time>
      </trkpt>
      <trkpt lat="43.38487" lon="-1.31327">
        <ele>62</ele>
        <time>2026-03-09T18:20:48.000Z</time>
      </trkpt>
      <trkpt lat="43.3845" lon="-1.31321">
        <ele>61</ele>
        <time>2026-03-09T18:20:55.000Z</time>
      </trkpt>
      <trkpt lat="43.38418" lon="-1.31319">
        <ele>60</ele>
        <time>2026-03-09T18:21:01.000Z</time>
      </trkpt>
      <trkpt lat="43.38396" lon="-1.31314">
        <ele>61</ele>
        <time>2026-03-09T18:21:05.000Z</time>
      </trkpt>
      <trkpt lat="43.38388" lon="-1.31308">
        <ele>61</ele>
        <time>2026-03-09T18:21:06.000Z</time>
      </trkpt>
      <trkpt lat="43.38371" lon="-1.31301">
        <ele>62</ele>
        <time>2026-03-09T18:21:09.000Z</time>
      </trkpt>
      <trkpt lat="43.38325" lon="-1.31291">
        <ele>63</ele>
        <time>2026-03-09T18:21:18.000Z</time>
      </trkpt>
      <trkpt lat="43.38269" lon="-1.31291">
        <ele>65</ele>
        <time>2026-03-09T18:21:28.000Z</time>
      </trkpt>
      <trkpt lat="43.38246" lon="-1.31294">
        <ele>66</ele>
        <time>2026-03-09T18:21:32.000Z</time>
      </trkpt>
      <trkpt lat="43.38232" lon="-1.31295">
        <ele>66</ele>
        <time>2026-03-09T18:21:34.000Z</time>
      </trkpt>
      <trkpt lat="43.38227" lon="-1.31302">
        <ele>66</ele>
        <time>2026-03-09T18:21:35.000Z</time>
      </trkpt>
      <trkpt lat="43.3822" lon="-1.31303">
        <ele>67</ele>
        <time>2026-03-09T18:21:37.000Z</time>
      </trkpt>
      <trkpt lat="43.38214" lon="-1.31298">
        <ele>67</ele>
        <time>2026-03-09T18:21:38.000Z</time>
      </trkpt>
      <trkpt lat="43.38212" lon="-1.31294">
        <ele>67</ele>
        <time>2026-03-09T18:21:39.000Z</time>
      </trkpt>
      <trkpt lat="43.38212" lon="-1.31285">
        <ele>67</ele>
        <time>2026-03-09T18:21:40.000Z</time>
      </trkpt>
      <trkpt lat="43.38213" lon="-1.3128">
        <ele>67</ele>
        <time>2026-03-09T18:21:40.000Z</time>
      </trkpt>
      <trkpt lat="43.38219" lon="-1.31275">
        <ele>68</ele>
        <time>2026-03-09T18:21:42.000Z</time>
      </trkpt>
      <trkpt lat="43.38225" lon="-1.31274">
        <ele>67</ele>
        <time>2026-03-09T18:21:43.000Z</time>
      </trkpt>
      <trkpt lat="43.38238" lon="-1.31218">
        <ele>72</ele>
        <time>2026-03-09T18:21:50.000Z</time>
      </trkpt>
      <trkpt lat="43.38261" lon="-1.311">
        <ele>79</ele>
        <time>2026-03-09T18:22:06.000Z</time>
      </trkpt>
      <trkpt lat="43.38261" lon="-1.31035">
        <ele>79</ele>
        <time>2026-03-09T18:22:15.000Z</time>
      </trkpt>
      <trkpt lat="43.38264" lon="-1.30997">
        <ele>79</ele>
        <time>2026-03-09T18:22:20.000Z</time>
      </trkpt>
      <trkpt lat="43.3833" lon="-1.30819">
        <ele>87</ele>
        <time>2026-03-09T18:22:45.000Z</time>
      </trkpt>
      <trkpt lat="43.38342" lon="-1.30769">
        <ele>88</ele>
        <time>2026-03-09T18:22:52.000Z</time>
      </trkpt>
      <trkpt lat="43.3835" lon="-1.30701">
        <ele>89</ele>
        <time>2026-03-09T18:23:01.000Z</time>
      </trkpt>
      <trkpt lat="43.38327" lon="-1.30689">
        <ele>91</ele>
        <time>2026-03-09T18:23:05.000Z</time>
      </trkpt>
      <trkpt lat="43.3831" lon="-1.30674">
        <ele>92</ele>
        <time>2026-03-09T18:23:09.000Z</time>
      </trkpt>
      <trkpt lat="43.38278" lon="-1.30637">
        <ele>95</ele>
        <time>2026-03-09T18:23:16.000Z</time>
      </trkpt>
      <trkpt lat="43.3826" lon="-1.30613">
        <ele>97</ele>
        <time>2026-03-09T18:23:21.000Z</time>
      </trkpt>
      <trkpt lat="43.38238" lon="-1.30585">
        <ele>100</ele>
        <time>2026-03-09T18:23:26.000Z</time>
      </trkpt>
      <trkpt lat="43.38202" lon="-1.30529">
        <ele>102</ele>
        <time>2026-03-09T18:23:36.000Z</time>
      </trkpt>
      <trkpt lat="43.38197" lon="-1.30532">
        <ele>103</ele>
        <time>2026-03-09T18:23:37.000Z</time>
      </trkpt>
      <trkpt lat="43.38194" lon="-1.3053">
        <ele>103</ele>
        <time>2026-03-09T18:23:37.000Z</time>
      </trkpt>
      <trkpt lat="43.38192" lon="-1.30526">
        <ele>103</ele>
        <time>2026-03-09T18:23:38.000Z</time>
      </trkpt>
      <trkpt lat="43.38185" lon="-1.30525">
        <ele>103</ele>
        <time>2026-03-09T18:23:39.000Z</time>
      </trkpt>
      <trkpt lat="43.38157" lon="-1.30568">
        <ele>107</ele>
        <time>2026-03-09T18:23:47.000Z</time>
      </trkpt>
      <trkpt lat="43.38104" lon="-1.30639">
        <ele>113</ele>
        <time>2026-03-09T18:24:00.000Z</time>
      </trkpt>
      <trkpt lat="43.38095" lon="-1.30657">
        <ele>115</ele>
        <time>2026-03-09T18:24:03.000Z</time>
      </trkpt>
      <trkpt lat="43.38085" lon="-1.30693">
        <ele>115</ele>
        <time>2026-03-09T18:24:08.000Z</time>
      </trkpt>
      <trkpt lat="43.38076" lon="-1.30723">
        <ele>117</ele>
        <time>2026-03-09T18:24:12.000Z</time>
      </trkpt>
      <trkpt lat="43.38052" lon="-1.30767">
        <ele>123</ele>
        <time>2026-03-09T18:24:19.000Z</time>
      </trkpt>
      <trkpt lat="43.38047" lon="-1.30781">
        <ele>123</ele>
        <time>2026-03-09T18:24:21.000Z</time>
      </trkpt>
      <trkpt lat="43.3804" lon="-1.30806">
        <ele>124</ele>
        <time>2026-03-09T18:24:25.000Z</time>
      </trkpt>
      <trkpt lat="43.38036" lon="-1.30839">
        <ele>123</ele>
        <time>2026-03-09T18:24:29.000Z</time>
      </trkpt>
      <trkpt lat="43.38033" lon="-1.30847">
        <ele>122</ele>
        <time>2026-03-09T18:24:30.000Z</time>
      </trkpt>
      <trkpt lat="43.38029" lon="-1.30855">
        <ele>122</ele>
        <time>2026-03-09T18:24:31.000Z</time>
      </trkpt>
      <trkpt lat="43.38015" lon="-1.30874">
        <ele>123</ele>
        <time>2026-03-09T18:24:35.000Z</time>
      </trkpt>
      <trkpt lat="43.37973" lon="-1.30922">
        <ele>127</ele>
        <time>2026-03-09T18:24:45.000Z</time>
      </trkpt>
      <trkpt lat="43.3796" lon="-1.30929">
        <ele>130</ele>
        <time>2026-03-09T18:24:47.000Z</time>
      </trkpt>
      <trkpt lat="43.37938" lon="-1.30924">
        <ele>138</ele>
        <time>2026-03-09T18:24:51.000Z</time>
      </trkpt>
      <trkpt lat="43.37929" lon="-1.30924">
        <ele>141</ele>
        <time>2026-03-09T18:24:53.000Z</time>
      </trkpt>
      <trkpt lat="43.37922" lon="-1.30927">
        <ele>142</ele>
        <time>2026-03-09T18:24:54.000Z</time>
      </trkpt>
      <trkpt lat="43.37916" lon="-1.30935">
        <ele>142</ele>
        <time>2026-03-09T18:24:55.000Z</time>
      </trkpt>
      <trkpt lat="43.37907" lon="-1.30957">
        <ele>139</ele>
        <time>2026-03-09T18:24:59.000Z</time>
      </trkpt>
      <trkpt lat="43.37902" lon="-1.30964">
        <ele>139</ele>
        <time>2026-03-09T18:25:00.000Z</time>
      </trkpt>
      <trkpt lat="43.37892" lon="-1.30972">
        <ele>140</ele>
        <time>2026-03-09T18:25:02.000Z</time>
      </trkpt>
      <trkpt lat="43.3785" lon="-1.30993">
        <ele>145</ele>
        <time>2026-03-09T18:25:10.000Z</time>
      </trkpt>
      <trkpt lat="43.37839" lon="-1.30995">
        <ele>147</ele>
        <time>2026-03-09T18:25:12.000Z</time>
      </trkpt>
      <trkpt lat="43.37822" lon="-1.30992">
        <ele>152</ele>
        <time>2026-03-09T18:25:15.000Z</time>
      </trkpt>
      <trkpt lat="43.37805" lon="-1.30982">
        <ele>158</ele>
        <time>2026-03-09T18:25:18.000Z</time>
      </trkpt>
      <trkpt lat="43.37793" lon="-1.30979">
        <ele>161</ele>
        <time>2026-03-09T18:25:20.000Z</time>
      </trkpt>
      <trkpt lat="43.37785" lon="-1.30982">
        <ele>163</ele>
        <time>2026-03-09T18:25:22.000Z</time>
      </trkpt>
      <trkpt lat="43.37781" lon="-1.30992">
        <ele>163</ele>
        <time>2026-03-09T18:25:23.000Z</time>
      </trkpt>
      <trkpt lat="43.37781" lon="-1.31007">
        <ele>164</ele>
        <time>2026-03-09T18:25:25.000Z</time>
      </trkpt>
      <trkpt lat="43.37791" lon="-1.31042">
        <ele>164</ele>
        <time>2026-03-09T18:25:30.000Z</time>
      </trkpt>
      <trkpt lat="43.37803" lon="-1.31067">
        <ele>164</ele>
        <time>2026-03-09T18:25:34.000Z</time>
      </trkpt>
      <trkpt lat="43.37845" lon="-1.31121">
        <ele>155</ele>
        <time>2026-03-09T18:25:44.000Z</time>
      </trkpt>
      <trkpt lat="43.37849" lon="-1.31134">
        <ele>155</ele>
        <time>2026-03-09T18:25:46.000Z</time>
      </trkpt>
      <trkpt lat="43.37848" lon="-1.31148">
        <ele>156</ele>
        <time>2026-03-09T18:25:48.000Z</time>
      </trkpt>
      <trkpt lat="43.37844" lon="-1.31152">
        <ele>158</ele>
        <time>2026-03-09T18:25:49.000Z</time>
      </trkpt>
      <trkpt lat="43.37839" lon="-1.31154">
        <ele>160</ele>
        <time>2026-03-09T18:25:50.000Z</time>
      </trkpt>
      <trkpt lat="43.37833" lon="-1.31148">
        <ele>162</ele>
        <time>2026-03-09T18:25:51.000Z</time>
      </trkpt>
      <trkpt lat="43.37815" lon="-1.31114">
        <ele>164</ele>
        <time>2026-03-09T18:25:57.000Z</time>
      </trkpt>
      <trkpt lat="43.37784" lon="-1.31088">
        <ele>172</ele>
        <time>2026-03-09T18:26:03.000Z</time>
      </trkpt>
      <trkpt lat="43.37737" lon="-1.31028">
        <ele>178</ele>
        <time>2026-03-09T18:26:14.000Z</time>
      </trkpt>
      <trkpt lat="43.37732" lon="-1.31012">
        <ele>177</ele>
        <time>2026-03-09T18:26:17.000Z</time>
      </trkpt>
      <trkpt lat="43.37731" lon="-1.30968">
        <ele>176</ele>
        <time>2026-03-09T18:26:22.000Z</time>
      </trkpt>
      <trkpt lat="43.37714" lon="-1.30931">
        <ele>179</ele>
        <time>2026-03-09T18:26:28.000Z</time>
      </trkpt>
      <trkpt lat="43.3771" lon="-1.30913">
        <ele>179</ele>
        <time>2026-03-09T18:26:30.000Z</time>
      </trkpt>
      <trkpt lat="43.37711" lon="-1.30881">
        <ele>182</ele>
        <time>2026-03-09T18:26:35.000Z</time>
      </trkpt>
      <trkpt lat="43.37717" lon="-1.30855">
        <ele>183</ele>
        <time>2026-03-09T18:26:38.000Z</time>
      </trkpt>
      <trkpt lat="43.37726" lon="-1.30841">
        <ele>182</ele>
        <time>2026-03-09T18:26:41.000Z</time>
      </trkpt>
      <trkpt lat="43.37732" lon="-1.30837">
        <ele>182</ele>
        <time>2026-03-09T18:26:42.000Z</time>
      </trkpt>
      <trkpt lat="43.37738" lon="-1.30836">
        <ele>181</ele>
        <time>2026-03-09T18:26:43.000Z</time>
      </trkpt>
      <trkpt lat="43.37773" lon="-1.30845">
        <ele>178</ele>
        <time>2026-03-09T18:26:49.000Z</time>
      </trkpt>
      <trkpt lat="43.37786" lon="-1.30843">
        <ele>178</ele>
        <time>2026-03-09T18:26:51.000Z</time>
      </trkpt>
      <trkpt lat="43.37791" lon="-1.30838">
        <ele>179</ele>
        <time>2026-03-09T18:26:53.000Z</time>
      </trkpt>
      <trkpt lat="43.37794" lon="-1.3083">
        <ele>180</ele>
        <time>2026-03-09T18:26:54.000Z</time>
      </trkpt>
      <trkpt lat="43.37794" lon="-1.30823">
        <ele>181</ele>
        <time>2026-03-09T18:26:55.000Z</time>
      </trkpt>
      <trkpt lat="43.37791" lon="-1.30817">
        <ele>182</ele>
        <time>2026-03-09T18:26:56.000Z</time>
      </trkpt>
      <trkpt lat="43.3771" lon="-1.30741">
        <ele>192</ele>
        <time>2026-03-09T18:27:13.000Z</time>
      </trkpt>
      <trkpt lat="43.37701" lon="-1.30735">
        <ele>193</ele>
        <time>2026-03-09T18:27:15.000Z</time>
      </trkpt>
      <trkpt lat="43.37694" lon="-1.30733">
        <ele>193</ele>
        <time>2026-03-09T18:27:16.000Z</time>
      </trkpt>
      <trkpt lat="43.37687" lon="-1.30735">
        <ele>193</ele>
        <time>2026-03-09T18:27:17.000Z</time>
      </trkpt>
      <trkpt lat="43.37681" lon="-1.3074">
        <ele>193</ele>
        <time>2026-03-09T18:27:19.000Z</time>
      </trkpt>
      <trkpt lat="43.37675" lon="-1.3075">
        <ele>193</ele>
        <time>2026-03-09T18:27:20.000Z</time>
      </trkpt>
      <trkpt lat="43.37659" lon="-1.30792">
        <ele>193</ele>
        <time>2026-03-09T18:27:26.000Z</time>
      </trkpt>
      <trkpt lat="43.37632" lon="-1.30838">
        <ele>195</ele>
        <time>2026-03-09T18:27:34.000Z</time>
      </trkpt>
      <trkpt lat="43.37534" lon="-1.30927">
        <ele>199</ele>
        <time>2026-03-09T18:27:55.000Z</time>
      </trkpt>
      <trkpt lat="43.37512" lon="-1.30954">
        <ele>199</ele>
        <time>2026-03-09T18:28:00.000Z</time>
      </trkpt>
      <trkpt lat="43.37498" lon="-1.30979">
        <ele>199</ele>
        <time>2026-03-09T18:28:04.000Z</time>
      </trkpt>
      <trkpt lat="43.37385" lon="-1.31161">
        <ele>206</ele>
        <time>2026-03-09T18:28:35.000Z</time>
      </trkpt>
      <trkpt lat="43.37266" lon="-1.31321">
        <ele>207</ele>
        <time>2026-03-09T18:29:05.000Z</time>
      </trkpt>
      <trkpt lat="43.37255" lon="-1.31335">
        <ele>207</ele>
        <time>2026-03-09T18:29:07.000Z</time>
      </trkpt>
      <trkpt lat="43.3724" lon="-1.31349">
        <ele>207</ele>
        <time>2026-03-09T18:29:11.000Z</time>
      </trkpt>
      <trkpt lat="43.37212" lon="-1.31371">
        <ele>207</ele>
        <time>2026-03-09T18:29:16.000Z</time>
      </trkpt>
      <trkpt lat="43.37198" lon="-1.31379">
        <ele>207</ele>
        <time>2026-03-09T18:29:19.000Z</time>
      </trkpt>
      <trkpt lat="43.37161" lon="-1.31385">
        <ele>207</ele>
        <time>2026-03-09T18:29:26.000Z</time>
      </trkpt>
      <trkpt lat="43.3714" lon="-1.31386">
        <ele>208</ele>
        <time>2026-03-09T18:29:29.000Z</time>
      </trkpt>
      <trkpt lat="43.37106" lon="-1.3138">
        <ele>209</ele>
        <time>2026-03-09T18:29:36.000Z</time>
      </trkpt>
      <trkpt lat="43.36996" lon="-1.31323">
        <ele>213</ele>
        <time>2026-03-09T18:29:57.000Z</time>
      </trkpt>
      <trkpt lat="43.36948" lon="-1.31292">
        <ele>215</ele>
        <time>2026-03-09T18:30:06.000Z</time>
      </trkpt>
      <trkpt lat="43.36923" lon="-1.31278">
        <ele>215</ele>
        <time>2026-03-09T18:30:11.000Z</time>
      </trkpt>
      <trkpt lat="43.36861" lon="-1.31262">
        <ele>218</ele>
        <time>2026-03-09T18:30:22.000Z</time>
      </trkpt>
      <trkpt lat="43.36837" lon="-1.3126">
        <ele>219</ele>
        <time>2026-03-09T18:30:26.000Z</time>
      </trkpt>
      <trkpt lat="43.3656" lon="-1.31293">
        <ele>229</ele>
        <time>2026-03-09T18:31:16.000Z</time>
      </trkpt>
      <trkpt lat="43.36548" lon="-1.31299">
        <ele>229</ele>
        <time>2026-03-09T18:31:18.000Z</time>
      </trkpt>
      <trkpt lat="43.36521" lon="-1.31314">
        <ele>230</ele>
        <time>2026-03-09T18:31:23.000Z</time>
      </trkpt>
      <trkpt lat="43.36511" lon="-1.31322">
        <ele>231</ele>
        <time>2026-03-09T18:31:25.000Z</time>
      </trkpt>
      <trkpt lat="43.36466" lon="-1.31376">
        <ele>231</ele>
        <time>2026-03-09T18:31:36.000Z</time>
      </trkpt>
      <trkpt lat="43.36414" lon="-1.31412">
        <ele>235</ele>
        <time>2026-03-09T18:31:46.000Z</time>
      </trkpt>
      <trkpt lat="43.36346" lon="-1.31463">
        <ele>235</ele>
        <time>2026-03-09T18:32:00.000Z</time>
      </trkpt>
      <trkpt lat="43.36297" lon="-1.31518">
        <ele>236</ele>
        <time>2026-03-09T18:32:11.000Z</time>
      </trkpt>
      <trkpt lat="43.36279" lon="-1.31526">
        <ele>236</ele>
        <time>2026-03-09T18:32:15.000Z</time>
      </trkpt>
      <trkpt lat="43.36261" lon="-1.31528">
        <ele>234</ele>
        <time>2026-03-09T18:32:18.000Z</time>
      </trkpt>
      <trkpt lat="43.36252" lon="-1.31535">
        <ele>234</ele>
        <time>2026-03-09T18:32:20.000Z</time>
      </trkpt>
      <trkpt lat="43.36225" lon="-1.31593">
        <ele>236</ele>
        <time>2026-03-09T18:32:29.000Z</time>
      </trkpt>
      <trkpt lat="43.36204" lon="-1.31604">
        <ele>236</ele>
        <time>2026-03-09T18:32:33.000Z</time>
      </trkpt>
      <trkpt lat="43.36193" lon="-1.31603">
        <ele>235</ele>
        <time>2026-03-09T18:32:35.000Z</time>
      </trkpt>
      <trkpt lat="43.36115" lon="-1.31567">
        <ele>221</ele>
        <time>2026-03-09T18:32:49.000Z</time>
      </trkpt>
      <trkpt lat="43.36103" lon="-1.31565">
        <ele>218</ele>
        <time>2026-03-09T18:32:51.000Z</time>
      </trkpt>
      <trkpt lat="43.36094" lon="-1.3157">
        <ele>217</ele>
        <time>2026-03-09T18:32:53.000Z</time>
      </trkpt>
      <trkpt lat="43.36088" lon="-1.31579">
        <ele>217</ele>
        <time>2026-03-09T18:32:55.000Z</time>
      </trkpt>
      <trkpt lat="43.36077" lon="-1.31608">
        <ele>219</ele>
        <time>2026-03-09T18:32:59.000Z</time>
      </trkpt>
      <trkpt lat="43.36049" lon="-1.31664">
        <ele>223</ele>
        <time>2026-03-09T18:33:08.000Z</time>
      </trkpt>
      <trkpt lat="43.36038" lon="-1.31699">
        <ele>225</ele>
        <time>2026-03-09T18:33:13.000Z</time>
      </trkpt>
      <trkpt lat="43.3603" lon="-1.31719">
        <ele>225</ele>
        <time>2026-03-09T18:33:16.000Z</time>
      </trkpt>
      <trkpt lat="43.3602" lon="-1.31729">
        <ele>225</ele>
        <time>2026-03-09T18:33:18.000Z</time>
      </trkpt>
      <trkpt lat="43.36007" lon="-1.31735">
        <ele>225</ele>
        <time>2026-03-09T18:33:20.000Z</time>
      </trkpt>
      <trkpt lat="43.36004" lon="-1.31735">
        <ele>224</ele>
        <time>2026-03-09T18:33:21.000Z</time>
      </trkpt>
      <trkpt lat="43.35996" lon="-1.3173">
        <ele>224</ele>
        <time>2026-03-09T18:33:22.000Z</time>
      </trkpt>
      <trkpt lat="43.35993" lon="-1.31725">
        <ele>225</ele>
        <time>2026-03-09T18:33:23.000Z</time>
      </trkpt>
      <trkpt lat="43.35992" lon="-1.31706">
        <ele>223</ele>
        <time>2026-03-09T18:33:26.000Z</time>
      </trkpt>
      <trkpt lat="43.36008" lon="-1.31653">
        <ele>219</ele>
        <time>2026-03-09T18:33:33.000Z</time>
      </trkpt>
      <trkpt lat="43.36011" lon="-1.3164">
        <ele>218</ele>
        <time>2026-03-09T18:33:35.000Z</time>
      </trkpt>
      <trkpt lat="43.36011" lon="-1.3161">
        <ele>216</ele>
        <time>2026-03-09T18:33:39.000Z</time>
      </trkpt>
      <trkpt lat="43.36007" lon="-1.3158">
        <ele>214</ele>
        <time>2026-03-09T18:33:43.000Z</time>
      </trkpt>
      <trkpt lat="43.35975" lon="-1.3145">
        <ele>203</ele>
        <time>2026-03-09T18:34:00.000Z</time>
      </trkpt>
      <trkpt lat="43.3597" lon="-1.31401">
        <ele>199</ele>
        <time>2026-03-09T18:34:07.000Z</time>
      </trkpt>
      <trkpt lat="43.35966" lon="-1.31381">
        <ele>198</ele>
        <time>2026-03-09T18:34:09.000Z</time>
      </trkpt>
      <trkpt lat="43.35959" lon="-1.31361">
        <ele>196</ele>
        <time>2026-03-09T18:34:12.000Z</time>
      </trkpt>
      <trkpt lat="43.35952" lon="-1.31349">
        <ele>196</ele>
        <time>2026-03-09T18:34:14.000Z</time>
      </trkpt>
      <trkpt lat="43.35945" lon="-1.31343">
        <ele>196</ele>
        <time>2026-03-09T18:34:16.000Z</time>
      </trkpt>
      <trkpt lat="43.35938" lon="-1.31345">
        <ele>196</ele>
        <time>2026-03-09T18:34:17.000Z</time>
      </trkpt>
      <trkpt lat="43.35924" lon="-1.31354">
        <ele>198</ele>
        <time>2026-03-09T18:34:20.000Z</time>
      </trkpt>
      <trkpt lat="43.35907" lon="-1.3136">
        <ele>201</ele>
        <time>2026-03-09T18:34:23.000Z</time>
      </trkpt>
      <trkpt lat="43.35901" lon="-1.3136">
        <ele>201</ele>
        <time>2026-03-09T18:34:24.000Z</time>
      </trkpt>
      <trkpt lat="43.35896" lon="-1.31354">
        <ele>201</ele>
        <time>2026-03-09T18:34:25.000Z</time>
      </trkpt>
      <trkpt lat="43.35892" lon="-1.31341">
        <ele>200</ele>
        <time>2026-03-09T18:34:27.000Z</time>
      </trkpt>
      <trkpt lat="43.35888" lon="-1.31306">
        <ele>201</ele>
        <time>2026-03-09T18:34:32.000Z</time>
      </trkpt>
      <trkpt lat="43.3589" lon="-1.31279">
        <ele>202</ele>
        <time>2026-03-09T18:34:35.000Z</time>
      </trkpt>
      <trkpt lat="43.35901" lon="-1.31229">
        <ele>204</ele>
        <time>2026-03-09T18:34:42.000Z</time>
      </trkpt>
      <trkpt lat="43.35923" lon="-1.31027">
        <ele>215</ele>
        <time>2026-03-09T18:35:08.000Z</time>
      </trkpt>
      <trkpt lat="43.35924" lon="-1.30985">
        <ele>216</ele>
        <time>2026-03-09T18:35:14.000Z</time>
      </trkpt>
      <trkpt lat="43.35922" lon="-1.30949">
        <ele>217</ele>
        <time>2026-03-09T18:35:18.000Z</time>
      </trkpt>
      <trkpt lat="43.35905" lon="-1.3088">
        <ele>222</ele>
        <time>2026-03-09T18:35:28.000Z</time>
      </trkpt>
      <trkpt lat="43.35898" lon="-1.30847">
        <ele>224</ele>
        <time>2026-03-09T18:35:32.000Z</time>
      </trkpt>
      <trkpt lat="43.35891" lon="-1.3083">
        <ele>225</ele>
        <time>2026-03-09T18:35:35.000Z</time>
      </trkpt>
      <trkpt lat="43.35879" lon="-1.30808">
        <ele>226</ele>
        <time>2026-03-09T18:35:38.000Z</time>
      </trkpt>
      <trkpt lat="43.35845" lon="-1.30767">
        <ele>228</ele>
        <time>2026-03-09T18:35:46.000Z</time>
      </trkpt>
      <trkpt lat="43.35837" lon="-1.30753">
        <ele>228</ele>
        <time>2026-03-09T18:35:49.000Z</time>
      </trkpt>
      <trkpt lat="43.35827" lon="-1.30742">
        <ele>228</ele>
        <time>2026-03-09T18:35:51.000Z</time>
      </trkpt>
      <trkpt lat="43.35817" lon="-1.30736">
        <ele>229</ele>
        <time>2026-03-09T18:35:53.000Z</time>
      </trkpt>
      <trkpt lat="43.358" lon="-1.30735">
        <ele>232</ele>
        <time>2026-03-09T18:35:56.000Z</time>
      </trkpt>
      <trkpt lat="43.35778" lon="-1.30742">
        <ele>236</ele>
        <time>2026-03-09T18:36:00.000Z</time>
      </trkpt>
      <trkpt lat="43.35758" lon="-1.30744">
        <ele>240</ele>
        <time>2026-03-09T18:36:03.000Z</time>
      </trkpt>
      <trkpt lat="43.35726" lon="-1.30733">
        <ele>242</ele>
        <time>2026-03-09T18:36:09.000Z</time>
      </trkpt>
      <trkpt lat="43.35701" lon="-1.30727">
        <ele>245</ele>
        <time>2026-03-09T18:36:14.000Z</time>
      </trkpt>
      <trkpt lat="43.35681" lon="-1.30718">
        <ele>246</ele>
        <time>2026-03-09T18:36:18.000Z</time>
      </trkpt>
      <trkpt lat="43.35641" lon="-1.30675">
        <ele>249</ele>
        <time>2026-03-09T18:36:27.000Z</time>
      </trkpt>
      <trkpt lat="43.35609" lon="-1.30645">
        <ele>250</ele>
        <time>2026-03-09T18:36:34.000Z</time>
      </trkpt>
      <trkpt lat="43.35575" lon="-1.30621">
        <ele>252</ele>
        <time>2026-03-09T18:36:40.000Z</time>
      </trkpt>
      <trkpt lat="43.35554" lon="-1.30609">
        <ele>251</ele>
        <time>2026-03-09T18:36:44.000Z</time>
      </trkpt>
      <trkpt lat="43.35546" lon="-1.30608">
        <ele>251</ele>
        <time>2026-03-09T18:36:46.000Z</time>
      </trkpt>
      <trkpt lat="43.35535" lon="-1.30611">
        <ele>251</ele>
        <time>2026-03-09T18:36:48.000Z</time>
      </trkpt>
      <trkpt lat="43.35507" lon="-1.30625">
        <ele>253</ele>
        <time>2026-03-09T18:36:53.000Z</time>
      </trkpt>
      <trkpt lat="43.35491" lon="-1.30641">
        <ele>255</ele>
        <time>2026-03-09T18:36:57.000Z</time>
      </trkpt>
      <trkpt lat="43.35466" lon="-1.3069">
        <ele>260</ele>
        <time>2026-03-09T18:37:04.000Z</time>
      </trkpt>
      <trkpt lat="43.35453" lon="-1.30704">
        <ele>261</ele>
        <time>2026-03-09T18:37:07.000Z</time>
      </trkpt>
      <trkpt lat="43.35406" lon="-1.30715">
        <ele>260</ele>
        <time>2026-03-09T18:37:16.000Z</time>
      </trkpt>
      <trkpt lat="43.35376" lon="-1.30733">
        <ele>261</ele>
        <time>2026-03-09T18:37:22.000Z</time>
      </trkpt>
      <trkpt lat="43.35332" lon="-1.3078">
        <ele>266</ele>
        <time>2026-03-09T18:37:32.000Z</time>
      </trkpt>
      <trkpt lat="43.35318" lon="-1.30789">
        <ele>267</ele>
        <time>2026-03-09T18:37:34.000Z</time>
      </trkpt>
      <trkpt lat="43.35302" lon="-1.30788">
        <ele>267</ele>
        <time>2026-03-09T18:37:37.000Z</time>
      </trkpt>
      <trkpt lat="43.3528" lon="-1.30783">
        <ele>267</ele>
        <time>2026-03-09T18:37:41.000Z</time>
      </trkpt>
      <trkpt lat="43.35233" lon="-1.30782">
        <ele>269</ele>
        <time>2026-03-09T18:37:49.000Z</time>
      </trkpt>
      <trkpt lat="43.35157" lon="-1.30751">
        <ele>275</ele>
        <time>2026-03-09T18:38:04.000Z</time>
      </trkpt>
      <trkpt lat="43.35127" lon="-1.30713">
        <ele>276</ele>
        <time>2026-03-09T18:38:11.000Z</time>
      </trkpt>
      <trkpt lat="43.35107" lon="-1.30615">
        <ele>271</ele>
        <time>2026-03-09T18:38:24.000Z</time>
      </trkpt>
      <trkpt lat="43.35078" lon="-1.30565">
        <ele>273</ele>
        <time>2026-03-09T18:38:32.000Z</time>
      </trkpt>
      <trkpt lat="43.35063" lon="-1.30552">
        <ele>273</ele>
        <time>2026-03-09T18:38:35.000Z</time>
      </trkpt>
      <trkpt lat="43.35009" lon="-1.30537">
        <ele>280</ele>
        <time>2026-03-09T18:38:45.000Z</time>
      </trkpt>
      <trkpt lat="43.34999" lon="-1.30528">
        <ele>281</ele>
        <time>2026-03-09T18:38:47.000Z</time>
      </trkpt>
      <trkpt lat="43.34994" lon="-1.3052">
        <ele>280</ele>
        <time>2026-03-09T18:38:49.000Z</time>
      </trkpt>
      <trkpt lat="43.34992" lon="-1.30499">
        <ele>278</ele>
        <time>2026-03-09T18:38:51.000Z</time>
      </trkpt>
      <trkpt lat="43.34996" lon="-1.3042">
        <ele>275</ele>
        <time>2026-03-09T18:39:02.000Z</time>
      </trkpt>
      <trkpt lat="43.34989" lon="-1.30372">
        <ele>269</ele>
        <time>2026-03-09T18:39:08.000Z</time>
      </trkpt>
      <trkpt lat="43.34979" lon="-1.30327">
        <ele>264</ele>
        <time>2026-03-09T18:39:14.000Z</time>
      </trkpt>
      <trkpt lat="43.34939" lon="-1.30234">
        <ele>261</ele>
        <time>2026-03-09T18:39:28.000Z</time>
      </trkpt>
      <trkpt lat="43.34874" lon="-1.30047">
        <ele>247</ele>
        <time>2026-03-09T18:39:55.000Z</time>
      </trkpt>
      <trkpt lat="43.34864" lon="-1.29988">
        <ele>245</ele>
        <time>2026-03-09T18:40:03.000Z</time>
      </trkpt>
      <trkpt lat="43.34859" lon="-1.29985">
        <ele>245</ele>
        <time>2026-03-09T18:40:04.000Z</time>
      </trkpt>
      <trkpt lat="43.34853" lon="-1.29985">
        <ele>245</ele>
        <time>2026-03-09T18:40:05.000Z</time>
      </trkpt>
      <trkpt lat="43.34841" lon="-1.29991">
        <ele>245</ele>
        <time>2026-03-09T18:40:07.000Z</time>
      </trkpt>
      <trkpt lat="43.34832" lon="-1.29998">
        <ele>245</ele>
        <time>2026-03-09T18:40:09.000Z</time>
      </trkpt>
      <trkpt lat="43.34823" lon="-1.30013">
        <ele>243</ele>
        <time>2026-03-09T18:40:11.000Z</time>
      </trkpt>
      <trkpt lat="43.3482" lon="-1.30028">
        <ele>243</ele>
        <time>2026-03-09T18:40:13.000Z</time>
      </trkpt>
      <trkpt lat="43.34817" lon="-1.30094">
        <ele>243</ele>
        <time>2026-03-09T18:40:22.000Z</time>
      </trkpt>
      <trkpt lat="43.34815" lon="-1.30104">
        <ele>243</ele>
        <time>2026-03-09T18:40:23.000Z</time>
      </trkpt>
      <trkpt lat="43.34805" lon="-1.30129">
        <ele>242</ele>
        <time>2026-03-09T18:40:27.000Z</time>
      </trkpt>
      <trkpt lat="43.34802" lon="-1.30143">
        <ele>242</ele>
        <time>2026-03-09T18:40:29.000Z</time>
      </trkpt>
      <trkpt lat="43.34804" lon="-1.3021">
        <ele>246</ele>
        <time>2026-03-09T18:40:38.000Z</time>
      </trkpt>
      <trkpt lat="43.34803" lon="-1.30229">
        <ele>247</ele>
        <time>2026-03-09T18:40:40.000Z</time>
      </trkpt>
      <trkpt lat="43.34798" lon="-1.30247">
        <ele>247</ele>
        <time>2026-03-09T18:40:43.000Z</time>
      </trkpt>
      <trkpt lat="43.34776" lon="-1.30315">
        <ele>251</ele>
        <time>2026-03-09T18:40:52.000Z</time>
      </trkpt>
      <trkpt lat="43.3477" lon="-1.30323">
        <ele>251</ele>
        <time>2026-03-09T18:40:54.000Z</time>
      </trkpt>
      <trkpt lat="43.34763" lon="-1.30325">
        <ele>250</ele>
        <time>2026-03-09T18:40:55.000Z</time>
      </trkpt>
      <trkpt lat="43.34758" lon="-1.30319">
        <ele>249</ele>
        <time>2026-03-09T18:40:56.000Z</time>
      </trkpt>
      <trkpt lat="43.34755" lon="-1.30308">
        <ele>247</ele>
        <time>2026-03-09T18:40:58.000Z</time>
      </trkpt>
      <trkpt lat="43.34755" lon="-1.30276">
        <ele>244</ele>
        <time>2026-03-09T18:41:02.000Z</time>
      </trkpt>
      <trkpt lat="43.34748" lon="-1.30249">
        <ele>240</ele>
        <time>2026-03-09T18:41:06.000Z</time>
      </trkpt>
      <trkpt lat="43.34744" lon="-1.30238">
        <ele>239</ele>
        <time>2026-03-09T18:41:07.000Z</time>
      </trkpt>
      <trkpt lat="43.34693" lon="-1.30168">
        <ele>233</ele>
        <time>2026-03-09T18:41:20.000Z</time>
      </trkpt>
      <trkpt lat="43.34676" lon="-1.30147">
        <ele>231</ele>
        <time>2026-03-09T18:41:24.000Z</time>
      </trkpt>
      <trkpt lat="43.34657" lon="-1.30118">
        <ele>228</ele>
        <time>2026-03-09T18:41:29.000Z</time>
      </trkpt>
      <trkpt lat="43.34644" lon="-1.30087">
        <ele>226</ele>
        <time>2026-03-09T18:41:34.000Z</time>
      </trkpt>
      <trkpt lat="43.34616" lon="-1.30008">
        <ele>221</ele>
        <time>2026-03-09T18:41:45.000Z</time>
      </trkpt>
      <trkpt lat="43.34602" lon="-1.29963">
        <ele>217</ele>
        <time>2026-03-09T18:41:51.000Z</time>
      </trkpt>
      <trkpt lat="43.34592" lon="-1.29938">
        <ele>214</ele>
        <time>2026-03-09T18:41:55.000Z</time>
      </trkpt>
      <trkpt lat="43.34582" lon="-1.29922">
        <ele>212</ele>
        <time>2026-03-09T18:41:58.000Z</time>
      </trkpt>
      <trkpt lat="43.34564" lon="-1.29904">
        <ele>206</ele>
        <time>2026-03-09T18:42:02.000Z</time>
      </trkpt>
      <trkpt lat="43.34557" lon="-1.29902">
        <ele>205</ele>
        <time>2026-03-09T18:42:03.000Z</time>
      </trkpt>
      <trkpt lat="43.34546" lon="-1.29903">
        <ele>204</ele>
        <time>2026-03-09T18:42:05.000Z</time>
      </trkpt>
      <trkpt lat="43.34534" lon="-1.29913">
        <ele>204</ele>
        <time>2026-03-09T18:42:07.000Z</time>
      </trkpt>
      <trkpt lat="43.34482" lon="-1.30004">
        <ele>204</ele>
        <time>2026-03-09T18:42:22.000Z</time>
      </trkpt>
      <trkpt lat="43.3445" lon="-1.30091">
        <ele>216</ele>
        <time>2026-03-09T18:42:35.000Z</time>
      </trkpt>
      <trkpt lat="43.34444" lon="-1.30094">
        <ele>216</ele>
        <time>2026-03-09T18:42:36.000Z</time>
      </trkpt>
      <trkpt lat="43.34436" lon="-1.30091">
        <ele>215</ele>
        <time>2026-03-09T18:42:38.000Z</time>
      </trkpt>
      <trkpt lat="43.34429" lon="-1.30085">
        <ele>213</ele>
        <time>2026-03-09T18:42:39.000Z</time>
      </trkpt>
      <trkpt lat="43.3442" lon="-1.30071">
        <ele>209</ele>
        <time>2026-03-09T18:42:42.000Z</time>
      </trkpt>
      <trkpt lat="43.34392" lon="-1.30023">
        <ele>197</ele>
        <time>2026-03-09T18:42:50.000Z</time>
      </trkpt>
      <trkpt lat="43.34362" lon="-1.29994">
        <ele>194</ele>
        <time>2026-03-09T18:42:56.000Z</time>
      </trkpt>
      <trkpt lat="43.34348" lon="-1.29977">
        <ele>193</ele>
        <time>2026-03-09T18:42:59.000Z</time>
      </trkpt>
      <trkpt lat="43.34327" lon="-1.29937">
        <ele>190</ele>
        <time>2026-03-09T18:43:06.000Z</time>
      </trkpt>
      <trkpt lat="43.34321" lon="-1.29933">
        <ele>189</ele>
        <time>2026-03-09T18:43:07.000Z</time>
      </trkpt>
      <trkpt lat="43.34314" lon="-1.29932">
        <ele>189</ele>
        <time>2026-03-09T18:43:08.000Z</time>
      </trkpt>
      <trkpt lat="43.34298" lon="-1.29936">
        <ele>189</ele>
        <time>2026-03-09T18:43:11.000Z</time>
      </trkpt>
      <trkpt lat="43.34258" lon="-1.29948">
        <ele>190</ele>
        <time>2026-03-09T18:43:18.000Z</time>
      </trkpt>
      <trkpt lat="43.34234" lon="-1.29951">
        <ele>189</ele>
        <time>2026-03-09T18:43:23.000Z</time>
      </trkpt>
      <trkpt lat="43.34221" lon="-1.29948">
        <ele>188</ele>
        <time>2026-03-09T18:43:25.000Z</time>
      </trkpt>
      <trkpt lat="43.34206" lon="-1.29943">
        <ele>187</ele>
        <time>2026-03-09T18:43:28.000Z</time>
      </trkpt>
      <trkpt lat="43.34193" lon="-1.29936">
        <ele>186</ele>
        <time>2026-03-09T18:43:30.000Z</time>
      </trkpt>
      <trkpt lat="43.34167" lon="-1.29917">
        <ele>182</ele>
        <time>2026-03-09T18:43:35.000Z</time>
      </trkpt>
      <trkpt lat="43.34157" lon="-1.29914">
        <ele>181</ele>
        <time>2026-03-09T18:43:37.000Z</time>
      </trkpt>
      <trkpt lat="43.34142" lon="-1.29912">
        <ele>179</ele>
        <time>2026-03-09T18:43:40.000Z</time>
      </trkpt>
      <trkpt lat="43.34105" lon="-1.29916">
        <ele>176</ele>
        <time>2026-03-09T18:43:47.000Z</time>
      </trkpt>
      <trkpt lat="43.34085" lon="-1.29914">
        <ele>174</ele>
        <time>2026-03-09T18:43:50.000Z</time>
      </trkpt>
      <trkpt lat="43.34063" lon="-1.29898">
        <ele>172</ele>
        <time>2026-03-09T18:43:55.000Z</time>
      </trkpt>
      <trkpt lat="43.34046" lon="-1.29882">
        <ele>171</ele>
        <time>2026-03-09T18:43:58.000Z</time>
      </trkpt>
      <trkpt lat="43.34019" lon="-1.29839">
        <ele>170</ele>
        <time>2026-03-09T18:44:06.000Z</time>
      </trkpt>
      <trkpt lat="43.34005" lon="-1.29833">
        <ele>170</ele>
        <time>2026-03-09T18:44:08.000Z</time>
      </trkpt>
      <trkpt lat="43.34" lon="-1.29859">
        <ele>170</ele>
        <time>2026-03-09T18:44:12.000Z</time>
      </trkpt>
      <trkpt lat="43.33997" lon="-1.29901">
        <ele>170</ele>
        <time>2026-03-09T18:44:17.000Z</time>
      </trkpt>
      <trkpt lat="43.33991" lon="-1.29973">
        <ele>166</ele>
        <time>2026-03-09T18:44:27.000Z</time>
      </trkpt>
      <trkpt lat="43.33988" lon="-1.29987">
        <ele>166</ele>
        <time>2026-03-09T18:44:28.000Z</time>
      </trkpt>
      <trkpt lat="43.33983" lon="-1.29997">
        <ele>165</ele>
        <time>2026-03-09T18:44:30.000Z</time>
      </trkpt>
      <trkpt lat="43.33974" lon="-1.30005">
        <ele>165</ele>
        <time>2026-03-09T18:44:32.000Z</time>
      </trkpt>
      <trkpt lat="43.33963" lon="-1.30011">
        <ele>164</ele>
        <time>2026-03-09T18:44:34.000Z</time>
      </trkpt>
      <trkpt lat="43.33939" lon="-1.30014">
        <ele>163</ele>
        <time>2026-03-09T18:44:38.000Z</time>
      </trkpt>
      <trkpt lat="43.33915" lon="-1.30015">
        <ele>161</ele>
        <time>2026-03-09T18:44:43.000Z</time>
      </trkpt>
      <trkpt lat="43.33817" lon="-1.29993">
        <ele>154</ele>
        <time>2026-03-09T18:45:00.000Z</time>
      </trkpt>
      <trkpt lat="43.33755" lon="-1.29982">
        <ele>149</ele>
        <time>2026-03-09T18:45:11.000Z</time>
      </trkpt>
      <trkpt lat="43.3374" lon="-1.29981">
        <ele>148</ele>
        <time>2026-03-09T18:45:14.000Z</time>
      </trkpt>
      <trkpt lat="43.33726" lon="-1.29985">
        <ele>147</ele>
        <time>2026-03-09T18:45:17.000Z</time>
      </trkpt>
      <trkpt lat="43.33718" lon="-1.2999">
        <ele>147</ele>
        <time>2026-03-09T18:45:18.000Z</time>
      </trkpt>
      <trkpt lat="43.33714" lon="-1.29995">
        <ele>147</ele>
        <time>2026-03-09T18:45:19.000Z</time>
      </trkpt>
      <trkpt lat="43.33706" lon="-1.30018">
        <ele>146</ele>
        <time>2026-03-09T18:45:22.000Z</time>
      </trkpt>
      <trkpt lat="43.33685" lon="-1.30115">
        <ele>144</ele>
        <time>2026-03-09T18:45:35.000Z</time>
      </trkpt>
      <trkpt lat="43.33681" lon="-1.30129">
        <ele>143</ele>
        <time>2026-03-09T18:45:37.000Z</time>
      </trkpt>
      <trkpt lat="43.33672" lon="-1.30146">
        <ele>143</ele>
        <time>2026-03-09T18:45:40.000Z</time>
      </trkpt>
      <trkpt lat="43.33636" lon="-1.30181">
        <ele>142</ele>
        <time>2026-03-09T18:45:48.000Z</time>
      </trkpt>
      <trkpt lat="43.33629" lon="-1.30191">
        <ele>142</ele>
        <time>2026-03-09T18:45:50.000Z</time>
      </trkpt>
      <trkpt lat="43.33602" lon="-1.30239">
        <ele>143</ele>
        <time>2026-03-09T18:45:58.000Z</time>
      </trkpt>
      <trkpt lat="43.33584" lon="-1.30262">
        <ele>143</ele>
        <time>2026-03-09T18:46:02.000Z</time>
      </trkpt>
      <trkpt lat="43.33566" lon="-1.30273">
        <ele>143</ele>
        <time>2026-03-09T18:46:06.000Z</time>
      </trkpt>
      <trkpt lat="43.33552" lon="-1.30274">
        <ele>143</ele>
        <time>2026-03-09T18:46:08.000Z</time>
      </trkpt>
      <trkpt lat="43.33449" lon="-1.30276">
        <ele>150</ele>
        <time>2026-03-09T18:46:26.000Z</time>
      </trkpt>
      <trkpt lat="43.33416" lon="-1.30282">
        <ele>153</ele>
        <time>2026-03-09T18:46:32.000Z</time>
      </trkpt>
      <trkpt lat="43.33394" lon="-1.30295">
        <ele>161</ele>
        <time>2026-03-09T18:46:37.000Z</time>
      </trkpt>
      <trkpt lat="43.33384" lon="-1.30306">
        <ele>163</ele>
        <time>2026-03-09T18:46:39.000Z</time>
      </trkpt>
      <trkpt lat="43.33305" lon="-1.30419">
        <ele>161</ele>
        <time>2026-03-09T18:46:59.000Z</time>
      </trkpt>
      <trkpt lat="43.33271" lon="-1.3046">
        <ele>161</ele>
        <time>2026-03-09T18:47:07.000Z</time>
      </trkpt>
      <trkpt lat="43.33224" lon="-1.30502">
        <ele>165</ele>
        <time>2026-03-09T18:47:17.000Z</time>
      </trkpt>
      <trkpt lat="43.33216" lon="-1.30514">
        <ele>166</ele>
        <time>2026-03-09T18:47:19.000Z</time>
      </trkpt>
      <trkpt lat="43.33168" lon="-1.30606">
        <ele>167</ele>
        <time>2026-03-09T18:47:34.000Z</time>
      </trkpt>
      <trkpt lat="43.33138" lon="-1.30646">
        <ele>168</ele>
        <time>2026-03-09T18:47:41.000Z</time>
      </trkpt>
      <trkpt lat="43.33039" lon="-1.30742">
        <ele>177</ele>
        <time>2026-03-09T18:48:03.000Z</time>
      </trkpt>
      <trkpt lat="43.3302" lon="-1.30766">
        <ele>179</ele>
        <time>2026-03-09T18:48:07.000Z</time>
      </trkpt>
      <trkpt lat="43.3301" lon="-1.30784">
        <ele>180</ele>
        <time>2026-03-09T18:48:10.000Z</time>
      </trkpt>
      <trkpt lat="43.33001" lon="-1.30814">
        <ele>179</ele>
        <time>2026-03-09T18:48:15.000Z</time>
      </trkpt>
      <trkpt lat="43.33" lon="-1.30831">
        <ele>177</ele>
        <time>2026-03-09T18:48:17.000Z</time>
      </trkpt>
      <trkpt lat="43.33003" lon="-1.30848">
        <ele>178</ele>
        <time>2026-03-09T18:48:19.000Z</time>
      </trkpt>
      <trkpt lat="43.3301" lon="-1.30869">
        <ele>180</ele>
        <time>2026-03-09T18:48:22.000Z</time>
      </trkpt>
      <trkpt lat="43.33029" lon="-1.30917">
        <ele>180</ele>
        <time>2026-03-09T18:48:29.000Z</time>
      </trkpt>
      <trkpt lat="43.33033" lon="-1.30935">
        <ele>179</ele>
        <time>2026-03-09T18:48:32.000Z</time>
      </trkpt>
      <trkpt lat="43.33034" lon="-1.30951">
        <ele>179</ele>
        <time>2026-03-09T18:48:34.000Z</time>
      </trkpt>
      <trkpt lat="43.33029" lon="-1.30988">
        <ele>182</ele>
        <time>2026-03-09T18:48:39.000Z</time>
      </trkpt>
      <trkpt lat="43.33026" lon="-1.31003">
        <ele>183</ele>
        <time>2026-03-09T18:48:41.000Z</time>
      </trkpt>
      <trkpt lat="43.33003" lon="-1.3105">
        <ele>190</ele>
        <time>2026-03-09T18:48:48.000Z</time>
      </trkpt>
      <trkpt lat="43.33002" lon="-1.31063">
        <ele>190</ele>
        <time>2026-03-09T18:48:50.000Z</time>
      </trkpt>
      <trkpt lat="43.33003" lon="-1.31104">
        <ele>189</ele>
        <time>2026-03-09T18:48:55.000Z</time>
      </trkpt>
      <trkpt lat="43.32998" lon="-1.31151">
        <ele>191</ele>
        <time>2026-03-09T18:49:01.000Z</time>
      </trkpt>
      <trkpt lat="43.32991" lon="-1.31191">
        <ele>191</ele>
        <time>2026-03-09T18:49:06.000Z</time>
      </trkpt>
      <trkpt lat="43.32984" lon="-1.31216">
        <ele>192</ele>
        <time>2026-03-09T18:49:10.000Z</time>
      </trkpt>
      <trkpt lat="43.32975" lon="-1.31236">
        <ele>192</ele>
        <time>2026-03-09T18:49:13.000Z</time>
      </trkpt>
      <trkpt lat="43.32931" lon="-1.31314">
        <ele>199</ele>
        <time>2026-03-09T18:49:26.000Z</time>
      </trkpt>
      <trkpt lat="43.3291" lon="-1.3136">
        <ele>203</ele>
        <time>2026-03-09T18:49:33.000Z</time>
      </trkpt>
      <trkpt lat="43.32882" lon="-1.31445">
        <ele>210</ele>
        <time>2026-03-09T18:49:45.000Z</time>
      </trkpt>
      <trkpt lat="43.32875" lon="-1.31473">
        <ele>212</ele>
        <time>2026-03-09T18:49:49.000Z</time>
      </trkpt>
      <trkpt lat="43.32866" lon="-1.31547">
        <ele>219</ele>
        <time>2026-03-09T18:49:58.000Z</time>
      </trkpt>
      <trkpt lat="43.32868" lon="-1.31592">
        <ele>222</ele>
        <time>2026-03-09T18:50:04.000Z</time>
      </trkpt>
      <trkpt lat="43.32879" lon="-1.31673">
        <ele>222</ele>
        <time>2026-03-09T18:50:15.000Z</time>
      </trkpt>
      <trkpt lat="43.3291" lon="-1.31824">
        <ele>207</ele>
        <time>2026-03-09T18:50:35.000Z</time>
      </trkpt>
      <trkpt lat="43.32915" lon="-1.3184">
        <ele>206</ele>
        <time>2026-03-09T18:50:37.000Z</time>
      </trkpt>
      <trkpt lat="43.32922" lon="-1.31852">
        <ele>206</ele>
        <time>2026-03-09T18:50:39.000Z</time>
      </trkpt>
      <trkpt lat="43.32934" lon="-1.31866">
        <ele>206</ele>
        <time>2026-03-09T18:50:42.000Z</time>
      </trkpt>
      <trkpt lat="43.32946" lon="-1.31875">
        <ele>206</ele>
        <time>2026-03-09T18:50:45.000Z</time>
      </trkpt>
      <trkpt lat="43.3296" lon="-1.31883">
        <ele>207</ele>
        <time>2026-03-09T18:50:47.000Z</time>
      </trkpt>
      <trkpt lat="43.32994" lon="-1.31895">
        <ele>209</ele>
        <time>2026-03-09T18:50:53.000Z</time>
      </trkpt>
      <trkpt lat="43.33018" lon="-1.31917">
        <ele>211</ele>
        <time>2026-03-09T18:50:59.000Z</time>
      </trkpt>
      <trkpt lat="43.33028" lon="-1.31935">
        <ele>212</ele>
        <time>2026-03-09T18:51:02.000Z</time>
      </trkpt>
      <trkpt lat="43.33034" lon="-1.31951">
        <ele>213</ele>
        <time>2026-03-09T18:51:04.000Z</time>
      </trkpt>
      <trkpt lat="43.33042" lon="-1.32">
        <ele>216</ele>
        <time>2026-03-09T18:51:10.000Z</time>
      </trkpt>
      <trkpt lat="43.33051" lon="-1.32039">
        <ele>217</ele>
        <time>2026-03-09T18:51:16.000Z</time>
      </trkpt>
      <trkpt lat="43.33062" lon="-1.32077">
        <ele>217</ele>
        <time>2026-03-09T18:51:21.000Z</time>
      </trkpt>
      <trkpt lat="43.33086" lon="-1.32134">
        <ele>218</ele>
        <time>2026-03-09T18:51:30.000Z</time>
      </trkpt>
      <trkpt lat="43.33018" lon="-1.32143">
        <ele>223</ele>
        <time>2026-03-09T18:51:42.000Z</time>
      </trkpt>
      <trkpt lat="43.32957" lon="-1.32153">
        <ele>225</ele>
        <time>2026-03-09T18:51:53.000Z</time>
      </trkpt>
      <trkpt lat="43.32943" lon="-1.32159">
        <ele>225</ele>
        <time>2026-03-09T18:51:55.000Z</time>
      </trkpt>
      <trkpt lat="43.32897" lon="-1.32192">
        <ele>225</ele>
        <time>2026-03-09T18:52:04.000Z</time>
      </trkpt>
      <trkpt lat="43.32881" lon="-1.322">
        <ele>226</ele>
        <time>2026-03-09T18:52:07.000Z</time>
      </trkpt>
      <trkpt lat="43.32849" lon="-1.3221">
        <ele>227</ele>
        <time>2026-03-09T18:52:13.000Z</time>
      </trkpt>
      <trkpt lat="43.32829" lon="-1.32208">
        <ele>229</ele>
        <time>2026-03-09T18:52:17.000Z</time>
      </trkpt>
      <trkpt lat="43.32803" lon="-1.32195">
        <ele>232</ele>
        <time>2026-03-09T18:52:22.000Z</time>
      </trkpt>
      <trkpt lat="43.32781" lon="-1.3218">
        <ele>235</ele>
        <time>2026-03-09T18:52:26.000Z</time>
      </trkpt>
      <trkpt lat="43.32734" lon="-1.32158">
        <ele>240</ele>
        <time>2026-03-09T18:52:35.000Z</time>
      </trkpt>
      <trkpt lat="43.3272" lon="-1.32159">
        <ele>240</ele>
        <time>2026-03-09T18:52:37.000Z</time>
      </trkpt>
      <trkpt lat="43.32677" lon="-1.32179">
        <ele>241</ele>
        <time>2026-03-09T18:52:46.000Z</time>
      </trkpt>
      <trkpt lat="43.32661" lon="-1.3219">
        <ele>239</ele>
        <time>2026-03-09T18:52:49.000Z</time>
      </trkpt>
      <trkpt lat="43.32646" lon="-1.322">
        <ele>237</ele>
        <time>2026-03-09T18:52:52.000Z</time>
      </trkpt>
      <trkpt lat="43.32624" lon="-1.32221">
        <ele>234</ele>
        <time>2026-03-09T18:52:56.000Z</time>
      </trkpt>
      <trkpt lat="43.32603" lon="-1.32245">
        <ele>233</ele>
        <time>2026-03-09T18:53:01.000Z</time>
      </trkpt>
      <trkpt lat="43.32575" lon="-1.32279">
        <ele>232</ele>
        <time>2026-03-09T18:53:08.000Z</time>
      </trkpt>
      <trkpt lat="43.32543" lon="-1.32325">
        <ele>234</ele>
        <time>2026-03-09T18:53:16.000Z</time>
      </trkpt>
      <trkpt lat="43.32525" lon="-1.32361">
        <ele>235</ele>
        <time>2026-03-09T18:53:22.000Z</time>
      </trkpt>
      <trkpt lat="43.32496" lon="-1.32437">
        <ele>236</ele>
        <time>2026-03-09T18:53:33.000Z</time>
      </trkpt>
      <trkpt lat="43.32467" lon="-1.3253">
        <ele>236</ele>
        <time>2026-03-09T18:53:46.000Z</time>
      </trkpt>
      <trkpt lat="43.32449" lon="-1.32578">
        <ele>237</ele>
        <time>2026-03-09T18:53:53.000Z</time>
      </trkpt>
      <trkpt lat="43.3244" lon="-1.32603">
        <ele>238</ele>
        <time>2026-03-09T18:53:57.000Z</time>
      </trkpt>
      <trkpt lat="43.32436" lon="-1.32632">
        <ele>241</ele>
        <time>2026-03-09T18:54:01.000Z</time>
      </trkpt>
      <trkpt lat="43.32431" lon="-1.32642">
        <ele>242</ele>
        <time>2026-03-09T18:54:02.000Z</time>
      </trkpt>
      <trkpt lat="43.3242" lon="-1.32652">
        <ele>243</ele>
        <time>2026-03-09T18:54:04.000Z</time>
      </trkpt>
      <trkpt lat="43.32383" lon="-1.32671">
        <ele>242</ele>
        <time>2026-03-09T18:54:11.000Z</time>
      </trkpt>
      <trkpt lat="43.32364" lon="-1.32677">
        <ele>241</ele>
        <time>2026-03-09T18:54:15.000Z</time>
      </trkpt>
      <trkpt lat="43.32325" lon="-1.32681">
        <ele>237</ele>
        <time>2026-03-09T18:54:22.000Z</time>
      </trkpt>
      <trkpt lat="43.32248" lon="-1.32674">
        <ele>230</ele>
        <time>2026-03-09T18:54:36.000Z</time>
      </trkpt>
      <trkpt lat="43.32226" lon="-1.32675">
        <ele>227</ele>
        <time>2026-03-09T18:54:40.000Z</time>
      </trkpt>
      <trkpt lat="43.32214" lon="-1.32678">
        <ele>225</ele>
        <time>2026-03-09T18:54:42.000Z</time>
      </trkpt>
      <trkpt lat="43.32204" lon="-1.32685">
        <ele>224</ele>
        <time>2026-03-09T18:54:44.000Z</time>
      </trkpt>
      <trkpt lat="43.32196" lon="-1.32695">
        <ele>223</ele>
        <time>2026-03-09T18:54:46.000Z</time>
      </trkpt>
      <trkpt lat="43.32175" lon="-1.32729">
        <ele>220</ele>
        <time>2026-03-09T18:54:51.000Z</time>
      </trkpt>
      <trkpt lat="43.3215" lon="-1.32765">
        <ele>215</ele>
        <time>2026-03-09T18:54:58.000Z</time>
      </trkpt>
      <trkpt lat="43.32143" lon="-1.32772">
        <ele>214</ele>
        <time>2026-03-09T18:54:59.000Z</time>
      </trkpt>
      <trkpt lat="43.3209" lon="-1.32795">
        <ele>209</ele>
        <time>2026-03-09T18:55:09.000Z</time>
      </trkpt>
      <trkpt lat="43.32082" lon="-1.32793">
        <ele>208</ele>
        <time>2026-03-09T18:55:11.000Z</time>
      </trkpt>
      <trkpt lat="43.32062" lon="-1.32782">
        <ele>206</ele>
        <time>2026-03-09T18:55:15.000Z</time>
      </trkpt>
      <trkpt lat="43.32005" lon="-1.32766">
        <ele>201</ele>
        <time>2026-03-09T18:55:25.000Z</time>
      </trkpt>
      <trkpt lat="43.31984" lon="-1.32753">
        <ele>198</ele>
        <time>2026-03-09T18:55:29.000Z</time>
      </trkpt>
      <trkpt lat="43.31959" lon="-1.32713">
        <ele>192</ele>
        <time>2026-03-09T18:55:36.000Z</time>
      </trkpt>
      <trkpt lat="43.31933" lon="-1.32683">
        <ele>188</ele>
        <time>2026-03-09T18:55:42.000Z</time>
      </trkpt>
      <trkpt lat="43.31915" lon="-1.32654">
        <ele>184</ele>
        <time>2026-03-09T18:55:47.000Z</time>
      </trkpt>
      <trkpt lat="43.31901" lon="-1.32639">
        <ele>181</ele>
        <time>2026-03-09T18:55:50.000Z</time>
      </trkpt>
      <trkpt lat="43.3189" lon="-1.32634">
        <ele>179</ele>
        <time>2026-03-09T18:55:52.000Z</time>
      </trkpt>
      <trkpt lat="43.31881" lon="-1.32631">
        <ele>178</ele>
        <time>2026-03-09T18:55:54.000Z</time>
      </trkpt>
      <trkpt lat="43.31846" lon="-1.32629">
        <ele>175</ele>
        <time>2026-03-09T18:56:00.000Z</time>
      </trkpt>
      <trkpt lat="43.31818" lon="-1.32624">
        <ele>172</ele>
        <time>2026-03-09T18:56:05.000Z</time>
      </trkpt>
      <trkpt lat="43.31672" lon="-1.32588">
        <ele>159</ele>
        <time>2026-03-09T18:56:31.000Z</time>
      </trkpt>
      <trkpt lat="43.31619" lon="-1.32559">
        <ele>153</ele>
        <time>2026-03-09T18:56:41.000Z</time>
      </trkpt>
      <trkpt lat="43.31573" lon="-1.32557">
        <ele>148</ele>
        <time>2026-03-09T18:56:50.000Z</time>
      </trkpt>
      <trkpt lat="43.3156" lon="-1.32555">
        <ele>147</ele>
        <time>2026-03-09T18:56:52.000Z</time>
      </trkpt>
      <trkpt lat="43.31532" lon="-1.32537">
        <ele>144</ele>
        <time>2026-03-09T18:56:57.000Z</time>
      </trkpt>
      <trkpt lat="43.3151" lon="-1.32542">
        <ele>142</ele>
        <time>2026-03-09T18:57:01.000Z</time>
      </trkpt>
      <trkpt lat="43.31482" lon="-1.32543">
        <ele>139</ele>
        <time>2026-03-09T18:57:06.000Z</time>
      </trkpt>
      <trkpt lat="43.31466" lon="-1.32547">
        <ele>138</ele>
        <time>2026-03-09T18:57:09.000Z</time>
      </trkpt>
      <trkpt lat="43.31455" lon="-1.32555">
        <ele>137</ele>
        <time>2026-03-09T18:57:12.000Z</time>
      </trkpt>
      <trkpt lat="43.31448" lon="-1.32563">
        <ele>136</ele>
        <time>2026-03-09T18:57:13.000Z</time>
      </trkpt>
      <trkpt lat="43.31444" lon="-1.32563">
        <ele>136</ele>
        <time>2026-03-09T18:57:14.000Z</time>
      </trkpt>
      <trkpt lat="43.31447" lon="-1.32606">
        <ele>137</ele>
        <time>2026-03-09T18:57:19.000Z</time>
      </trkpt>
      <trkpt lat="43.31443" lon="-1.32667">
        <ele>138</ele>
        <time>2026-03-09T18:57:27.000Z</time>
      </trkpt>
      <trkpt lat="43.3143" lon="-1.32726">
        <ele>136</ele>
        <time>2026-03-09T18:57:35.000Z</time>
      </trkpt>
      <trkpt lat="43.31419" lon="-1.32784">
        <ele>133</ele>
        <time>2026-03-09T18:57:43.000Z</time>
      </trkpt>
      <trkpt lat="43.31416" lon="-1.32806">
        <ele>132</ele>
        <time>2026-03-09T18:57:46.000Z</time>
      </trkpt>
      <trkpt lat="43.31414" lon="-1.3283">
        <ele>131</ele>
        <time>2026-03-09T18:57:49.000Z</time>
      </trkpt>
      <trkpt lat="43.31418" lon="-1.32896">
        <ele>131</ele>
        <time>2026-03-09T18:57:58.000Z</time>
      </trkpt>
      <trkpt lat="43.31417" lon="-1.32918">
        <ele>131</ele>
        <time>2026-03-09T18:58:01.000Z</time>
      </trkpt>
      <trkpt lat="43.31415" lon="-1.32934">
        <ele>130</ele>
        <time>2026-03-09T18:58:03.000Z</time>
      </trkpt>
      <trkpt lat="43.31396" lon="-1.33018">
        <ele>128</ele>
        <time>2026-03-09T18:58:14.000Z</time>
      </trkpt>
      <trkpt lat="43.31385" lon="-1.33074">
        <ele>130</ele>
        <time>2026-03-09T18:58:22.000Z</time>
      </trkpt>
      <trkpt lat="43.31384" lon="-1.33151">
        <ele>128</ele>
        <time>2026-03-09T18:58:32.000Z</time>
      </trkpt>
      <trkpt lat="43.31382" lon="-1.33166">
        <ele>128</ele>
        <time>2026-03-09T18:58:34.000Z</time>
      </trkpt>
      <trkpt lat="43.31377" lon="-1.33183">
        <ele>127</ele>
        <time>2026-03-09T18:58:36.000Z</time>
      </trkpt>
      <trkpt lat="43.31371" lon="-1.33197">
        <ele>126</ele>
        <time>2026-03-09T18:58:38.000Z</time>
      </trkpt>
      <trkpt lat="43.31339" lon="-1.33247">
        <ele>122</ele>
        <time>2026-03-09T18:58:47.000Z</time>
      </trkpt>
      <trkpt lat="43.3133" lon="-1.33265">
        <ele>122</ele>
        <time>2026-03-09T18:58:49.000Z</time>
      </trkpt>
      <trkpt lat="43.31326" lon="-1.33283">
        <ele>121</ele>
        <time>2026-03-09T18:58:52.000Z</time>
      </trkpt>
      <trkpt lat="43.31319" lon="-1.334">
        <ele>119</ele>
        <time>2026-03-09T18:59:07.000Z</time>
      </trkpt>
      <trkpt lat="43.31316" lon="-1.33414">
        <ele>118</ele>
        <time>2026-03-09T18:59:09.000Z</time>
      </trkpt>
      <trkpt lat="43.3131" lon="-1.3343">
        <ele>118</ele>
        <time>2026-03-09T18:59:11.000Z</time>
      </trkpt>
      <trkpt lat="43.31257" lon="-1.33542">
        <ele>124</ele>
        <time>2026-03-09T18:59:29.000Z</time>
      </trkpt>
      <trkpt lat="43.31251" lon="-1.33566">
        <ele>127</ele>
        <time>2026-03-09T18:59:32.000Z</time>
      </trkpt>
      <trkpt lat="43.31251" lon="-1.33604">
        <ele>129</ele>
        <time>2026-03-09T18:59:37.000Z</time>
      </trkpt>
      <trkpt lat="43.3127" lon="-1.33742">
        <ele>137</ele>
        <time>2026-03-09T18:59:55.000Z</time>
      </trkpt>
      <trkpt lat="43.31267" lon="-1.33828">
        <ele>140</ele>
        <time>2026-03-09T19:00:06.000Z</time>
      </trkpt>
      <trkpt lat="43.31284" lon="-1.33887">
        <ele>135</ele>
        <time>2026-03-09T19:00:14.000Z</time>
      </trkpt>
      <trkpt lat="43.31374" lon="-1.34074">
        <ele>121</ele>
        <time>2026-03-09T19:00:43.000Z</time>
      </trkpt>
      <trkpt lat="43.31385" lon="-1.34111">
        <ele>122</ele>
        <time>2026-03-09T19:00:49.000Z</time>
      </trkpt>
      <trkpt lat="43.31406" lon="-1.3418">
        <ele>121</ele>
        <time>2026-03-09T19:00:58.000Z</time>
      </trkpt>
      <trkpt lat="43.31452" lon="-1.34275">
        <ele>116</ele>
        <time>2026-03-09T19:01:13.000Z</time>
      </trkpt>
      <trkpt lat="43.31474" lon="-1.34331">
        <ele>113</ele>
        <time>2026-03-09T19:01:21.000Z</time>
      </trkpt>
      <trkpt lat="43.31487" lon="-1.34387">
        <ele>112</ele>
        <time>2026-03-09T19:01:29.000Z</time>
      </trkpt>
      <trkpt lat="43.31511" lon="-1.3458">
        <ele>111</ele>
        <time>2026-03-09T19:01:54.000Z</time>
      </trkpt>
      <trkpt lat="43.31531" lon="-1.34688">
        <ele>111</ele>
        <time>2026-03-09T19:02:09.000Z</time>
      </trkpt>
      <trkpt lat="43.31551" lon="-1.34776">
        <ele>105</ele>
        <time>2026-03-09T19:02:21.000Z</time>
      </trkpt>
      <trkpt lat="43.31528" lon="-1.34798">
        <ele>108</ele>
        <time>2026-03-09T19:02:26.000Z</time>
      </trkpt>
      <trkpt lat="43.31523" lon="-1.3483">
        <ele>107</ele>
        <time>2026-03-09T19:02:30.000Z</time>
      </trkpt>
      <trkpt lat="43.31519" lon="-1.34845">
        <ele>106</ele>
        <time>2026-03-09T19:02:32.000Z</time>
      </trkpt>
      <trkpt lat="43.31515" lon="-1.34853">
        <ele>106</ele>
        <time>2026-03-09T19:02:33.000Z</time>
      </trkpt>
      <trkpt lat="43.31509" lon="-1.34885">
        <ele>105</ele>
        <time>2026-03-09T19:02:37.000Z</time>
      </trkpt>
      <trkpt lat="43.31505" lon="-1.34898">
        <ele>104</ele>
        <time>2026-03-09T19:02:39.000Z</time>
      </trkpt>
      <trkpt lat="43.31494" lon="-1.3492">
        <ele>103</ele>
        <time>2026-03-09T19:02:43.000Z</time>
      </trkpt>
      <trkpt lat="43.31494" lon="-1.34938">
        <ele>103</ele>
        <time>2026-03-09T19:02:45.000Z</time>
      </trkpt>
      <trkpt lat="43.31498" lon="-1.34957">
        <ele>103</ele>
        <time>2026-03-09T19:02:48.000Z</time>
      </trkpt>
      <trkpt lat="43.31496" lon="-1.34982">
        <ele>103</ele>
        <time>2026-03-09T19:02:51.000Z</time>
      </trkpt>
      <trkpt lat="43.315" lon="-1.3499">
        <ele>103</ele>
        <time>2026-03-09T19:02:52.000Z</time>
      </trkpt>
      <trkpt lat="43.31504" lon="-1.34992">
        <ele>103</ele>
        <time>2026-03-09T19:02:53.000Z</time>
      </trkpt>
      <trkpt lat="43.31512" lon="-1.3499">
        <ele>103</ele>
        <time>2026-03-09T19:02:54.000Z</time>
      </trkpt>
      <trkpt lat="43.31518" lon="-1.34991">
        <ele>103</ele>
        <time>2026-03-09T19:02:55.000Z</time>
      </trkpt>
      <trkpt lat="43.31522" lon="-1.34994">
        <ele>103</ele>
        <time>2026-03-09T19:02:56.000Z</time>
      </trkpt>
      <trkpt lat="43.31525" lon="-1.35005">
        <ele>104</ele>
        <time>2026-03-09T19:02:58.000Z</time>
      </trkpt>
      <trkpt lat="43.31519" lon="-1.35004">
        <ele>104</ele>
        <time>2026-03-09T19:02:59.000Z</time>
      </trkpt>
      <trkpt lat="43.31503" lon="-1.35007">
        <ele>104</ele>
        <time>2026-03-09T19:03:02.000Z</time>
      </trkpt>
      <trkpt lat="43.31486" lon="-1.35022">
        <ele>107</ele>
        <time>2026-03-09T19:03:05.000Z</time>
      </trkpt>
      <trkpt lat="43.31483" lon="-1.35045">
        <ele>110</ele>
        <time>2026-03-09T19:03:08.000Z</time>
      </trkpt>
      <trkpt lat="43.31486" lon="-1.35057">
        <ele>111</ele>
        <time>2026-03-09T19:03:10.000Z</time>
      </trkpt>
      <trkpt lat="43.31484" lon="-1.35066">
        <ele>113</ele>
        <time>2026-03-09T19:03:11.000Z</time>
      </trkpt>
      <trkpt lat="43.31479" lon="-1.35072">
        <ele>114</ele>
        <time>2026-03-09T19:03:12.000Z</time>
      </trkpt>
      <trkpt lat="43.31471" lon="-1.35074">
        <ele>116</ele>
        <time>2026-03-09T19:03:14.000Z</time>
      </trkpt>
      <trkpt lat="43.31463" lon="-1.35068">
        <ele>116</ele>
        <time>2026-03-09T19:03:15.000Z</time>
      </trkpt>
      <trkpt lat="43.31461" lon="-1.35063">
        <ele>116</ele>
        <time>2026-03-09T19:03:16.000Z</time>
      </trkpt>
      <trkpt lat="43.31447" lon="-1.35054">
        <ele>116</ele>
        <time>2026-03-09T19:03:19.000Z</time>
      </trkpt>
      <trkpt lat="43.31428" lon="-1.35048">
        <ele>117</ele>
        <time>2026-03-09T19:03:22.000Z</time>
      </trkpt>
      <trkpt lat="43.31386" lon="-1.35019">
        <ele>111</ele>
        <time>2026-03-09T19:03:31.000Z</time>
      </trkpt>
      <trkpt lat="43.31367" lon="-1.35014">
        <ele>109</ele>
        <time>2026-03-09T19:03:34.000Z</time>
      </trkpt>
      <trkpt lat="43.3135" lon="-1.35014">
        <ele>108</ele>
        <time>2026-03-09T19:03:37.000Z</time>
      </trkpt>
      <trkpt lat="43.31333" lon="-1.35023">
        <ele>111</ele>
        <time>2026-03-09T19:03:40.000Z</time>
      </trkpt>
      <trkpt lat="43.31293" lon="-1.35061">
        <ele>120</ele>
        <time>2026-03-09T19:03:49.000Z</time>
      </trkpt>
      <trkpt lat="43.31273" lon="-1.35071">
        <ele>119</ele>
        <time>2026-03-09T19:03:53.000Z</time>
      </trkpt>
      <trkpt lat="43.31242" lon="-1.35078">
        <ele>115</ele>
        <time>2026-03-09T19:03:58.000Z</time>
      </trkpt>
      <trkpt lat="43.31193" lon="-1.35076">
        <ele>107</ele>
        <time>2026-03-09T19:04:07.000Z</time>
      </trkpt>
      <trkpt lat="43.31173" lon="-1.35077">
        <ele>104</ele>
        <time>2026-03-09T19:04:11.000Z</time>
      </trkpt>
      <trkpt lat="43.31148" lon="-1.35085">
        <ele>102</ele>
        <time>2026-03-09T19:04:15.000Z</time>
      </trkpt>
      <trkpt lat="43.31138" lon="-1.35091">
        <ele>102</ele>
        <time>2026-03-09T19:04:17.000Z</time>
      </trkpt>
      <trkpt lat="43.31129" lon="-1.351">
        <ele>102</ele>
        <time>2026-03-09T19:04:19.000Z</time>
      </trkpt>
      <trkpt lat="43.31111" lon="-1.35127">
        <ele>102</ele>
        <time>2026-03-09T19:04:24.000Z</time>
      </trkpt>
      <trkpt lat="43.31059" lon="-1.35225">
        <ele>101</ele>
        <time>2026-03-09T19:04:40.000Z</time>
      </trkpt>
      <trkpt lat="43.31042" lon="-1.35247">
        <ele>102</ele>
        <time>2026-03-09T19:04:44.000Z</time>
      </trkpt>
      <trkpt lat="43.31017" lon="-1.35272">
        <ele>104</ele>
        <time>2026-03-09T19:04:49.000Z</time>
      </trkpt>
      <trkpt lat="43.31007" lon="-1.35285">
        <ele>103</ele>
        <time>2026-03-09T19:04:52.000Z</time>
      </trkpt>
      <trkpt lat="43.30926" lon="-1.35437">
        <ele>97</ele>
        <time>2026-03-09T19:05:16.000Z</time>
      </trkpt>
      <trkpt lat="43.30912" lon="-1.35473">
        <ele>95</ele>
        <time>2026-03-09T19:05:21.000Z</time>
      </trkpt>
      <trkpt lat="43.308" lon="-1.35869">
        <ele>97</ele>
        <time>2026-03-09T19:06:16.000Z</time>
      </trkpt>
      <trkpt lat="43.30783" lon="-1.35912">
        <ele>95</ele>
        <time>2026-03-09T19:06:23.000Z</time>
      </trkpt>
      <trkpt lat="43.30767" lon="-1.35941">
        <ele>93</ele>
        <time>2026-03-09T19:06:27.000Z</time>
      </trkpt>
      <trkpt lat="43.30743" lon="-1.35971">
        <ele>91</ele>
        <time>2026-03-09T19:06:33.000Z</time>
      </trkpt>
      <trkpt lat="43.30694" lon="-1.36016">
        <ele>89</ele>
        <time>2026-03-09T19:06:44.000Z</time>
      </trkpt>
      <trkpt lat="43.30674" lon="-1.3603">
        <ele>89</ele>
        <time>2026-03-09T19:06:48.000Z</time>
      </trkpt>
      <trkpt lat="43.30657" lon="-1.36038">
        <ele>89</ele>
        <time>2026-03-09T19:06:51.000Z</time>
      </trkpt>
      <trkpt lat="43.30634" lon="-1.36041">
        <ele>88</ele>
        <time>2026-03-09T19:06:55.000Z</time>
      </trkpt>
      <trkpt lat="43.30618" lon="-1.36037">
        <ele>88</ele>
        <time>2026-03-09T19:06:58.000Z</time>
      </trkpt>
      <trkpt lat="43.30596" lon="-1.36026">
        <ele>88</ele>
        <time>2026-03-09T19:07:02.000Z</time>
      </trkpt>
      <trkpt lat="43.30567" lon="-1.35998">
        <ele>89</ele>
        <time>2026-03-09T19:07:08.000Z</time>
      </trkpt>
      <trkpt lat="43.30562" lon="-1.36008">
        <ele>87</ele>
        <time>2026-03-09T19:07:10.000Z</time>
      </trkpt>
      <trkpt lat="43.30563" lon="-1.36012">
        <ele>87</ele>
        <time>2026-03-09T19:07:11.000Z</time>
      </trkpt>
      <trkpt lat="43.30589" lon="-1.36047">
        <ele>86</ele>
        <time>2026-03-09T19:07:17.000Z</time>
      </trkpt>
      <trkpt lat="43.30596" lon="-1.36063">
        <ele>84</ele>
        <time>2026-03-09T19:07:19.000Z</time>
      </trkpt>
      <trkpt lat="43.30618" lon="-1.361">
        <ele>80</ele>
        <time>2026-03-09T19:07:26.000Z</time>
      </trkpt>
      <trkpt lat="43.30632" lon="-1.36117">
        <ele>76</ele>
        <time>2026-03-09T19:07:29.000Z</time>
      </trkpt>
      <trkpt lat="43.30638" lon="-1.36121">
        <ele>75</ele>
        <time>2026-03-09T19:07:30.000Z</time>
      </trkpt>
      <trkpt lat="43.3065" lon="-1.3612">
        <ele>75</ele>
        <time>2026-03-09T19:07:32.000Z</time>
      </trkpt>
      <trkpt lat="43.30695" lon="-1.36094">
        <ele>77</ele>
        <time>2026-03-09T19:07:41.000Z</time>
      </trkpt>
      <trkpt lat="43.3071" lon="-1.3609">
        <ele>76</ele>
        <time>2026-03-09T19:07:44.000Z</time>
      </trkpt>
      <trkpt lat="43.3077" lon="-1.36112">
        <ele>70</ele>
        <time>2026-03-09T19:07:55.000Z</time>
      </trkpt>
      <trkpt lat="43.30782" lon="-1.36113">
        <ele>70</ele>
        <time>2026-03-09T19:07:57.000Z</time>
      </trkpt>
      <trkpt lat="43.30791" lon="-1.3611">
        <ele>71</ele>
        <time>2026-03-09T19:07:58.000Z</time>
      </trkpt>
      <trkpt lat="43.30801" lon="-1.3611">
        <ele>71</ele>
        <time>2026-03-09T19:08:00.000Z</time>
      </trkpt>
      <trkpt lat="43.30824" lon="-1.36124">
        <ele>72</ele>
        <time>2026-03-09T19:08:05.000Z</time>
      </trkpt>
      <trkpt lat="43.30834" lon="-1.36134">
        <ele>72</ele>
        <time>2026-03-09T19:08:07.000Z</time>
      </trkpt>
      <trkpt lat="43.30841" lon="-1.36145">
        <ele>73</ele>
        <time>2026-03-09T19:08:09.000Z</time>
      </trkpt>
      <trkpt lat="43.30844" lon="-1.36156">
        <ele>73</ele>
        <time>2026-03-09T19:08:10.000Z</time>
      </trkpt>
      <trkpt lat="43.3085" lon="-1.36193">
        <ele>75</ele>
        <time>2026-03-09T19:08:15.000Z</time>
      </trkpt>
      <trkpt lat="43.30854" lon="-1.36205">
        <ele>76</ele>
        <time>2026-03-09T19:08:17.000Z</time>
      </trkpt>
      <trkpt lat="43.30877" lon="-1.36233">
        <ele>81</ele>
        <time>2026-03-09T19:08:22.000Z</time>
      </trkpt>
      <trkpt lat="43.30909" lon="-1.36293">
        <ele>87</ele>
        <time>2026-03-09T19:08:32.000Z</time>
      </trkpt>
      <trkpt lat="43.30956" lon="-1.36396">
        <ele>97</ele>
        <time>2026-03-09T19:08:48.000Z</time>
      </trkpt>
      <trkpt lat="43.30962" lon="-1.36425">
        <ele>97</ele>
        <time>2026-03-09T19:08:52.000Z</time>
      </trkpt>
      <trkpt lat="43.30966" lon="-1.3648">
        <ele>91</ele>
        <time>2026-03-09T19:08:59.000Z</time>
      </trkpt>
      <trkpt lat="43.30985" lon="-1.36576">
        <ele>86</ele>
        <time>2026-03-09T19:09:12.000Z</time>
      </trkpt>
      <trkpt lat="43.31023" lon="-1.36696">
        <ele>89</ele>
        <time>2026-03-09T19:09:29.000Z</time>
      </trkpt>
      <trkpt lat="43.3106" lon="-1.36825">
        <ele>89</ele>
        <time>2026-03-09T19:09:47.000Z</time>
      </trkpt>
      <trkpt lat="43.31101" lon="-1.36968">
        <ele>90</ele>
        <time>2026-03-09T19:10:07.000Z</time>
      </trkpt>
      <trkpt lat="43.31145" lon="-1.37182">
        <ele>96</ele>
        <time>2026-03-09T19:10:35.000Z</time>
      </trkpt>
      <trkpt lat="43.31183" lon="-1.3726">
        <ele>99</ele>
        <time>2026-03-09T19:10:48.000Z</time>
      </trkpt>
      <trkpt lat="43.31192" lon="-1.37288">
        <ele>97</ele>
        <time>2026-03-09T19:10:51.000Z</time>
      </trkpt>
      <trkpt lat="43.31205" lon="-1.37339">
        <ele>92</ele>
        <time>2026-03-09T19:10:58.000Z</time>
      </trkpt>
      <trkpt lat="43.3121" lon="-1.37352">
        <ele>92</ele>
        <time>2026-03-09T19:11:00.000Z</time>
      </trkpt>
      <trkpt lat="43.31258" lon="-1.37418">
        <ele>94</ele>
        <time>2026-03-09T19:11:12.000Z</time>
      </trkpt>
      <trkpt lat="43.31294" lon="-1.37456">
        <ele>103</ele>
        <time>2026-03-09T19:11:21.000Z</time>
      </trkpt>
      <trkpt lat="43.3134" lon="-1.37518">
        <ele>111</ele>
        <time>2026-03-09T19:11:32.000Z</time>
      </trkpt>
      <trkpt lat="43.31347" lon="-1.37536">
        <ele>113</ele>
        <time>2026-03-09T19:11:35.000Z</time>
      </trkpt>
      <trkpt lat="43.31352" lon="-1.37579">
        <ele>112</ele>
        <time>2026-03-09T19:11:40.000Z</time>
      </trkpt>
      <trkpt lat="43.31351" lon="-1.3762">
        <ele>111</ele>
        <time>2026-03-09T19:11:46.000Z</time>
      </trkpt>
      <trkpt lat="43.31344" lon="-1.37663">
        <ele>109</ele>
        <time>2026-03-09T19:11:51.000Z</time>
      </trkpt>
      <trkpt lat="43.31344" lon="-1.37705">
        <ele>111</ele>
        <time>2026-03-09T19:11:57.000Z</time>
      </trkpt>
      <trkpt lat="43.31339" lon="-1.37719">
        <ele>110</ele>
        <time>2026-03-09T19:11:59.000Z</time>
      </trkpt>
      <trkpt lat="43.31332" lon="-1.37735">
        <ele>108</ele>
        <time>2026-03-09T19:12:01.000Z</time>
      </trkpt>
      <trkpt lat="43.31326" lon="-1.3776">
        <ele>107</ele>
        <time>2026-03-09T19:12:05.000Z</time>
      </trkpt>
      <trkpt lat="43.31321" lon="-1.37789">
        <ele>105</ele>
        <time>2026-03-09T19:12:08.000Z</time>
      </trkpt>
      <trkpt lat="43.3132" lon="-1.37814">
        <ele>105</ele>
        <time>2026-03-09T19:12:12.000Z</time>
      </trkpt>
      <trkpt lat="43.31321" lon="-1.37856">
        <ele>108</ele>
        <time>2026-03-09T19:12:17.000Z</time>
      </trkpt>
      <trkpt lat="43.31319" lon="-1.37867">
        <ele>109</ele>
        <time>2026-03-09T19:12:19.000Z</time>
      </trkpt>
      <trkpt lat="43.31316" lon="-1.37874">
        <ele>108</ele>
        <time>2026-03-09T19:12:20.000Z</time>
      </trkpt>
      <trkpt lat="43.31308" lon="-1.37885">
        <ele>107</ele>
        <time>2026-03-09T19:12:22.000Z</time>
      </trkpt>
      <trkpt lat="43.31285" lon="-1.37905">
        <ele>103</ele>
        <time>2026-03-09T19:12:26.000Z</time>
      </trkpt>
      <trkpt lat="43.31252" lon="-1.37956">
        <ele>98</ele>
        <time>2026-03-09T19:12:35.000Z</time>
      </trkpt>
      <trkpt lat="43.31247" lon="-1.37976">
        <ele>99</ele>
        <time>2026-03-09T19:12:38.000Z</time>
      </trkpt>
      <trkpt lat="43.31244" lon="-1.38005">
        <ele>102</ele>
        <time>2026-03-09T19:12:42.000Z</time>
      </trkpt>
      <trkpt lat="43.31246" lon="-1.38028">
        <ele>106</ele>
        <time>2026-03-09T19:12:45.000Z</time>
      </trkpt>
      <trkpt lat="43.3124" lon="-1.38037">
        <ele>106</ele>
        <time>2026-03-09T19:12:46.000Z</time>
      </trkpt>
      <trkpt lat="43.31209" lon="-1.38051">
        <ele>101</ele>
        <time>2026-03-09T19:12:52.000Z</time>
      </trkpt>
      <trkpt lat="43.31162" lon="-1.38103">
        <ele>96</ele>
        <time>2026-03-09T19:13:03.000Z</time>
      </trkpt>
      <trkpt lat="43.31128" lon="-1.38164">
        <ele>91</ele>
        <time>2026-03-09T19:13:13.000Z</time>
      </trkpt>
      <trkpt lat="43.31082" lon="-1.38199">
        <ele>83</ele>
        <time>2026-03-09T19:13:22.000Z</time>
      </trkpt>
      <trkpt lat="43.31053" lon="-1.38231">
        <ele>80</ele>
        <time>2026-03-09T19:13:29.000Z</time>
      </trkpt>
      <trkpt lat="43.31003" lon="-1.38251">
        <ele>72</ele>
        <time>2026-03-09T19:13:38.000Z</time>
      </trkpt>
      <trkpt lat="43.30965" lon="-1.38257">
        <ele>65</ele>
        <time>2026-03-09T19:13:45.000Z</time>
      </trkpt>
      <trkpt lat="43.30957" lon="-1.38261">
        <ele>64</ele>
        <time>2026-03-09T19:13:46.000Z</time>
      </trkpt>
      <trkpt lat="43.30943" lon="-1.38276">
        <ele>62</ele>
        <time>2026-03-09T19:13:50.000Z</time>
      </trkpt>
      <trkpt lat="43.30919" lon="-1.3831">
        <ele>60</ele>
        <time>2026-03-09T19:13:56.000Z</time>
      </trkpt>
      <trkpt lat="43.3091" lon="-1.38317">
        <ele>60</ele>
        <time>2026-03-09T19:13:58.000Z</time>
      </trkpt>
      <trkpt lat="43.30895" lon="-1.38318">
        <ele>59</ele>
        <time>2026-03-09T19:14:00.000Z</time>
      </trkpt>
      <trkpt lat="43.30887" lon="-1.38315">
        <ele>58</ele>
        <time>2026-03-09T19:14:02.000Z</time>
      </trkpt>
      <trkpt lat="43.30813" lon="-1.38285">
        <ele>62</ele>
        <time>2026-03-09T19:14:15.000Z</time>
      </trkpt>
      <trkpt lat="43.30807" lon="-1.38281">
        <ele>64</ele>
        <time>2026-03-09T19:14:17.000Z</time>
      </trkpt>
      <trkpt lat="43.30803" lon="-1.38272">
        <ele>66</ele>
        <time>2026-03-09T19:14:18.000Z</time>
      </trkpt>
      <trkpt lat="43.30801" lon="-1.38279">
        <ele>66</ele>
        <time>2026-03-09T19:14:19.000Z</time>
      </trkpt>
      <trkpt lat="43.30804" lon="-1.38291">
        <ele>64</ele>
        <time>2026-03-09T19:14:21.000Z</time>
      </trkpt>
      <trkpt lat="43.30817" lon="-1.38328">
        <ele>59</ele>
        <time>2026-03-09T19:14:26.000Z</time>
      </trkpt>
      <trkpt lat="43.30812" lon="-1.38478">
        <ele>60</ele>
        <time>2026-03-09T19:14:45.000Z</time>
      </trkpt>
      <trkpt lat="43.30826" lon="-1.3871">
        <ele>61</ele>
        <time>2026-03-09T19:15:16.000Z</time>
      </trkpt>
      <trkpt lat="43.30841" lon="-1.38797">
        <ele>65</ele>
        <time>2026-03-09T19:15:27.000Z</time>
      </trkpt>
      <trkpt lat="43.30907" lon="-1.38867">
        <ele>64</ele>
        <time>2026-03-09T19:15:42.000Z</time>
      </trkpt>
      <trkpt lat="43.3092" lon="-1.38877">
        <ele>64</ele>
        <time>2026-03-09T19:15:45.000Z</time>
      </trkpt>
      <trkpt lat="43.30942" lon="-1.38874">
        <ele>61</ele>
        <time>2026-03-09T19:15:49.000Z</time>
      </trkpt>
      <trkpt lat="43.30951" lon="-1.38877">
        <ele>60</ele>
        <time>2026-03-09T19:15:50.000Z</time>
      </trkpt>
      <trkpt lat="43.30956" lon="-1.38883">
        <ele>61</ele>
        <time>2026-03-09T19:15:51.000Z</time>
      </trkpt>
      <trkpt lat="43.30964" lon="-1.38908">
        <ele>63</ele>
        <time>2026-03-09T19:15:55.000Z</time>
      </trkpt>
      <trkpt lat="43.30985" lon="-1.38933">
        <ele>63</ele>
        <time>2026-03-09T19:16:00.000Z</time>
      </trkpt>
      <trkpt lat="43.31" lon="-1.38957">
        <ele>63</ele>
        <time>2026-03-09T19:16:04.000Z</time>
      </trkpt>
      <trkpt lat="43.31011" lon="-1.38994">
        <ele>66</ele>
        <time>2026-03-09T19:16:09.000Z</time>
      </trkpt>
      <trkpt lat="43.31014" lon="-1.39017">
        <ele>68</ele>
        <time>2026-03-09T19:16:12.000Z</time>
      </trkpt>
      <trkpt lat="43.31014" lon="-1.39093">
        <ele>76</ele>
        <time>2026-03-09T19:16:22.000Z</time>
      </trkpt>
      <trkpt lat="43.31007" lon="-1.39113">
        <ele>82</ele>
        <time>2026-03-09T19:16:25.000Z</time>
      </trkpt>
      <trkpt lat="43.31015" lon="-1.39188">
        <ele>95</ele>
        <time>2026-03-09T19:16:35.000Z</time>
      </trkpt>
      <trkpt lat="43.31024" lon="-1.39234">
        <ele>100</ele>
        <time>2026-03-09T19:16:41.000Z</time>
      </trkpt>
      <trkpt lat="43.31037" lon="-1.3927">
        <ele>101</ele>
        <time>2026-03-09T19:16:46.000Z</time>
      </trkpt>
      <trkpt lat="43.31057" lon="-1.39318">
        <ele>102</ele>
        <time>2026-03-09T19:16:53.000Z</time>
      </trkpt>
      <trkpt lat="43.31082" lon="-1.39363">
        <ele>100</ele>
        <time>2026-03-09T19:17:01.000Z</time>
      </trkpt>
      <trkpt lat="43.31102" lon="-1.39431">
        <ele>101</ele>
        <time>2026-03-09T19:17:10.000Z</time>
      </trkpt>
      <trkpt lat="43.31109" lon="-1.39447">
        <ele>98</ele>
        <time>2026-03-09T19:17:12.000Z</time>
      </trkpt>
      <trkpt lat="43.31123" lon="-1.39466">
        <ele>92</ele>
        <time>2026-03-09T19:17:16.000Z</time>
      </trkpt>
      <trkpt lat="43.31123" lon="-1.39476">
        <ele>92</ele>
        <time>2026-03-09T19:17:17.000Z</time>
      </trkpt>
      <trkpt lat="43.3111" lon="-1.39525">
        <ele>96</ele>
        <time>2026-03-09T19:17:24.000Z</time>
      </trkpt>
      <trkpt lat="43.31103" lon="-1.39563">
        <ele>98</ele>
        <time>2026-03-09T19:17:29.000Z</time>
      </trkpt>
      <trkpt lat="43.31099" lon="-1.39608">
        <ele>100</ele>
        <time>2026-03-09T19:17:35.000Z</time>
      </trkpt>
      <trkpt lat="43.31101" lon="-1.39649">
        <ele>100</ele>
        <time>2026-03-09T19:17:40.000Z</time>
      </trkpt>
      <trkpt lat="43.31111" lon="-1.39746">
        <ele>97</ele>
        <time>2026-03-09T19:17:53.000Z</time>
      </trkpt>
      <trkpt lat="43.31119" lon="-1.3979">
        <ele>93</ele>
        <time>2026-03-09T19:17:59.000Z</time>
      </trkpt>
      <trkpt lat="43.31149" lon="-1.39872">
        <ele>76</ele>
        <time>2026-03-09T19:18:11.000Z</time>
      </trkpt>
      <trkpt lat="43.31155" lon="-1.39894">
        <ele>74</ele>
        <time>2026-03-09T19:18:14.000Z</time>
      </trkpt>
      <trkpt lat="43.31168" lon="-1.39967">
        <ele>76</ele>
        <time>2026-03-09T19:18:23.000Z</time>
      </trkpt>
      <trkpt lat="43.31171" lon="-1.39977">
        <ele>77</ele>
        <time>2026-03-09T19:18:25.000Z</time>
      </trkpt>
      <trkpt lat="43.31176" lon="-1.39986">
        <ele>77</ele>
        <time>2026-03-09T19:18:26.000Z</time>
      </trkpt>
      <trkpt lat="43.31214" lon="-1.40029">
        <ele>71</ele>
        <time>2026-03-09T19:18:35.000Z</time>
      </trkpt>
      <trkpt lat="43.3123" lon="-1.40044">
        <ele>67</ele>
        <time>2026-03-09T19:18:39.000Z</time>
      </trkpt>
      <trkpt lat="43.31249" lon="-1.40052">
        <ele>61</ele>
        <time>2026-03-09T19:18:42.000Z</time>
      </trkpt>
      <trkpt lat="43.3126" lon="-1.4005">
        <ele>60</ele>
        <time>2026-03-09T19:18:44.000Z</time>
      </trkpt>
      <trkpt lat="43.31272" lon="-1.40042">
        <ele>58</ele>
        <time>2026-03-09T19:18:46.000Z</time>
      </trkpt>
      <trkpt lat="43.31277" lon="-1.40043">
        <ele>58</ele>
        <time>2026-03-09T19:18:47.000Z</time>
      </trkpt>
      <trkpt lat="43.31298" lon="-1.40076">
        <ele>60</ele>
        <time>2026-03-09T19:18:53.000Z</time>
      </trkpt>
      <trkpt lat="43.31315" lon="-1.40112">
        <ele>61</ele>
        <time>2026-03-09T19:18:59.000Z</time>
      </trkpt>
      <trkpt lat="43.3132" lon="-1.40118">
        <ele>61</ele>
        <time>2026-03-09T19:19:00.000Z</time>
      </trkpt>
      <trkpt lat="43.31332" lon="-1.40124">
        <ele>61</ele>
        <time>2026-03-09T19:19:02.000Z</time>
      </trkpt>
      <trkpt lat="43.31335" lon="-1.40125">
        <ele>62</ele>
        <time>2026-03-09T19:19:03.000Z</time>
      </trkpt>
      <trkpt lat="43.31342" lon="-1.40117">
        <ele>63</ele>
        <time>2026-03-09T19:19:04.000Z</time>
      </trkpt>
      <trkpt lat="43.31348" lon="-1.40101">
        <ele>62</ele>
        <time>2026-03-09T19:19:07.000Z</time>
      </trkpt>
      <trkpt lat="43.31349" lon="-1.40077">
        <ele>59</ele>
        <time>2026-03-09T19:19:10.000Z</time>
      </trkpt>
      <trkpt lat="43.31351" lon="-1.40057">
        <ele>57</ele>
        <time>2026-03-09T19:19:12.000Z</time>
      </trkpt>
      <trkpt lat="43.31356" lon="-1.40046">
        <ele>56</ele>
        <time>2026-03-09T19:19:14.000Z</time>
      </trkpt>
      <trkpt lat="43.31367" lon="-1.40033">
        <ele>55</ele>
        <time>2026-03-09T19:19:16.000Z</time>
      </trkpt>
      <trkpt lat="43.31373" lon="-1.40032">
        <ele>56</ele>
        <time>2026-03-09T19:19:18.000Z</time>
      </trkpt>
      <trkpt lat="43.31386" lon="-1.40032">
        <ele>57</ele>
        <time>2026-03-09T19:19:20.000Z</time>
      </trkpt>
      <trkpt lat="43.31392" lon="-1.40034">
        <ele>57</ele>
        <time>2026-03-09T19:19:21.000Z</time>
      </trkpt>
      <trkpt lat="43.31422" lon="-1.40061">
        <ele>63</ele>
        <time>2026-03-09T19:19:27.000Z</time>
      </trkpt>
      <trkpt lat="43.31438" lon="-1.40065">
        <ele>62</ele>
        <time>2026-03-09T19:19:30.000Z</time>
      </trkpt>
      <trkpt lat="43.31441" lon="-1.40075">
        <ele>62</ele>
        <time>2026-03-09T19:19:32.000Z</time>
      </trkpt>
      <trkpt lat="43.31446" lon="-1.40083">
        <ele>61</ele>
        <time>2026-03-09T19:19:33.000Z</time>
      </trkpt>
      <trkpt lat="43.31464" lon="-1.40091">
        <ele>60</ele>
        <time>2026-03-09T19:19:36.000Z</time>
      </trkpt>
      <trkpt lat="43.31472" lon="-1.40111">
        <ele>64</ele>
        <time>2026-03-09T19:19:39.000Z</time>
      </trkpt>
      <trkpt lat="43.31479" lon="-1.40125">
        <ele>65</ele>
        <time>2026-03-09T19:19:42.000Z</time>
      </trkpt>
      <trkpt lat="43.31516" lon="-1.40187">
        <ele>72</ele>
        <time>2026-03-09T19:19:52.000Z</time>
      </trkpt>
      <trkpt lat="43.31565" lon="-1.40255">
        <ele>68</ele>
        <time>2026-03-09T19:20:04.000Z</time>
      </trkpt>
      <trkpt lat="43.31593" lon="-1.40283">
        <ele>66</ele>
        <time>2026-03-09T19:20:10.000Z</time>
      </trkpt>
      <trkpt lat="43.31613" lon="-1.4031">
        <ele>70</ele>
        <time>2026-03-09T19:20:15.000Z</time>
      </trkpt>
      <trkpt lat="43.31631" lon="-1.40327">
        <ele>68</ele>
        <time>2026-03-09T19:20:19.000Z</time>
      </trkpt>
      <trkpt lat="43.31638" lon="-1.40336">
        <ele>68</ele>
        <time>2026-03-09T19:20:21.000Z</time>
      </trkpt>
      <trkpt lat="43.31691" lon="-1.4038">
        <ele>75</ele>
        <time>2026-03-09T19:20:32.000Z</time>
      </trkpt>
      <trkpt lat="43.317" lon="-1.40384">
        <ele>75</ele>
        <time>2026-03-09T19:20:34.000Z</time>
      </trkpt>
      <trkpt lat="43.31748" lon="-1.40392">
        <ele>72</ele>
        <time>2026-03-09T19:20:42.000Z</time>
      </trkpt>
      <trkpt lat="43.3177" lon="-1.40407">
        <ele>71</ele>
        <time>2026-03-09T19:20:47.000Z</time>
      </trkpt>
      <trkpt lat="43.31789" lon="-1.40414">
        <ele>68</ele>
        <time>2026-03-09T19:20:50.000Z</time>
      </trkpt>
      <trkpt lat="43.31814" lon="-1.40415">
        <ele>64</ele>
        <time>2026-03-09T19:20:55.000Z</time>
      </trkpt>
      <trkpt lat="43.31925" lon="-1.40434">
        <ele>59</ele>
        <time>2026-03-09T19:21:15.000Z</time>
      </trkpt>
      <trkpt lat="43.31959" lon="-1.40434">
        <ele>56</ele>
        <time>2026-03-09T19:21:21.000Z</time>
      </trkpt>
      <trkpt lat="43.31994" lon="-1.40449">
        <ele>58</ele>
        <time>2026-03-09T19:21:27.000Z</time>
      </trkpt>
      <trkpt lat="43.32023" lon="-1.40465">
        <ele>59</ele>
        <time>2026-03-09T19:21:33.000Z</time>
      </trkpt>
      <trkpt lat="43.3205" lon="-1.4047">
        <ele>56</ele>
        <time>2026-03-09T19:21:38.000Z</time>
      </trkpt>
      <trkpt lat="43.32078" lon="-1.40478">
        <ele>53</ele>
        <time>2026-03-09T19:21:43.000Z</time>
      </trkpt>
      <trkpt lat="43.32089" lon="-1.40478">
        <ele>51</ele>
        <time>2026-03-09T19:21:45.000Z</time>
      </trkpt>
      <trkpt lat="43.32124" lon="-1.40465">
        <ele>46</ele>
        <time>2026-03-09T19:21:51.000Z</time>
      </trkpt>
      <trkpt lat="43.32137" lon="-1.40465">
        <ele>46</ele>
        <time>2026-03-09T19:21:53.000Z</time>
      </trkpt>
      <trkpt lat="43.32188" lon="-1.40454">
        <ele>43</ele>
        <time>2026-03-09T19:22:03.000Z</time>
      </trkpt>
      <trkpt lat="43.3221" lon="-1.40447">
        <ele>43</ele>
        <time>2026-03-09T19:22:07.000Z</time>
      </trkpt>
      <trkpt lat="43.32239" lon="-1.4041">
        <ele>42</ele>
        <time>2026-03-09T19:22:14.000Z</time>
      </trkpt>
      <trkpt lat="43.32283" lon="-1.40374">
        <ele>41</ele>
        <time>2026-03-09T19:22:23.000Z</time>
      </trkpt>
      <trkpt lat="43.32315" lon="-1.40363">
        <ele>41</ele>
        <time>2026-03-09T19:22:29.000Z</time>
      </trkpt>
      <trkpt lat="43.32382" lon="-1.40366">
        <ele>45</ele>
        <time>2026-03-09T19:22:41.000Z</time>
      </trkpt>
      <trkpt lat="43.32406" lon="-1.40363">
        <ele>46</ele>
        <time>2026-03-09T19:22:45.000Z</time>
      </trkpt>
      <trkpt lat="43.32408" lon="-1.40366">
        <ele>46</ele>
        <time>2026-03-09T19:22:45.000Z</time>
      </trkpt>
      <trkpt lat="43.32431" lon="-1.40369">
        <ele>47</ele>
        <time>2026-03-09T19:22:49.000Z</time>
      </trkpt>
      <trkpt lat="43.32478" lon="-1.40375">
        <ele>48</ele>
        <time>2026-03-09T19:22:58.000Z</time>
      </trkpt>
      <trkpt lat="43.32496" lon="-1.40388">
        <ele>50</ele>
        <time>2026-03-09T19:23:01.000Z</time>
      </trkpt>
      <trkpt lat="43.32509" lon="-1.40407">
        <ele>52</ele>
        <time>2026-03-09T19:23:05.000Z</time>
      </trkpt>
      <trkpt lat="43.32516" lon="-1.40429">
        <ele>53</ele>
        <time>2026-03-09T19:23:08.000Z</time>
      </trkpt>
      <trkpt lat="43.32523" lon="-1.40462">
        <ele>56</ele>
        <time>2026-03-09T19:23:12.000Z</time>
      </trkpt>
      <trkpt lat="43.32527" lon="-1.40468">
        <ele>56</ele>
        <time>2026-03-09T19:23:13.000Z</time>
      </trkpt>
      <trkpt lat="43.32578" lon="-1.40507">
        <ele>61</ele>
        <time>2026-03-09T19:23:24.000Z</time>
      </trkpt>
      <trkpt lat="43.32593" lon="-1.40516">
        <ele>61</ele>
        <time>2026-03-09T19:23:27.000Z</time>
      </trkpt>
      <trkpt lat="43.32601" lon="-1.40519">
        <ele>61</ele>
        <time>2026-03-09T19:23:28.000Z</time>
      </trkpt>
      <trkpt lat="43.32608" lon="-1.40518">
        <ele>60</ele>
        <time>2026-03-09T19:23:29.000Z</time>
      </trkpt>
      <trkpt lat="43.32615" lon="-1.40515">
        <ele>60</ele>
        <time>2026-03-09T19:23:31.000Z</time>
      </trkpt>
      <trkpt lat="43.32648" lon="-1.4046">
        <ele>55</ele>
        <time>2026-03-09T19:23:40.000Z</time>
      </trkpt>
      <trkpt lat="43.32663" lon="-1.40451">
        <ele>55</ele>
        <time>2026-03-09T19:23:43.000Z</time>
      </trkpt>
      <trkpt lat="43.32731" lon="-1.40434">
        <ele>54</ele>
        <time>2026-03-09T19:23:55.000Z</time>
      </trkpt>
      <trkpt lat="43.32744" lon="-1.40432">
        <ele>53</ele>
        <time>2026-03-09T19:23:58.000Z</time>
      </trkpt>
      <trkpt lat="43.32753" lon="-1.40433">
        <ele>54</ele>
        <time>2026-03-09T19:23:59.000Z</time>
      </trkpt>
      <trkpt lat="43.32792" lon="-1.40449">
        <ele>58</ele>
        <time>2026-03-09T19:24:06.000Z</time>
      </trkpt>
      <trkpt lat="43.32818" lon="-1.40449">
        <ele>60</ele>
        <time>2026-03-09T19:24:11.000Z</time>
      </trkpt>
      <trkpt lat="43.32836" lon="-1.40442">
        <ele>62</ele>
        <time>2026-03-09T19:24:14.000Z</time>
      </trkpt>
      <trkpt lat="43.32864" lon="-1.40437">
        <ele>65</ele>
        <time>2026-03-09T19:24:19.000Z</time>
      </trkpt>
      <trkpt lat="43.32877" lon="-1.40451">
        <ele>67</ele>
        <time>2026-03-09T19:24:22.000Z</time>
      </trkpt>
      <trkpt lat="43.32906" lon="-1.40498">
        <ele>71</ele>
        <time>2026-03-09T19:24:30.000Z</time>
      </trkpt>
      <trkpt lat="43.32952" lon="-1.40551">
        <ele>70</ele>
        <time>2026-03-09T19:24:41.000Z</time>
      </trkpt>
      <trkpt lat="43.32989" lon="-1.40603">
        <ele>64</ele>
        <time>2026-03-09T19:24:50.000Z</time>
      </trkpt>
      <trkpt lat="43.33" lon="-1.40626">
        <ele>62</ele>
        <time>2026-03-09T19:24:54.000Z</time>
      </trkpt>
      <trkpt lat="43.33007" lon="-1.40638">
        <ele>62</ele>
        <time>2026-03-09T19:24:56.000Z</time>
      </trkpt>
      <trkpt lat="43.3304" lon="-1.40732">
        <ele>67</ele>
        <time>2026-03-09T19:25:09.000Z</time>
      </trkpt>
      <trkpt lat="43.33043" lon="-1.40738">
        <ele>67</ele>
        <time>2026-03-09T19:25:10.000Z</time>
      </trkpt>
      <trkpt lat="43.33051" lon="-1.40745">
        <ele>68</ele>
        <time>2026-03-09T19:25:12.000Z</time>
      </trkpt>
      <trkpt lat="43.33099" lon="-1.40754">
        <ele>74</ele>
        <time>2026-03-09T19:25:21.000Z</time>
      </trkpt>
      <trkpt lat="43.33187" lon="-1.40787">
        <ele>81</ele>
        <time>2026-03-09T19:25:37.000Z</time>
      </trkpt>
      <trkpt lat="43.33226" lon="-1.40804">
        <ele>82</ele>
        <time>2026-03-09T19:25:44.000Z</time>
      </trkpt>
      <trkpt lat="43.33259" lon="-1.40816">
        <ele>82</ele>
        <time>2026-03-09T19:25:50.000Z</time>
      </trkpt>
      <trkpt lat="43.33267" lon="-1.40815">
        <ele>82</ele>
        <time>2026-03-09T19:25:52.000Z</time>
      </trkpt>
      <trkpt lat="43.33276" lon="-1.40851">
        <ele>83</ele>
        <time>2026-03-09T19:25:57.000Z</time>
      </trkpt>
      <trkpt lat="43.33278" lon="-1.40871">
        <ele>84</ele>
        <time>2026-03-09T19:25:59.000Z</time>
      </trkpt>
      <trkpt lat="43.33274" lon="-1.40881">
        <ele>84</ele>
        <time>2026-03-09T19:26:01.000Z</time>
      </trkpt>
      <trkpt lat="43.33268" lon="-1.40911">
        <ele>86</ele>
        <time>2026-03-09T19:26:05.000Z</time>
      </trkpt>
      <trkpt lat="43.33263" lon="-1.40947">
        <ele>87</ele>
        <time>2026-03-09T19:26:09.000Z</time>
      </trkpt>
      <trkpt lat="43.33266" lon="-1.4109">
        <ele>90</ele>
        <time>2026-03-09T19:26:28.000Z</time>
      </trkpt>
      <trkpt lat="43.33274" lon="-1.41188">
        <ele>93</ele>
        <time>2026-03-09T19:26:41.000Z</time>
      </trkpt>
      <trkpt lat="43.3328" lon="-1.41225">
        <ele>93</ele>
        <time>2026-03-09T19:26:46.000Z</time>
      </trkpt>
      <trkpt lat="43.3328" lon="-1.41251">
        <ele>94</ele>
        <time>2026-03-09T19:26:49.000Z</time>
      </trkpt>
      <trkpt lat="43.33277" lon="-1.41265">
        <ele>93</ele>
        <time>2026-03-09T19:26:51.000Z</time>
      </trkpt>
      <trkpt lat="43.33272" lon="-1.4128">
        <ele>93</ele>
        <time>2026-03-09T19:26:53.000Z</time>
      </trkpt>
      <trkpt lat="43.33243" lon="-1.41322">
        <ele>90</ele>
        <time>2026-03-09T19:27:01.000Z</time>
      </trkpt>
      <trkpt lat="43.33235" lon="-1.41337">
        <ele>88</ele>
        <time>2026-03-09T19:27:03.000Z</time>
      </trkpt>
      <trkpt lat="43.33231" lon="-1.41351">
        <ele>87</ele>
        <time>2026-03-09T19:27:05.000Z</time>
      </trkpt>
      <trkpt lat="43.33227" lon="-1.41368">
        <ele>86</ele>
        <time>2026-03-09T19:27:07.000Z</time>
      </trkpt>
      <trkpt lat="43.33218" lon="-1.41529">
        <ele>88</ele>
        <time>2026-03-09T19:27:28.000Z</time>
      </trkpt>
      <trkpt lat="43.33204" lon="-1.41602">
        <ele>91</ele>
        <time>2026-03-09T19:27:38.000Z</time>
      </trkpt>
      <trkpt lat="43.332" lon="-1.41637">
        <ele>93</ele>
        <time>2026-03-09T19:27:42.000Z</time>
      </trkpt>
      <trkpt lat="43.332" lon="-1.41675">
        <ele>94</ele>
        <time>2026-03-09T19:27:47.000Z</time>
      </trkpt>
      <trkpt lat="43.33202" lon="-1.41691">
        <ele>95</ele>
        <time>2026-03-09T19:27:50.000Z</time>
      </trkpt>
      <trkpt lat="43.33205" lon="-1.41705">
        <ele>95</ele>
        <time>2026-03-09T19:27:51.000Z</time>
      </trkpt>
      <trkpt lat="43.33209" lon="-1.41716">
        <ele>95</ele>
        <time>2026-03-09T19:27:53.000Z</time>
      </trkpt>
      <trkpt lat="43.33219" lon="-1.41732">
        <ele>96</ele>
        <time>2026-03-09T19:27:56.000Z</time>
      </trkpt>
      <trkpt lat="43.33263" lon="-1.41774">
        <ele>98</ele>
        <time>2026-03-09T19:28:05.000Z</time>
      </trkpt>
      <trkpt lat="43.3327" lon="-1.41786">
        <ele>98</ele>
        <time>2026-03-09T19:28:07.000Z</time>
      </trkpt>
      <trkpt lat="43.33272" lon="-1.41797">
        <ele>99</ele>
        <time>2026-03-09T19:28:09.000Z</time>
      </trkpt>
      <trkpt lat="43.33275" lon="-1.41827">
        <ele>100</ele>
        <time>2026-03-09T19:28:13.000Z</time>
      </trkpt>
      <trkpt lat="43.33274" lon="-1.41869">
        <ele>102</ele>
        <time>2026-03-09T19:28:18.000Z</time>
      </trkpt>
      <trkpt lat="43.33265" lon="-1.41922">
        <ele>104</ele>
        <time>2026-03-09T19:28:25.000Z</time>
      </trkpt>
      <trkpt lat="43.33258" lon="-1.41944">
        <ele>103</ele>
        <time>2026-03-09T19:28:28.000Z</time>
      </trkpt>
      <trkpt lat="43.33162" lon="-1.42102">
        <ele>95</ele>
        <time>2026-03-09T19:28:55.000Z</time>
      </trkpt>
      <trkpt lat="43.33155" lon="-1.42124">
        <ele>95</ele>
        <time>2026-03-09T19:28:58.000Z</time>
      </trkpt>
      <trkpt lat="43.33149" lon="-1.42152">
        <ele>96</ele>
        <time>2026-03-09T19:29:02.000Z</time>
      </trkpt>
      <trkpt lat="43.33145" lon="-1.42181">
        <ele>96</ele>
        <time>2026-03-09T19:29:06.000Z</time>
      </trkpt>
      <trkpt lat="43.33145" lon="-1.42202">
        <ele>98</ele>
        <time>2026-03-09T19:29:08.000Z</time>
      </trkpt>
      <trkpt lat="43.33146" lon="-1.42249">
        <ele>100</ele>
        <time>2026-03-09T19:29:14.000Z</time>
      </trkpt>
      <trkpt lat="43.33138" lon="-1.42312">
        <ele>102</ele>
        <time>2026-03-09T19:29:23.000Z</time>
      </trkpt>
      <trkpt lat="43.33137" lon="-1.42425">
        <ele>103</ele>
        <time>2026-03-09T19:29:37.000Z</time>
      </trkpt>
      <trkpt lat="43.33135" lon="-1.4248">
        <ele>102</ele>
        <time>2026-03-09T19:29:44.000Z</time>
      </trkpt>
      <trkpt lat="43.3313" lon="-1.42498">
        <ele>102</ele>
        <time>2026-03-09T19:29:47.000Z</time>
      </trkpt>
      <trkpt lat="43.33108" lon="-1.42541">
        <ele>100</ele>
        <time>2026-03-09T19:29:54.000Z</time>
      </trkpt>
      <trkpt lat="43.331" lon="-1.4256">
        <ele>100</ele>
        <time>2026-03-09T19:29:57.000Z</time>
      </trkpt>
      <trkpt lat="43.33086" lon="-1.42631">
        <ele>104</ele>
        <time>2026-03-09T19:30:06.000Z</time>
      </trkpt>
      <trkpt lat="43.33073" lon="-1.42668">
        <ele>107</ele>
        <time>2026-03-09T19:30:11.000Z</time>
      </trkpt>
      <trkpt lat="43.33056" lon="-1.427">
        <ele>107</ele>
        <time>2026-03-09T19:30:17.000Z</time>
      </trkpt>
      <trkpt lat="43.33047" lon="-1.4271">
        <ele>107</ele>
        <time>2026-03-09T19:30:19.000Z</time>
      </trkpt>
      <trkpt lat="43.33005" lon="-1.42733">
        <ele>102</ele>
        <time>2026-03-09T19:30:27.000Z</time>
      </trkpt>
      <trkpt lat="43.32994" lon="-1.42742">
        <ele>102</ele>
        <time>2026-03-09T19:30:29.000Z</time>
      </trkpt>
      <trkpt lat="43.32985" lon="-1.42757">
        <ele>103</ele>
        <time>2026-03-09T19:30:31.000Z</time>
      </trkpt>
      <trkpt lat="43.3296" lon="-1.4281">
        <ele>105</ele>
        <time>2026-03-09T19:30:40.000Z</time>
      </trkpt>
      <trkpt lat="43.32944" lon="-1.42845">
        <ele>106</ele>
        <time>2026-03-09T19:30:45.000Z</time>
      </trkpt>
      <trkpt lat="43.32927" lon="-1.42874">
        <ele>107</ele>
        <time>2026-03-09T19:30:50.000Z</time>
      </trkpt>
      <trkpt lat="43.32903" lon="-1.42909">
        <ele>108</ele>
        <time>2026-03-09T19:30:56.000Z</time>
      </trkpt>
      <trkpt lat="43.32897" lon="-1.42922">
        <ele>108</ele>
        <time>2026-03-09T19:30:58.000Z</time>
      </trkpt>
      <trkpt lat="43.32893" lon="-1.42942">
        <ele>109</ele>
        <time>2026-03-09T19:31:01.000Z</time>
      </trkpt>
      <trkpt lat="43.32893" lon="-1.43006">
        <ele>111</ele>
        <time>2026-03-09T19:31:09.000Z</time>
      </trkpt>
      <trkpt lat="43.329" lon="-1.43057">
        <ele>113</ele>
        <time>2026-03-09T19:31:16.000Z</time>
      </trkpt>
      <trkpt lat="43.329" lon="-1.43074">
        <ele>114</ele>
        <time>2026-03-09T19:31:18.000Z</time>
      </trkpt>
      <trkpt lat="43.32889" lon="-1.43096">
        <ele>114</ele>
        <time>2026-03-09T19:31:21.000Z</time>
      </trkpt>
      <trkpt lat="43.32871" lon="-1.43121">
        <ele>114</ele>
        <time>2026-03-09T19:31:26.000Z</time>
      </trkpt>
      <trkpt lat="43.32851" lon="-1.43164">
        <ele>113</ele>
        <time>2026-03-09T19:31:32.000Z</time>
      </trkpt>
      <trkpt lat="43.32838" lon="-1.43202">
        <ele>115</ele>
        <time>2026-03-09T19:31:38.000Z</time>
      </trkpt>
      <trkpt lat="43.32822" lon="-1.43333">
        <ele>117</ele>
        <time>2026-03-09T19:31:55.000Z</time>
      </trkpt>
      <trkpt lat="43.32808" lon="-1.4341">
        <ele>120</ele>
        <time>2026-03-09T19:32:05.000Z</time>
      </trkpt>
      <trkpt lat="43.32805" lon="-1.43442">
        <ele>121</ele>
        <time>2026-03-09T19:32:10.000Z</time>
      </trkpt>
      <trkpt lat="43.32809" lon="-1.43471">
        <ele>123</ele>
        <time>2026-03-09T19:32:13.000Z</time>
      </trkpt>
      <trkpt lat="43.3282" lon="-1.43514">
        <ele>125</ele>
        <time>2026-03-09T19:32:19.000Z</time>
      </trkpt>
      <trkpt lat="43.32825" lon="-1.43539">
        <ele>127</ele>
        <time>2026-03-09T19:32:23.000Z</time>
      </trkpt>
      <trkpt lat="43.32827" lon="-1.43572">
        <ele>129</ele>
        <time>2026-03-09T19:32:27.000Z</time>
      </trkpt>
      <trkpt lat="43.32823" lon="-1.43597">
        <ele>131</ele>
        <time>2026-03-09T19:32:30.000Z</time>
      </trkpt>
      <trkpt lat="43.32816" lon="-1.4361">
        <ele>132</ele>
        <time>2026-03-09T19:32:32.000Z</time>
      </trkpt>
      <trkpt lat="43.32773" lon="-1.43645">
        <ele>134</ele>
        <time>2026-03-09T19:32:41.000Z</time>
      </trkpt>
      <trkpt lat="43.32717" lon="-1.43706">
        <ele>134</ele>
        <time>2026-03-09T19:32:54.000Z</time>
      </trkpt>
      <trkpt lat="43.32709" lon="-1.43721">
        <ele>134</ele>
        <time>2026-03-09T19:32:56.000Z</time>
      </trkpt>
      <trkpt lat="43.32697" lon="-1.43765">
        <ele>133</ele>
        <time>2026-03-09T19:33:02.000Z</time>
      </trkpt>
      <trkpt lat="43.32684" lon="-1.43792">
        <ele>130</ele>
        <time>2026-03-09T19:33:07.000Z</time>
      </trkpt>
      <trkpt lat="43.32667" lon="-1.43816">
        <ele>127</ele>
        <time>2026-03-09T19:33:11.000Z</time>
      </trkpt>
      <trkpt lat="43.32601" lon="-1.43873">
        <ele>122</ele>
        <time>2026-03-09T19:33:25.000Z</time>
      </trkpt>
      <trkpt lat="43.32581" lon="-1.43899">
        <ele>119</ele>
        <time>2026-03-09T19:33:30.000Z</time>
      </trkpt>
      <trkpt lat="43.32573" lon="-1.43916">
        <ele>119</ele>
        <time>2026-03-09T19:33:32.000Z</time>
      </trkpt>
      <trkpt lat="43.32566" lon="-1.43939">
        <ele>121</ele>
        <time>2026-03-09T19:33:36.000Z</time>
      </trkpt>
      <trkpt lat="43.32551" lon="-1.44021">
        <ele>123</ele>
        <time>2026-03-09T19:33:46.000Z</time>
      </trkpt>
      <trkpt lat="43.32541" lon="-1.44103">
        <ele>118</ele>
        <time>2026-03-09T19:33:57.000Z</time>
      </trkpt>
      <trkpt lat="43.32519" lon="-1.44179">
        <ele>112</ele>
        <time>2026-03-09T19:34:08.000Z</time>
      </trkpt>
      <trkpt lat="43.32515" lon="-1.44206">
        <ele>110</ele>
        <time>2026-03-09T19:34:11.000Z</time>
      </trkpt>
      <trkpt lat="43.32514" lon="-1.44272">
        <ele>107</ele>
        <time>2026-03-09T19:34:20.000Z</time>
      </trkpt>
      <trkpt lat="43.32508" lon="-1.44299">
        <ele>106</ele>
        <time>2026-03-09T19:34:24.000Z</time>
      </trkpt>
      <trkpt lat="43.325" lon="-1.44321">
        <ele>106</ele>
        <time>2026-03-09T19:34:27.000Z</time>
      </trkpt>
      <trkpt lat="43.32498" lon="-1.44333">
        <ele>106</ele>
        <time>2026-03-09T19:34:28.000Z</time>
      </trkpt>
      <trkpt lat="43.32499" lon="-1.44346">
        <ele>107</ele>
        <time>2026-03-09T19:34:30.000Z</time>
      </trkpt>
      <trkpt lat="43.3253" lon="-1.44437">
        <ele>109</ele>
        <time>2026-03-09T19:34:43.000Z</time>
      </trkpt>
      <trkpt lat="43.3254" lon="-1.44495">
        <ele>109</ele>
        <time>2026-03-09T19:34:51.000Z</time>
      </trkpt>
      <trkpt lat="43.3255" lon="-1.44575">
        <ele>103</ele>
        <time>2026-03-09T19:35:01.000Z</time>
      </trkpt>
      <trkpt lat="43.32591" lon="-1.44759">
        <ele>93</ele>
        <time>2026-03-09T19:35:26.000Z</time>
      </trkpt>
      <trkpt lat="43.32598" lon="-1.44773">
        <ele>97</ele>
        <time>2026-03-09T19:35:28.000Z</time>
      </trkpt>
      <trkpt lat="43.32607" lon="-1.44782">
        <ele>98</ele>
        <time>2026-03-09T19:35:30.000Z</time>
      </trkpt>
      <trkpt lat="43.32654" lon="-1.44801">
        <ele>101</ele>
        <time>2026-03-09T19:35:39.000Z</time>
      </trkpt>
      <trkpt lat="43.32666" lon="-1.4481">
        <ele>101</ele>
        <time>2026-03-09T19:35:42.000Z</time>
      </trkpt>
      <trkpt lat="43.32722" lon="-1.44887">
        <ele>107</ele>
        <time>2026-03-09T19:35:56.000Z</time>
      </trkpt>
      <trkpt lat="43.32751" lon="-1.44909">
        <ele>99</ele>
        <time>2026-03-09T19:36:02.000Z</time>
      </trkpt>
      <trkpt lat="43.32774" lon="-1.44931">
        <ele>102</ele>
        <time>2026-03-09T19:36:07.000Z</time>
      </trkpt>
      <trkpt lat="43.32788" lon="-1.44939">
        <ele>103</ele>
        <time>2026-03-09T19:36:09.000Z</time>
      </trkpt>
      <trkpt lat="43.32803" lon="-1.44942">
        <ele>103</ele>
        <time>2026-03-09T19:36:12.000Z</time>
      </trkpt>
      <trkpt lat="43.32833" lon="-1.44941">
        <ele>99</ele>
        <time>2026-03-09T19:36:17.000Z</time>
      </trkpt>
      <trkpt lat="43.32852" lon="-1.44936">
        <ele>97</ele>
        <time>2026-03-09T19:36:21.000Z</time>
      </trkpt>
      <trkpt lat="43.32876" lon="-1.44923">
        <ele>91</ele>
        <time>2026-03-09T19:36:25.000Z</time>
      </trkpt>
      <trkpt lat="43.32898" lon="-1.44929">
        <ele>92</ele>
        <time>2026-03-09T19:36:29.000Z</time>
      </trkpt>
      <trkpt lat="43.32929" lon="-1.44924">
        <ele>89</ele>
        <time>2026-03-09T19:36:35.000Z</time>
      </trkpt>
      <trkpt lat="43.32988" lon="-1.44939">
        <ele>86</ele>
        <time>2026-03-09T19:36:45.000Z</time>
      </trkpt>
      <trkpt lat="43.33061" lon="-1.44981">
        <ele>89</ele>
        <time>2026-03-09T19:37:00.000Z</time>
      </trkpt>
      <trkpt lat="43.33078" lon="-1.44982">
        <ele>88</ele>
        <time>2026-03-09T19:37:03.000Z</time>
      </trkpt>
      <trkpt lat="43.33095" lon="-1.44975">
        <ele>91</ele>
        <time>2026-03-09T19:37:06.000Z</time>
      </trkpt>
      <trkpt lat="43.33114" lon="-1.44947">
        <ele>94</ele>
        <time>2026-03-09T19:37:11.000Z</time>
      </trkpt>
      <trkpt lat="43.33135" lon="-1.44896">
        <ele>93</ele>
        <time>2026-03-09T19:37:18.000Z</time>
      </trkpt>
      <trkpt lat="43.33148" lon="-1.44813">
        <ele>87</ele>
        <time>2026-03-09T19:37:29.000Z</time>
      </trkpt>
      <trkpt lat="43.33167" lon="-1.44768">
        <ele>89</ele>
        <time>2026-03-09T19:37:36.000Z</time>
      </trkpt>
      <trkpt lat="43.33198" lon="-1.44736">
        <ele>89</ele>
        <time>2026-03-09T19:37:43.000Z</time>
      </trkpt>
      <trkpt lat="43.3326" lon="-1.44726">
        <ele>81</ele>
        <time>2026-03-09T19:37:54.000Z</time>
      </trkpt>
      <trkpt lat="43.33323" lon="-1.44707">
        <ele>79</ele>
        <time>2026-03-09T19:38:06.000Z</time>
      </trkpt>
      <trkpt lat="43.33341" lon="-1.44695">
        <ele>80</ele>
        <time>2026-03-09T19:38:09.000Z</time>
      </trkpt>
      <trkpt lat="43.33358" lon="-1.44672">
        <ele>83</ele>
        <time>2026-03-09T19:38:13.000Z</time>
      </trkpt>
      <trkpt lat="43.33389" lon="-1.44583">
        <ele>81</ele>
        <time>2026-03-09T19:38:26.000Z</time>
      </trkpt>
      <trkpt lat="43.33401" lon="-1.44558">
        <ele>80</ele>
        <time>2026-03-09T19:38:30.000Z</time>
      </trkpt>
      <trkpt lat="43.33413" lon="-1.44543">
        <ele>79</ele>
        <time>2026-03-09T19:38:33.000Z</time>
      </trkpt>
      <trkpt lat="43.33429" lon="-1.44535">
        <ele>78</ele>
        <time>2026-03-09T19:38:36.000Z</time>
      </trkpt>
      <trkpt lat="43.3345" lon="-1.44533">
        <ele>78</ele>
        <time>2026-03-09T19:38:40.000Z</time>
      </trkpt>
      <trkpt lat="43.33472" lon="-1.44539">
        <ele>78</ele>
        <time>2026-03-09T19:38:44.000Z</time>
      </trkpt>
      <trkpt lat="43.33502" lon="-1.44556">
        <ele>80</ele>
        <time>2026-03-09T19:38:49.000Z</time>
      </trkpt>
      <trkpt lat="43.33563" lon="-1.44603">
        <ele>82</ele>
        <time>2026-03-09T19:39:02.000Z</time>
      </trkpt>
      <trkpt lat="43.33584" lon="-1.44614">
        <ele>81</ele>
        <time>2026-03-09T19:39:06.000Z</time>
      </trkpt>
      <trkpt lat="43.33614" lon="-1.44622">
        <ele>81</ele>
        <time>2026-03-09T19:39:11.000Z</time>
      </trkpt>
      <trkpt lat="43.33634" lon="-1.44621">
        <ele>80</ele>
        <time>2026-03-09T19:39:15.000Z</time>
      </trkpt>
      <trkpt lat="43.33657" lon="-1.44618">
        <ele>79</ele>
        <time>2026-03-09T19:39:19.000Z</time>
      </trkpt>
      <trkpt lat="43.33753" lon="-1.44617">
        <ele>78</ele>
        <time>2026-03-09T19:39:36.000Z</time>
      </trkpt>
      <trkpt lat="43.33784" lon="-1.44625">
        <ele>78</ele>
        <time>2026-03-09T19:39:42.000Z</time>
      </trkpt>
      <trkpt lat="43.33809" lon="-1.4464">
        <ele>79</ele>
        <time>2026-03-09T19:39:46.000Z</time>
      </trkpt>
      <trkpt lat="43.33829" lon="-1.4465">
        <ele>79</ele>
        <time>2026-03-09T19:39:50.000Z</time>
      </trkpt>
      <trkpt lat="43.33837" lon="-1.4465">
        <ele>79</ele>
        <time>2026-03-09T19:39:52.000Z</time>
      </trkpt>
      <trkpt lat="43.33843" lon="-1.44657">
        <ele>79</ele>
        <time>2026-03-09T19:39:53.000Z</time>
      </trkpt>
      <trkpt lat="43.33844" lon="-1.44665">
        <ele>79</ele>
        <time>2026-03-09T19:39:54.000Z</time>
      </trkpt>
      <trkpt lat="43.33841" lon="-1.44675">
        <ele>79</ele>
        <time>2026-03-09T19:39:56.000Z</time>
      </trkpt>
      <trkpt lat="43.33836" lon="-1.44705">
        <ele>78</ele>
        <time>2026-03-09T19:40:00.000Z</time>
      </trkpt>
      <trkpt lat="43.33839" lon="-1.44772">
        <ele>76</ele>
        <time>2026-03-09T19:40:08.000Z</time>
      </trkpt>
      <trkpt lat="43.33839" lon="-1.44838">
        <ele>73</ele>
        <time>2026-03-09T19:40:17.000Z</time>
      </trkpt>
      <trkpt lat="43.33842" lon="-1.44857">
        <ele>73</ele>
        <time>2026-03-09T19:40:19.000Z</time>
      </trkpt>
      <trkpt lat="43.33848" lon="-1.44879">
        <ele>73</ele>
        <time>2026-03-09T19:40:22.000Z</time>
      </trkpt>
      <trkpt lat="43.33866" lon="-1.44918">
        <ele>72</ele>
        <time>2026-03-09T19:40:28.000Z</time>
      </trkpt>
      <trkpt lat="43.33984" lon="-1.45122">
        <ele>63</ele>
        <time>2026-03-09T19:41:02.000Z</time>
      </trkpt>
      <trkpt lat="43.33999" lon="-1.45136">
        <ele>62</ele>
        <time>2026-03-09T19:41:05.000Z</time>
      </trkpt>
      <trkpt lat="43.3401" lon="-1.45137">
        <ele>62</ele>
        <time>2026-03-09T19:41:07.000Z</time>
      </trkpt>
      <trkpt lat="43.34015" lon="-1.45144">
        <ele>62</ele>
        <time>2026-03-09T19:41:08.000Z</time>
      </trkpt>
      <trkpt lat="43.34017" lon="-1.45154">
        <ele>61</ele>
        <time>2026-03-09T19:41:10.000Z</time>
      </trkpt>
      <trkpt lat="43.34014" lon="-1.45165">
        <ele>61</ele>
        <time>2026-03-09T19:41:11.000Z</time>
      </trkpt>
      <trkpt lat="43.34006" lon="-1.45172">
        <ele>60</ele>
        <time>2026-03-09T19:41:13.000Z</time>
      </trkpt>
      <trkpt lat="43.33989" lon="-1.45195">
        <ele>60</ele>
        <time>2026-03-09T19:41:17.000Z</time>
      </trkpt>
      <trkpt lat="43.33983" lon="-1.4523">
        <ele>60</ele>
        <time>2026-03-09T19:41:22.000Z</time>
      </trkpt>
      <trkpt lat="43.33973" lon="-1.45255">
        <ele>60</ele>
        <time>2026-03-09T19:41:26.000Z</time>
      </trkpt>
      <trkpt lat="43.33958" lon="-1.45277">
        <ele>60</ele>
        <time>2026-03-09T19:41:30.000Z</time>
      </trkpt>
      <trkpt lat="43.33876" lon="-1.45358">
        <ele>60</ele>
        <time>2026-03-09T19:41:47.000Z</time>
      </trkpt>
      <trkpt lat="43.33858" lon="-1.45379">
        <ele>59</ele>
        <time>2026-03-09T19:41:52.000Z</time>
      </trkpt>
      <trkpt lat="43.33838" lon="-1.45406">
        <ele>59</ele>
        <time>2026-03-09T19:41:57.000Z</time>
      </trkpt>
      <trkpt lat="43.33826" lon="-1.45431">
        <ele>60</ele>
        <time>2026-03-09T19:42:01.000Z</time>
      </trkpt>
      <trkpt lat="43.33792" lon="-1.45523">
        <ele>63</ele>
        <time>2026-03-09T19:42:14.000Z</time>
      </trkpt>
      <trkpt lat="43.33767" lon="-1.45574">
        <ele>62</ele>
        <time>2026-03-09T19:42:22.000Z</time>
      </trkpt>
      <trkpt lat="43.33733" lon="-1.45627">
        <ele>63</ele>
        <time>2026-03-09T19:42:31.000Z</time>
      </trkpt>
      <trkpt lat="43.33573" lon="-1.45862">
        <ele>67</ele>
        <time>2026-03-09T19:43:13.000Z</time>
      </trkpt>
      <trkpt lat="43.33557" lon="-1.45894">
        <ele>67</ele>
        <time>2026-03-09T19:43:18.000Z</time>
      </trkpt>
      <trkpt lat="43.33549" lon="-1.45924">
        <ele>65</ele>
        <time>2026-03-09T19:43:22.000Z</time>
      </trkpt>
      <trkpt lat="43.33546" lon="-1.45957">
        <ele>62</ele>
        <time>2026-03-09T19:43:26.000Z</time>
      </trkpt>
      <trkpt lat="43.33547" lon="-1.45974">
        <ele>61</ele>
        <time>2026-03-09T19:43:28.000Z</time>
      </trkpt>
      <trkpt lat="43.33551" lon="-1.45999">
        <ele>58</ele>
        <time>2026-03-09T19:43:32.000Z</time>
      </trkpt>
      <trkpt lat="43.33557" lon="-1.46026">
        <ele>58</ele>
        <time>2026-03-09T19:43:35.000Z</time>
      </trkpt>
      <trkpt lat="43.33575" lon="-1.46087">
        <ele>57</ele>
        <time>2026-03-09T19:43:44.000Z</time>
      </trkpt>
      <trkpt lat="43.33583" lon="-1.46106">
        <ele>57</ele>
        <time>2026-03-09T19:43:47.000Z</time>
      </trkpt>
      <trkpt lat="43.33623" lon="-1.46179">
        <ele>56</ele>
        <time>2026-03-09T19:43:58.000Z</time>
      </trkpt>
      <trkpt lat="43.33637" lon="-1.46212">
        <ele>56</ele>
        <time>2026-03-09T19:44:03.000Z</time>
      </trkpt>
      <trkpt lat="43.33649" lon="-1.46259">
        <ele>56</ele>
        <time>2026-03-09T19:44:10.000Z</time>
      </trkpt>
      <trkpt lat="43.33698" lon="-1.46555">
        <ele>64</ele>
        <time>2026-03-09T19:44:49.000Z</time>
      </trkpt>
      <trkpt lat="43.33699" lon="-1.46592">
        <ele>64</ele>
        <time>2026-03-09T19:44:54.000Z</time>
      </trkpt>
      <trkpt lat="43.33695" lon="-1.46682">
        <ele>65</ele>
        <time>2026-03-09T19:45:06.000Z</time>
      </trkpt>
      <trkpt lat="43.33697" lon="-1.46717">
        <ele>66</ele>
        <time>2026-03-09T19:45:10.000Z</time>
      </trkpt>
      <trkpt lat="43.33702" lon="-1.46745">
        <ele>66</ele>
        <time>2026-03-09T19:45:14.000Z</time>
      </trkpt>
      <trkpt lat="43.33719" lon="-1.46803">
        <ele>67</ele>
        <time>2026-03-09T19:45:22.000Z</time>
      </trkpt>
      <trkpt lat="43.33729" lon="-1.46825">
        <ele>67</ele>
        <time>2026-03-09T19:45:25.000Z</time>
      </trkpt>
      <trkpt lat="43.3374" lon="-1.46847">
        <ele>67</ele>
        <time>2026-03-09T19:45:29.000Z</time>
      </trkpt>
      <trkpt lat="43.33765" lon="-1.46879">
        <ele>67</ele>
        <time>2026-03-09T19:45:35.000Z</time>
      </trkpt>
      <trkpt lat="43.33788" lon="-1.46898">
        <ele>67</ele>
        <time>2026-03-09T19:45:40.000Z</time>
      </trkpt>
      <trkpt lat="43.33876" lon="-1.46955">
        <ele>65</ele>
        <time>2026-03-09T19:45:57.000Z</time>
      </trkpt>
      <trkpt lat="43.33897" lon="-1.46973">
        <ele>64</ele>
        <time>2026-03-09T19:46:01.000Z</time>
      </trkpt>
      <trkpt lat="43.3396" lon="-1.47043">
        <ele>63</ele>
        <time>2026-03-09T19:46:16.000Z</time>
      </trkpt>
      <trkpt lat="43.33978" lon="-1.47069">
        <ele>64</ele>
        <time>2026-03-09T19:46:20.000Z</time>
      </trkpt>
      <trkpt lat="43.34043" lon="-1.47206">
        <ele>65</ele>
        <time>2026-03-09T19:46:42.000Z</time>
      </trkpt>
      <trkpt lat="43.34061" lon="-1.47249">
        <ele>65</ele>
        <time>2026-03-09T19:46:48.000Z</time>
      </trkpt>
      <trkpt lat="43.34074" lon="-1.47266">
        <ele>63</ele>
        <time>2026-03-09T19:46:51.000Z</time>
      </trkpt>
      <trkpt lat="43.3408" lon="-1.47267">
        <ele>62</ele>
        <time>2026-03-09T19:46:52.000Z</time>
      </trkpt>
      <trkpt lat="43.34084" lon="-1.47269">
        <ele>62</ele>
        <time>2026-03-09T19:46:53.000Z</time>
      </trkpt>
      <trkpt lat="43.34088" lon="-1.47277">
        <ele>62</ele>
        <time>2026-03-09T19:46:54.000Z</time>
      </trkpt>
      <trkpt lat="43.34088" lon="-1.47291">
        <ele>63</ele>
        <time>2026-03-09T19:46:56.000Z</time>
      </trkpt>
      <trkpt lat="43.34082" lon="-1.473">
        <ele>64</ele>
        <time>2026-03-09T19:46:58.000Z</time>
      </trkpt>
      <trkpt lat="43.34079" lon="-1.47302">
        <ele>64</ele>
        <time>2026-03-09T19:46:58.000Z</time>
      </trkpt>
      <trkpt lat="43.34071" lon="-1.47314">
        <ele>66</ele>
        <time>2026-03-09T19:47:00.000Z</time>
      </trkpt>
      <trkpt lat="43.3407" lon="-1.47328">
        <ele>67</ele>
        <time>2026-03-09T19:47:02.000Z</time>
      </trkpt>
      <trkpt lat="43.3408" lon="-1.47417">
        <ele>66</ele>
        <time>2026-03-09T19:47:14.000Z</time>
      </trkpt>
      <trkpt lat="43.34086" lon="-1.47446">
        <ele>64</ele>
        <time>2026-03-09T19:47:18.000Z</time>
      </trkpt>
      <trkpt lat="43.34088" lon="-1.47467">
        <ele>64</ele>
        <time>2026-03-09T19:47:20.000Z</time>
      </trkpt>
      <trkpt lat="43.34085" lon="-1.47515">
        <ele>64</ele>
        <time>2026-03-09T19:47:27.000Z</time>
      </trkpt>
      <trkpt lat="43.34087" lon="-1.47523">
        <ele>65</ele>
        <time>2026-03-09T19:47:28.000Z</time>
      </trkpt>
      <trkpt lat="43.34089" lon="-1.47535">
        <ele>65</ele>
        <time>2026-03-09T19:47:29.000Z</time>
      </trkpt>
      <trkpt lat="43.34086" lon="-1.47543">
        <ele>66</ele>
        <time>2026-03-09T19:47:31.000Z</time>
      </trkpt>
      <trkpt lat="43.3408" lon="-1.47547">
        <ele>66</ele>
        <time>2026-03-09T19:47:32.000Z</time>
      </trkpt>
      <trkpt lat="43.34042" lon="-1.47604">
        <ele>68</ele>
        <time>2026-03-09T19:47:42.000Z</time>
      </trkpt>
      <trkpt lat="43.34031" lon="-1.47624">
        <ele>68</ele>
        <time>2026-03-09T19:47:45.000Z</time>
      </trkpt>
      <trkpt lat="43.34002" lon="-1.47662">
        <ele>67</ele>
        <time>2026-03-09T19:47:52.000Z</time>
      </trkpt>
      <trkpt lat="43.33969" lon="-1.47701">
        <ele>68</ele>
        <time>2026-03-09T19:48:00.000Z</time>
      </trkpt>
      <trkpt lat="43.33946" lon="-1.47725">
        <ele>67</ele>
        <time>2026-03-09T19:48:05.000Z</time>
      </trkpt>
      <trkpt lat="43.33921" lon="-1.47742">
        <ele>65</ele>
        <time>2026-03-09T19:48:10.000Z</time>
      </trkpt>
      <trkpt lat="43.33898" lon="-1.47752">
        <ele>65</ele>
        <time>2026-03-09T19:48:14.000Z</time>
      </trkpt>
      <trkpt lat="43.33885" lon="-1.47757">
        <ele>65</ele>
        <time>2026-03-09T19:48:17.000Z</time>
      </trkpt>
      <trkpt lat="43.33845" lon="-1.47758">
        <ele>65</ele>
        <time>2026-03-09T19:48:24.000Z</time>
      </trkpt>
      <trkpt lat="43.33815" lon="-1.47753">
        <ele>66</ele>
        <time>2026-03-09T19:48:29.000Z</time>
      </trkpt>
      <trkpt lat="43.33732" lon="-1.47729">
        <ele>68</ele>
        <time>2026-03-09T19:48:44.000Z</time>
      </trkpt>
      <trkpt lat="43.33717" lon="-1.47729">
        <ele>68</ele>
        <time>2026-03-09T19:48:47.000Z</time>
      </trkpt>
      <trkpt lat="43.33696" lon="-1.47733">
        <ele>69</ele>
        <time>2026-03-09T19:48:51.000Z</time>
      </trkpt>
      <trkpt lat="43.33678" lon="-1.4774">
        <ele>70</ele>
        <time>2026-03-09T19:48:54.000Z</time>
      </trkpt>
      <trkpt lat="43.33662" lon="-1.47753">
        <ele>71</ele>
        <time>2026-03-09T19:48:57.000Z</time>
      </trkpt>
      <trkpt lat="43.33649" lon="-1.47767">
        <ele>72</ele>
        <time>2026-03-09T19:49:00.000Z</time>
      </trkpt>
      <trkpt lat="43.33636" lon="-1.47788">
        <ele>73</ele>
        <time>2026-03-09T19:49:04.000Z</time>
      </trkpt>
      <trkpt lat="43.3363" lon="-1.47802">
        <ele>74</ele>
        <time>2026-03-09T19:49:06.000Z</time>
      </trkpt>
      <trkpt lat="43.33623" lon="-1.47822">
        <ele>74</ele>
        <time>2026-03-09T19:49:09.000Z</time>
      </trkpt>
      <trkpt lat="43.33619" lon="-1.47846">
        <ele>75</ele>
        <time>2026-03-09T19:49:12.000Z</time>
      </trkpt>
      <trkpt lat="43.33574" lon="-1.48188">
        <ele>94</ele>
        <time>2026-03-09T19:49:57.000Z</time>
      </trkpt>
      <trkpt lat="43.33562" lon="-1.48253">
        <ele>96</ele>
        <time>2026-03-09T19:50:06.000Z</time>
      </trkpt>
      <trkpt lat="43.3355" lon="-1.48289">
        <ele>98</ele>
        <time>2026-03-09T19:50:11.000Z</time>
      </trkpt>
      <trkpt lat="43.33532" lon="-1.48328">
        <ele>98</ele>
        <time>2026-03-09T19:50:17.000Z</time>
      </trkpt>
      <trkpt lat="43.33476" lon="-1.4843">
        <ele>103</ele>
        <time>2026-03-09T19:50:33.000Z</time>
      </trkpt>
      <trkpt lat="43.33458" lon="-1.48476">
        <ele>106</ele>
        <time>2026-03-09T19:50:40.000Z</time>
      </trkpt>
      <trkpt lat="43.3345" lon="-1.48502">
        <ele>107</ele>
        <time>2026-03-09T19:50:44.000Z</time>
      </trkpt>
      <trkpt lat="43.33436" lon="-1.48594">
        <ele>111</ele>
        <time>2026-03-09T19:50:56.000Z</time>
      </trkpt>
      <trkpt lat="43.3343" lon="-1.48616">
        <ele>111</ele>
        <time>2026-03-09T19:50:59.000Z</time>
      </trkpt>
      <trkpt lat="43.33422" lon="-1.48636">
        <ele>110</ele>
        <time>2026-03-09T19:51:02.000Z</time>
      </trkpt>
      <trkpt lat="43.33412" lon="-1.48655">
        <ele>110</ele>
        <time>2026-03-09T19:51:05.000Z</time>
      </trkpt>
      <trkpt lat="43.334" lon="-1.48674">
        <ele>111</ele>
        <time>2026-03-09T19:51:08.000Z</time>
      </trkpt>
      <trkpt lat="43.3336" lon="-1.48717">
        <ele>114</ele>
        <time>2026-03-09T19:51:17.000Z</time>
      </trkpt>
      <trkpt lat="43.33343" lon="-1.48738">
        <ele>117</ele>
        <time>2026-03-09T19:51:21.000Z</time>
      </trkpt>
      <trkpt lat="43.33316" lon="-1.48784">
        <ele>120</ele>
        <time>2026-03-09T19:51:29.000Z</time>
      </trkpt>
      <trkpt lat="43.33301" lon="-1.48815">
        <ele>121</ele>
        <time>2026-03-09T19:51:34.000Z</time>
      </trkpt>
      <trkpt lat="43.33289" lon="-1.48848">
        <ele>122</ele>
        <time>2026-03-09T19:51:39.000Z</time>
      </trkpt>
      <trkpt lat="43.33285" lon="-1.48866">
        <ele>122</ele>
        <time>2026-03-09T19:51:41.000Z</time>
      </trkpt>
      <trkpt lat="43.33283" lon="-1.48892">
        <ele>122</ele>
        <time>2026-03-09T19:51:44.000Z</time>
      </trkpt>
      <trkpt lat="43.33289" lon="-1.48926">
        <ele>123</ele>
        <time>2026-03-09T19:51:49.000Z</time>
      </trkpt>
      <trkpt lat="43.33291" lon="-1.48929">
        <ele>123</ele>
        <time>2026-03-09T19:51:49.000Z</time>
      </trkpt>
      <trkpt lat="43.33293" lon="-1.48939">
        <ele>124</ele>
        <time>2026-03-09T19:51:51.000Z</time>
      </trkpt>
      <trkpt lat="43.33291" lon="-1.48946">
        <ele>124</ele>
        <time>2026-03-09T19:51:52.000Z</time>
      </trkpt>
      <trkpt lat="43.33294" lon="-1.48966">
        <ele>124</ele>
        <time>2026-03-09T19:51:54.000Z</time>
      </trkpt>
      <trkpt lat="43.33304" lon="-1.48993">
        <ele>124</ele>
        <time>2026-03-09T19:51:58.000Z</time>
      </trkpt>
      <trkpt lat="43.33309" lon="-1.49012">
        <ele>122</ele>
        <time>2026-03-09T19:52:01.000Z</time>
      </trkpt>
      <trkpt lat="43.33314" lon="-1.49049">
        <ele>120</ele>
        <time>2026-03-09T19:52:06.000Z</time>
      </trkpt>
      <trkpt lat="43.33336" lon="-1.49374">
        <ele>105</ele>
        <time>2026-03-09T19:52:48.000Z</time>
      </trkpt>
      <trkpt lat="43.33338" lon="-1.49433">
        <ele>104</ele>
        <time>2026-03-09T19:52:56.000Z</time>
      </trkpt>
      <trkpt lat="43.33336" lon="-1.49514">
        <ele>105</ele>
        <time>2026-03-09T19:53:06.000Z</time>
      </trkpt>
      <trkpt lat="43.33314" lon="-1.49693">
        <ele>96</ele>
        <time>2026-03-09T19:53:30.000Z</time>
      </trkpt>
      <trkpt lat="43.33312" lon="-1.49747">
        <ele>94</ele>
        <time>2026-03-09T19:53:37.000Z</time>
      </trkpt>
      <trkpt lat="43.33313" lon="-1.49796">
        <ele>93</ele>
        <time>2026-03-09T19:53:43.000Z</time>
      </trkpt>
      <trkpt lat="43.3332" lon="-1.49838">
        <ele>92</ele>
        <time>2026-03-09T19:53:49.000Z</time>
      </trkpt>
      <trkpt lat="43.33329" lon="-1.4987">
        <ele>89</ele>
        <time>2026-03-09T19:53:53.000Z</time>
      </trkpt>
      <trkpt lat="43.3346" lon="-1.50244">
        <ele>77</ele>
        <time>2026-03-09T19:54:47.000Z</time>
      </trkpt>
      <trkpt lat="43.33479" lon="-1.50283">
        <ele>76</ele>
        <time>2026-03-09T19:54:53.000Z</time>
      </trkpt>
      <trkpt lat="43.33498" lon="-1.50311">
        <ele>75</ele>
        <time>2026-03-09T19:54:58.000Z</time>
      </trkpt>
      <trkpt lat="43.33551" lon="-1.50375">
        <ele>76</ele>
        <time>2026-03-09T19:55:10.000Z</time>
      </trkpt>
      <trkpt lat="43.33579" lon="-1.50425">
        <ele>74</ele>
        <time>2026-03-09T19:55:18.000Z</time>
      </trkpt>
      <trkpt lat="43.33599" lon="-1.50474">
        <ele>76</ele>
        <time>2026-03-09T19:55:26.000Z</time>
      </trkpt>
      <trkpt lat="43.33612" lon="-1.50548">
        <ele>76</ele>
        <time>2026-03-09T19:55:36.000Z</time>
      </trkpt>
      <trkpt lat="43.33612" lon="-1.5057">
        <ele>76</ele>
        <time>2026-03-09T19:55:38.000Z</time>
      </trkpt>
      <trkpt lat="43.33594" lon="-1.50663">
        <ele>70</ele>
        <time>2026-03-09T19:55:51.000Z</time>
      </trkpt>
      <trkpt lat="43.33588" lon="-1.50703">
        <ele>65</ele>
        <time>2026-03-09T19:55:56.000Z</time>
      </trkpt>
      <trkpt lat="43.33586" lon="-1.50738">
        <ele>62</ele>
        <time>2026-03-09T19:56:01.000Z</time>
      </trkpt>
      <trkpt lat="43.33589" lon="-1.5077">
        <ele>60</ele>
        <time>2026-03-09T19:56:05.000Z</time>
      </trkpt>
      <trkpt lat="43.3363" lon="-1.51094">
        <ele>53</ele>
        <time>2026-03-09T19:56:47.000Z</time>
      </trkpt>
      <trkpt lat="43.33637" lon="-1.51133">
        <ele>52</ele>
        <time>2026-03-09T19:56:53.000Z</time>
      </trkpt>
      <trkpt lat="43.33643" lon="-1.51157">
        <ele>52</ele>
        <time>2026-03-09T19:56:56.000Z</time>
      </trkpt>
      <trkpt lat="43.33747" lon="-1.51498">
        <ele>47</ele>
        <time>2026-03-09T19:57:44.000Z</time>
      </trkpt>
      <trkpt lat="43.33772" lon="-1.51561">
        <ele>47</ele>
        <time>2026-03-09T19:57:53.000Z</time>
      </trkpt>
      <trkpt lat="43.33834" lon="-1.51711">
        <ele>44</ele>
        <time>2026-03-09T19:58:15.000Z</time>
      </trkpt>
      <trkpt lat="43.34149" lon="-1.52453">
        <ele>42</ele>
        <time>2026-03-09T20:00:07.000Z</time>
      </trkpt>
      <trkpt lat="43.34166" lon="-1.52489">
        <ele>41</ele>
        <time>2026-03-09T20:00:12.000Z</time>
      </trkpt>
      <trkpt lat="43.34244" lon="-1.52614">
        <ele>41</ele>
        <time>2026-03-09T20:00:33.000Z</time>
      </trkpt>
      <trkpt lat="43.3431" lon="-1.52726">
        <ele>38</ele>
        <time>2026-03-09T20:00:52.000Z</time>
      </trkpt>
      <trkpt lat="43.34316" lon="-1.52737">
        <ele>37</ele>
        <time>2026-03-09T20:00:54.000Z</time>
      </trkpt>
      <trkpt lat="43.34321" lon="-1.52745">
        <ele>36</ele>
        <time>2026-03-09T20:00:55.000Z</time>
      </trkpt>
      <trkpt lat="43.34332" lon="-1.52757">
        <ele>35</ele>
        <time>2026-03-09T20:00:58.000Z</time>
      </trkpt>
      <trkpt lat="43.34343" lon="-1.52758">
        <ele>35</ele>
        <time>2026-03-09T20:01:00.000Z</time>
      </trkpt>
      <trkpt lat="43.34352" lon="-1.52768">
        <ele>35</ele>
        <time>2026-03-09T20:01:02.000Z</time>
      </trkpt>
      <trkpt lat="43.34354" lon="-1.52781">
        <ele>35</ele>
        <time>2026-03-09T20:01:03.000Z</time>
      </trkpt>
      <trkpt lat="43.34352" lon="-1.52792">
        <ele>35</ele>
        <time>2026-03-09T20:01:05.000Z</time>
      </trkpt>
      <trkpt lat="43.34359" lon="-1.52813">
        <ele>35</ele>
        <time>2026-03-09T20:01:08.000Z</time>
      </trkpt>
      <trkpt lat="43.34431" lon="-1.52938">
        <ele>36</ele>
        <time>2026-03-09T20:01:29.000Z</time>
      </trkpt>
      <trkpt lat="43.34439" lon="-1.5296">
        <ele>36</ele>
        <time>2026-03-09T20:01:32.000Z</time>
      </trkpt>
      <trkpt lat="43.34451" lon="-1.53016">
        <ele>38</ele>
        <time>2026-03-09T20:01:39.000Z</time>
      </trkpt>
      <trkpt lat="43.34461" lon="-1.53096">
        <ele>41</ele>
        <time>2026-03-09T20:01:50.000Z</time>
      </trkpt>
      <trkpt lat="43.34488" lon="-1.53413">
        <ele>43</ele>
        <time>2026-03-09T20:02:31.000Z</time>
      </trkpt>
      <trkpt lat="43.34523" lon="-1.53674">
        <ele>39</ele>
        <time>2026-03-09T20:03:05.000Z</time>
      </trkpt>
      <trkpt lat="43.34531" lon="-1.53721">
        <ele>38</ele>
        <time>2026-03-09T20:03:12.000Z</time>
      </trkpt>
      <trkpt lat="43.34557" lon="-1.53827">
        <ele>38</ele>
        <time>2026-03-09T20:03:26.000Z</time>
      </trkpt>
      <trkpt lat="43.34564" lon="-1.53862">
        <ele>37</ele>
        <time>2026-03-09T20:03:31.000Z</time>
      </trkpt>
      <trkpt lat="43.34567" lon="-1.53905">
        <ele>35</ele>
        <time>2026-03-09T20:03:36.000Z</time>
      </trkpt>
      <trkpt lat="43.34568" lon="-1.53959">
        <ele>34</ele>
        <time>2026-03-09T20:03:43.000Z</time>
      </trkpt>
      <trkpt lat="43.34572" lon="-1.53997">
        <ele>34</ele>
        <time>2026-03-09T20:03:48.000Z</time>
      </trkpt>
      <trkpt lat="43.34579" lon="-1.54025">
        <ele>34</ele>
        <time>2026-03-09T20:03:52.000Z</time>
      </trkpt>
      <trkpt lat="43.3459" lon="-1.54058">
        <ele>34</ele>
        <time>2026-03-09T20:03:57.000Z</time>
      </trkpt>
      <trkpt lat="43.34639" lon="-1.54155">
        <ele>37</ele>
        <time>2026-03-09T20:04:12.000Z</time>
      </trkpt>
      <trkpt lat="43.3465" lon="-1.54178">
        <ele>38</ele>
        <time>2026-03-09T20:04:16.000Z</time>
      </trkpt>
      <trkpt lat="43.34661" lon="-1.5421">
        <ele>37</ele>
        <time>2026-03-09T20:04:20.000Z</time>
      </trkpt>
      <trkpt lat="43.34667" lon="-1.54235">
        <ele>36</ele>
        <time>2026-03-09T20:04:24.000Z</time>
      </trkpt>
      <trkpt lat="43.34673" lon="-1.54279">
        <ele>35</ele>
        <time>2026-03-09T20:04:30.000Z</time>
      </trkpt>
      <trkpt lat="43.34674" lon="-1.54364">
        <ele>32</ele>
        <time>2026-03-09T20:04:41.000Z</time>
      </trkpt>
      <trkpt lat="43.34678" lon="-1.54431">
        <ele>30</ele>
        <time>2026-03-09T20:04:49.000Z</time>
      </trkpt>
      <trkpt lat="43.3468" lon="-1.5445">
        <ele>29</ele>
        <time>2026-03-09T20:04:52.000Z</time>
      </trkpt>
      <trkpt lat="43.34688" lon="-1.54483">
        <ele>28</ele>
        <time>2026-03-09T20:04:56.000Z</time>
      </trkpt>
      <trkpt lat="43.347" lon="-1.54509">
        <ele>28</ele>
        <time>2026-03-09T20:05:00.000Z</time>
      </trkpt>
      <trkpt lat="43.34869" lon="-1.54775">
        <ele>25</ele>
        <time>2026-03-09T20:05:46.000Z</time>
      </trkpt>
      <trkpt lat="43.34888" lon="-1.548">
        <ele>25</ele>
        <time>2026-03-09T20:05:51.000Z</time>
      </trkpt>
      <trkpt lat="43.34909" lon="-1.54821">
        <ele>24</ele>
        <time>2026-03-09T20:05:55.000Z</time>
      </trkpt>
      <trkpt lat="43.34941" lon="-1.54841">
        <ele>23</ele>
        <time>2026-03-09T20:06:01.000Z</time>
      </trkpt>
      <trkpt lat="43.35076" lon="-1.54912">
        <ele>20</ele>
        <time>2026-03-09T20:06:27.000Z</time>
      </trkpt>
      <trkpt lat="43.35106" lon="-1.54935">
        <ele>19</ele>
        <time>2026-03-09T20:06:33.000Z</time>
      </trkpt>
      <trkpt lat="43.35113" lon="-1.54934">
        <ele>19</ele>
        <time>2026-03-09T20:06:35.000Z</time>
      </trkpt>
      <trkpt lat="43.3512" lon="-1.54937">
        <ele>19</ele>
        <time>2026-03-09T20:06:36.000Z</time>
      </trkpt>
      <trkpt lat="43.35125" lon="-1.54942">
        <ele>19</ele>
        <time>2026-03-09T20:06:37.000Z</time>
      </trkpt>
      <trkpt lat="43.35132" lon="-1.54956">
        <ele>18</ele>
        <time>2026-03-09T20:06:39.000Z</time>
      </trkpt>
      <trkpt lat="43.35133" lon="-1.54964">
        <ele>18</ele>
        <time>2026-03-09T20:06:40.000Z</time>
      </trkpt>
      <trkpt lat="43.35132" lon="-1.54974">
        <ele>18</ele>
        <time>2026-03-09T20:06:42.000Z</time>
      </trkpt>
      <trkpt lat="43.35128" lon="-1.54983">
        <ele>18</ele>
        <time>2026-03-09T20:06:43.000Z</time>
      </trkpt>
      <trkpt lat="43.35123" lon="-1.5499">
        <ele>18</ele>
        <time>2026-03-09T20:06:44.000Z</time>
      </trkpt>
      <trkpt lat="43.35211" lon="-1.55188">
        <ele>16</ele>
        <time>2026-03-09T20:07:14.000Z</time>
      </trkpt>
      <trkpt lat="43.35241" lon="-1.55255">
        <ele>17</ele>
        <time>2026-03-09T20:07:24.000Z</time>
      </trkpt>
      <trkpt lat="43.35261" lon="-1.55301">
        <ele>17</ele>
        <time>2026-03-09T20:07:31.000Z</time>
      </trkpt>
      <trkpt lat="43.35274" lon="-1.55324">
        <ele>18</ele>
        <time>2026-03-09T20:07:35.000Z</time>
      </trkpt>
      <trkpt lat="43.35293" lon="-1.55347">
        <ele>17</ele>
        <time>2026-03-09T20:07:40.000Z</time>
      </trkpt>
      <trkpt lat="43.35313" lon="-1.55363">
        <ele>17</ele>
        <time>2026-03-09T20:07:44.000Z</time>
      </trkpt>
      <trkpt lat="43.35338" lon="-1.55377">
        <ele>16</ele>
        <time>2026-03-09T20:07:49.000Z</time>
      </trkpt>
      <trkpt lat="43.35369" lon="-1.55382">
        <ele>16</ele>
        <time>2026-03-09T20:07:54.000Z</time>
      </trkpt>
      <trkpt lat="43.35398" lon="-1.5538">
        <ele>16</ele>
        <time>2026-03-09T20:07:59.000Z</time>
      </trkpt>
      <trkpt lat="43.35456" lon="-1.55371">
        <ele>16</ele>
        <time>2026-03-09T20:08:10.000Z</time>
      </trkpt>
      <trkpt lat="43.35483" lon="-1.5537">
        <ele>16</ele>
        <time>2026-03-09T20:08:14.000Z</time>
      </trkpt>
      <trkpt lat="43.35496" lon="-1.55373">
        <ele>16</ele>
        <time>2026-03-09T20:08:17.000Z</time>
      </trkpt>
      <trkpt lat="43.35509" lon="-1.55378">
        <ele>16</ele>
        <time>2026-03-09T20:08:19.000Z</time>
      </trkpt>
      <trkpt lat="43.35523" lon="-1.55388">
        <ele>16</ele>
        <time>2026-03-09T20:08:22.000Z</time>
      </trkpt>
      <trkpt lat="43.35548" lon="-1.55396">
        <ele>16</ele>
        <time>2026-03-09T20:08:27.000Z</time>
      </trkpt>
      <trkpt lat="43.35554" lon="-1.55395">
        <ele>16</ele>
        <time>2026-03-09T20:08:28.000Z</time>
      </trkpt>
      <trkpt lat="43.35561" lon="-1.554">
        <ele>16</ele>
        <time>2026-03-09T20:08:29.000Z</time>
      </trkpt>
      <trkpt lat="43.35565" lon="-1.55409">
        <ele>16</ele>
        <time>2026-03-09T20:08:30.000Z</time>
      </trkpt>
      <trkpt lat="43.35564" lon="-1.55422">
        <ele>16</ele>
        <time>2026-03-09T20:08:32.000Z</time>
      </trkpt>
      <trkpt lat="43.35575" lon="-1.55466">
        <ele>14</ele>
        <time>2026-03-09T20:08:38.000Z</time>
      </trkpt>
      <trkpt lat="43.35579" lon="-1.55487">
        <ele>14</ele>
        <time>2026-03-09T20:08:41.000Z</time>
      </trkpt>
      <trkpt lat="43.35581" lon="-1.55514">
        <ele>13</ele>
        <time>2026-03-09T20:08:44.000Z</time>
      </trkpt>
      <trkpt lat="43.35585" lon="-1.55731">
        <ele>16</ele>
        <time>2026-03-09T20:09:12.000Z</time>
      </trkpt>
      <trkpt lat="43.35588" lon="-1.55791">
        <ele>16</ele>
        <time>2026-03-09T20:09:20.000Z</time>
      </trkpt>
      <trkpt lat="43.35592" lon="-1.55814">
        <ele>15</ele>
        <time>2026-03-09T20:09:23.000Z</time>
      </trkpt>
      <trkpt lat="43.35606" lon="-1.55857">
        <ele>15</ele>
        <time>2026-03-09T20:09:29.000Z</time>
      </trkpt>
      <trkpt lat="43.35632" lon="-1.55899">
        <ele>15</ele>
        <time>2026-03-09T20:09:37.000Z</time>
      </trkpt>
      <trkpt lat="43.35646" lon="-1.55913">
        <ele>16</ele>
        <time>2026-03-09T20:09:40.000Z</time>
      </trkpt>
      <trkpt lat="43.35682" lon="-1.55941">
        <ele>16</ele>
        <time>2026-03-09T20:09:47.000Z</time>
      </trkpt>
      <trkpt lat="43.35718" lon="-1.5597">
        <ele>16</ele>
        <time>2026-03-09T20:09:54.000Z</time>
      </trkpt>
      <trkpt lat="43.35741" lon="-1.55983">
        <ele>17</ele>
        <time>2026-03-09T20:09:59.000Z</time>
      </trkpt>
      <trkpt lat="43.35745" lon="-1.55978">
        <ele>17</ele>
        <time>2026-03-09T20:10:00.000Z</time>
      </trkpt>
      <trkpt lat="43.35751" lon="-1.55976">
        <ele>17</ele>
        <time>2026-03-09T20:10:01.000Z</time>
      </trkpt>
      <trkpt lat="43.35756" lon="-1.55977">
        <ele>17</ele>
        <time>2026-03-09T20:10:02.000Z</time>
      </trkpt>
      <trkpt lat="43.35762" lon="-1.55982">
        <ele>18</ele>
        <time>2026-03-09T20:10:03.000Z</time>
      </trkpt>
      <trkpt lat="43.35766" lon="-1.55989">
        <ele>18</ele>
        <time>2026-03-09T20:10:04.000Z</time>
      </trkpt>
      <trkpt lat="43.35767" lon="-1.55997">
        <ele>18</ele>
        <time>2026-03-09T20:10:05.000Z</time>
      </trkpt>
      <trkpt lat="43.35764" lon="-1.56008">
        <ele>19</ele>
        <time>2026-03-09T20:10:07.000Z</time>
      </trkpt>
      <trkpt lat="43.3576" lon="-1.56015">
        <ele>19</ele>
        <time>2026-03-09T20:10:08.000Z</time>
      </trkpt>
      <trkpt lat="43.35753" lon="-1.56017">
        <ele>19</ele>
        <time>2026-03-09T20:10:09.000Z</time>
      </trkpt>
      <trkpt lat="43.35747" lon="-1.56016">
        <ele>19</ele>
        <time>2026-03-09T20:10:10.000Z</time>
      </trkpt>
      <trkpt lat="43.3573" lon="-1.56032">
        <ele>19</ele>
        <time>2026-03-09T20:10:14.000Z</time>
      </trkpt>
      <trkpt lat="43.35721" lon="-1.56041">
        <ele>19</ele>
        <time>2026-03-09T20:10:16.000Z</time>
      </trkpt>
      <trkpt lat="43.35652" lon="-1.56086">
        <ele>18</ele>
        <time>2026-03-09T20:10:30.000Z</time>
      </trkpt>
      <trkpt lat="43.35648" lon="-1.5608">
        <ele>17</ele>
        <time>2026-03-09T20:10:31.000Z</time>
      </trkpt>
      <trkpt lat="43.35642" lon="-1.56085">
        <ele>17</ele>
        <time>2026-03-09T20:10:32.000Z</time>
      </trkpt>
      <trkpt lat="43.35635" lon="-1.56094">
        <ele>18</ele>
        <time>2026-03-09T20:10:34.000Z</time>
      </trkpt>
      <trkpt lat="43.35618" lon="-1.56125">
        <ele>18</ele>
        <time>2026-03-09T20:10:39.000Z</time>
      </trkpt>
      <trkpt lat="43.35614" lon="-1.56149">
        <ele>19</ele>
        <time>2026-03-09T20:10:42.000Z</time>
      </trkpt>
      <trkpt lat="43.35609" lon="-1.56223">
        <ele>18</ele>
        <time>2026-03-09T20:10:51.000Z</time>
      </trkpt>
      <trkpt lat="43.3561" lon="-1.56297">
        <ele>18</ele>
        <time>2026-03-09T20:11:01.000Z</time>
      </trkpt>
      <trkpt lat="43.35616" lon="-1.56498">
        <ele>18</ele>
        <time>2026-03-09T20:11:27.000Z</time>
      </trkpt>
      <trkpt lat="43.35622" lon="-1.56509">
        <ele>19</ele>
        <time>2026-03-09T20:11:29.000Z</time>
      </trkpt>
      <trkpt lat="43.35622" lon="-1.56558">
        <ele>19</ele>
        <time>2026-03-09T20:11:35.000Z</time>
      </trkpt>
      <trkpt lat="43.35624" lon="-1.56587">
        <ele>19</ele>
        <time>2026-03-09T20:11:39.000Z</time>
      </trkpt>
      <trkpt lat="43.35627" lon="-1.56588">
        <ele>19</ele>
        <time>2026-03-09T20:11:39.000Z</time>
      </trkpt>
      <trkpt lat="43.35633" lon="-1.56592">
        <ele>19</ele>
        <time>2026-03-09T20:11:41.000Z</time>
      </trkpt>
      <trkpt lat="43.35635" lon="-1.56599">
        <ele>19</ele>
        <time>2026-03-09T20:11:42.000Z</time>
      </trkpt>
      <trkpt lat="43.35632" lon="-1.56611">
        <ele>19</ele>
        <time>2026-03-09T20:11:43.000Z</time>
      </trkpt>
      <trkpt lat="43.35624" lon="-1.56615">
        <ele>19</ele>
        <time>2026-03-09T20:11:45.000Z</time>
      </trkpt>
      <trkpt lat="43.35625" lon="-1.56642">
        <ele>19</ele>
        <time>2026-03-09T20:11:48.000Z</time>
      </trkpt>
      <trkpt lat="43.35617" lon="-1.56692">
        <ele>19</ele>
        <time>2026-03-09T20:11:55.000Z</time>
      </trkpt>
      <trkpt lat="43.35608" lon="-1.56729">
        <ele>18</ele>
        <time>2026-03-09T20:12:00.000Z</time>
      </trkpt>
      <trkpt lat="43.35589" lon="-1.56787">
        <ele>17</ele>
        <time>2026-03-09T20:12:08.000Z</time>
      </trkpt>
      <trkpt lat="43.35585" lon="-1.56813">
        <ele>17</ele>
        <time>2026-03-09T20:12:12.000Z</time>
      </trkpt>
      <trkpt lat="43.35586" lon="-1.56839">
        <ele>17</ele>
        <time>2026-03-09T20:12:15.000Z</time>
      </trkpt>
      <trkpt lat="43.35588" lon="-1.56851">
        <ele>17</ele>
        <time>2026-03-09T20:12:16.000Z</time>
      </trkpt>
      <trkpt lat="43.35597" lon="-1.56872">
        <ele>17</ele>
        <time>2026-03-09T20:12:20.000Z</time>
      </trkpt>
      <trkpt lat="43.35625" lon="-1.56922">
        <ele>17</ele>
        <time>2026-03-09T20:12:28.000Z</time>
      </trkpt>
      <trkpt lat="43.35723" lon="-1.57132">
        <ele>15</ele>
        <time>2026-03-09T20:13:00.000Z</time>
      </trkpt>
      <trkpt lat="43.35733" lon="-1.5716">
        <ele>15</ele>
        <time>2026-03-09T20:13:04.000Z</time>
      </trkpt>
      <trkpt lat="43.3574" lon="-1.57189">
        <ele>15</ele>
        <time>2026-03-09T20:13:08.000Z</time>
      </trkpt>
      <trkpt lat="43.35745" lon="-1.57225">
        <ele>14</ele>
        <time>2026-03-09T20:13:13.000Z</time>
      </trkpt>
      <trkpt lat="43.35763" lon="-1.57418">
        <ele>13</ele>
        <time>2026-03-09T20:13:38.000Z</time>
      </trkpt>
      <trkpt lat="43.35767" lon="-1.57433">
        <ele>13</ele>
        <time>2026-03-09T20:13:40.000Z</time>
      </trkpt>
      <trkpt lat="43.35781" lon="-1.57454">
        <ele>13</ele>
        <time>2026-03-09T20:13:44.000Z</time>
      </trkpt>
      <trkpt lat="43.35787" lon="-1.57459">
        <ele>13</ele>
        <time>2026-03-09T20:13:45.000Z</time>
      </trkpt>
      <trkpt lat="43.35789" lon="-1.57464">
        <ele>13</ele>
        <time>2026-03-09T20:13:46.000Z</time>
      </trkpt>
      <trkpt lat="43.35789" lon="-1.5747">
        <ele>13</ele>
        <time>2026-03-09T20:13:47.000Z</time>
      </trkpt>
      <trkpt lat="43.35785" lon="-1.5748">
        <ele>13</ele>
        <time>2026-03-09T20:13:48.000Z</time>
      </trkpt>
      <trkpt lat="43.35781" lon="-1.57496">
        <ele>13</ele>
        <time>2026-03-09T20:13:50.000Z</time>
      </trkpt>
      <trkpt lat="43.35779" lon="-1.57526">
        <ele>13</ele>
        <time>2026-03-09T20:13:54.000Z</time>
      </trkpt>
      <trkpt lat="43.35779" lon="-1.57552">
        <ele>13</ele>
        <time>2026-03-09T20:13:57.000Z</time>
      </trkpt>
      <trkpt lat="43.35782" lon="-1.57586">
        <ele>13</ele>
        <time>2026-03-09T20:14:02.000Z</time>
      </trkpt>
      <trkpt lat="43.35807" lon="-1.5772">
        <ele>12</ele>
        <time>2026-03-09T20:14:20.000Z</time>
      </trkpt>
      <trkpt lat="43.35838" lon="-1.57869">
        <ele>11</ele>
        <time>2026-03-09T20:14:40.000Z</time>
      </trkpt>
      <trkpt lat="43.35852" lon="-1.57913">
        <ele>12</ele>
        <time>2026-03-09T20:14:46.000Z</time>
      </trkpt>
      <trkpt lat="43.35882" lon="-1.57972">
        <ele>11</ele>
        <time>2026-03-09T20:14:55.000Z</time>
      </trkpt>
      <trkpt lat="43.35894" lon="-1.57993">
        <ele>11</ele>
        <time>2026-03-09T20:14:59.000Z</time>
      </trkpt>
      <trkpt lat="43.36003" lon="-1.58148">
        <ele>11</ele>
        <time>2026-03-09T20:15:27.000Z</time>
      </trkpt>
      <trkpt lat="43.36109" lon="-1.58303">
        <ele>12</ele>
        <time>2026-03-09T20:15:54.000Z</time>
      </trkpt>
      <trkpt lat="43.36129" lon="-1.58341">
        <ele>12</ele>
        <time>2026-03-09T20:16:00.000Z</time>
      </trkpt>
      <trkpt lat="43.36139" lon="-1.58363">
        <ele>12</ele>
        <time>2026-03-09T20:16:04.000Z</time>
      </trkpt>
      <trkpt lat="43.36164" lon="-1.58429">
        <ele>12</ele>
        <time>2026-03-09T20:16:13.000Z</time>
      </trkpt>
      <trkpt lat="43.36257" lon="-1.58723">
        <ele>14</ele>
        <time>2026-03-09T20:16:55.000Z</time>
      </trkpt>
      <trkpt lat="43.3628" lon="-1.58766">
        <ele>18</ele>
        <time>2026-03-09T20:17:02.000Z</time>
      </trkpt>
      <trkpt lat="43.36308" lon="-1.58801">
        <ele>19</ele>
        <time>2026-03-09T20:17:08.000Z</time>
      </trkpt>
      <trkpt lat="43.36402" lon="-1.58885">
        <ele>17</ele>
        <time>2026-03-09T20:17:28.000Z</time>
      </trkpt>
      <trkpt lat="43.36427" lon="-1.58913">
        <ele>13</ele>
        <time>2026-03-09T20:17:34.000Z</time>
      </trkpt>
      <trkpt lat="43.36444" lon="-1.58941">
        <ele>12</ele>
        <time>2026-03-09T20:17:39.000Z</time>
      </trkpt>
      <trkpt lat="43.3646" lon="-1.58976">
        <ele>11</ele>
        <time>2026-03-09T20:17:44.000Z</time>
      </trkpt>
      <trkpt lat="43.36482" lon="-1.59044">
        <ele>9</ele>
        <time>2026-03-09T20:17:54.000Z</time>
      </trkpt>
      <trkpt lat="43.36581" lon="-1.59376">
        <ele>9</ele>
        <time>2026-03-09T20:18:40.000Z</time>
      </trkpt>
      <trkpt lat="43.36589" lon="-1.5943">
        <ele>9</ele>
        <time>2026-03-09T20:18:47.000Z</time>
      </trkpt>
      <trkpt lat="43.36592" lon="-1.59482">
        <ele>9</ele>
        <time>2026-03-09T20:18:54.000Z</time>
      </trkpt>
      <trkpt lat="43.36588" lon="-1.59546">
        <ele>11</ele>
        <time>2026-03-09T20:19:02.000Z</time>
      </trkpt>
      <trkpt lat="43.36567" lon="-1.59809">
        <ele>18</ele>
        <time>2026-03-09T20:19:37.000Z</time>
      </trkpt>
      <trkpt lat="43.36562" lon="-1.59843">
        <ele>18</ele>
        <time>2026-03-09T20:19:41.000Z</time>
      </trkpt>
      <trkpt lat="43.36549" lon="-1.59873">
        <ele>17</ele>
        <time>2026-03-09T20:19:46.000Z</time>
      </trkpt>
      <trkpt lat="43.36533" lon="-1.59897">
        <ele>16</ele>
        <time>2026-03-09T20:19:50.000Z</time>
      </trkpt>
      <trkpt lat="43.36476" lon="-1.5994">
        <ele>14</ele>
        <time>2026-03-09T20:20:01.000Z</time>
      </trkpt>
      <trkpt lat="43.36447" lon="-1.59965">
        <ele>14</ele>
        <time>2026-03-09T20:20:07.000Z</time>
      </trkpt>
      <trkpt lat="43.36418" lon="-1.59996">
        <ele>13</ele>
        <time>2026-03-09T20:20:14.000Z</time>
      </trkpt>
      <trkpt lat="43.36387" lon="-1.60042">
        <ele>15</ele>
        <time>2026-03-09T20:20:22.000Z</time>
      </trkpt>
      <trkpt lat="43.36371" lon="-1.60073">
        <ele>15</ele>
        <time>2026-03-09T20:20:27.000Z</time>
      </trkpt>
      <trkpt lat="43.36336" lon="-1.60166">
        <ele>16</ele>
        <time>2026-03-09T20:20:41.000Z</time>
      </trkpt>
      <trkpt lat="43.36316" lon="-1.60201">
        <ele>20</ele>
        <time>2026-03-09T20:20:46.000Z</time>
      </trkpt>
      <trkpt lat="43.36299" lon="-1.60225">
        <ele>21</ele>
        <time>2026-03-09T20:20:51.000Z</time>
      </trkpt>
      <trkpt lat="43.36264" lon="-1.60257">
        <ele>19</ele>
        <time>2026-03-09T20:20:58.000Z</time>
      </trkpt>
      <trkpt lat="43.36211" lon="-1.60302">
        <ele>16</ele>
        <time>2026-03-09T20:21:09.000Z</time>
      </trkpt>
      <trkpt lat="43.36173" lon="-1.60338">
        <ele>13</ele>
        <time>2026-03-09T20:21:17.000Z</time>
      </trkpt>
      <trkpt lat="43.36153" lon="-1.60362">
        <ele>14</ele>
        <time>2026-03-09T20:21:22.000Z</time>
      </trkpt>
      <trkpt lat="43.36138" lon="-1.60384">
        <ele>15</ele>
        <time>2026-03-09T20:21:26.000Z</time>
      </trkpt>
      <trkpt lat="43.36126" lon="-1.60409">
        <ele>15</ele>
        <time>2026-03-09T20:21:30.000Z</time>
      </trkpt>
      <trkpt lat="43.36116" lon="-1.60439">
        <ele>16</ele>
        <time>2026-03-09T20:21:34.000Z</time>
      </trkpt>
      <trkpt lat="43.36109" lon="-1.60462">
        <ele>16</ele>
        <time>2026-03-09T20:21:37.000Z</time>
      </trkpt>
      <trkpt lat="43.36103" lon="-1.60494">
        <ele>17</ele>
        <time>2026-03-09T20:21:42.000Z</time>
      </trkpt>
      <trkpt lat="43.36102" lon="-1.60518">
        <ele>17</ele>
        <time>2026-03-09T20:21:45.000Z</time>
      </trkpt>
      <trkpt lat="43.36102" lon="-1.60551">
        <ele>17</ele>
        <time>2026-03-09T20:21:49.000Z</time>
      </trkpt>
      <trkpt lat="43.36104" lon="-1.60585">
        <ele>18</ele>
        <time>2026-03-09T20:21:53.000Z</time>
      </trkpt>
      <trkpt lat="43.36118" lon="-1.60724">
        <ele>18</ele>
        <time>2026-03-09T20:22:12.000Z</time>
      </trkpt>
      <trkpt lat="43.36119" lon="-1.6075">
        <ele>18</ele>
        <time>2026-03-09T20:22:15.000Z</time>
      </trkpt>
      <trkpt lat="43.36113" lon="-1.60838">
        <ele>16</ele>
        <time>2026-03-09T20:22:26.000Z</time>
      </trkpt>
      <trkpt lat="43.36105" lon="-1.61018">
        <ele>17</ele>
        <time>2026-03-09T20:22:50.000Z</time>
      </trkpt>
      <trkpt lat="43.36101" lon="-1.61078">
        <ele>15</ele>
        <time>2026-03-09T20:22:58.000Z</time>
      </trkpt>
      <trkpt lat="43.36091" lon="-1.61139">
        <ele>13</ele>
        <time>2026-03-09T20:23:06.000Z</time>
      </trkpt>
      <trkpt lat="43.36075" lon="-1.61188">
        <ele>12</ele>
        <time>2026-03-09T20:23:13.000Z</time>
      </trkpt>
      <trkpt lat="43.36058" lon="-1.61226">
        <ele>11</ele>
        <time>2026-03-09T20:23:18.000Z</time>
      </trkpt>
      <trkpt lat="43.36033" lon="-1.61268">
        <ele>11</ele>
        <time>2026-03-09T20:23:25.000Z</time>
      </trkpt>
      <trkpt lat="43.35934" lon="-1.61396">
        <ele>16</ele>
        <time>2026-03-09T20:23:50.000Z</time>
      </trkpt>
      <trkpt lat="43.35913" lon="-1.61419">
        <ele>16</ele>
        <time>2026-03-09T20:23:54.000Z</time>
      </trkpt>
      <trkpt lat="43.35815" lon="-1.61503">
        <ele>12</ele>
        <time>2026-03-09T20:24:15.000Z</time>
      </trkpt>
      <trkpt lat="43.35787" lon="-1.61535">
        <ele>14</ele>
        <time>2026-03-09T20:24:21.000Z</time>
      </trkpt>
      <trkpt lat="43.35609" lon="-1.61816">
        <ele>13</ele>
        <time>2026-03-09T20:25:10.000Z</time>
      </trkpt>
      <trkpt lat="43.35515" lon="-1.61963">
        <ele>18</ele>
        <time>2026-03-09T20:25:35.000Z</time>
      </trkpt>
      <trkpt lat="43.35486" lon="-1.62001">
        <ele>18</ele>
        <time>2026-03-09T20:25:42.000Z</time>
      </trkpt>
      <trkpt lat="43.35432" lon="-1.62045">
        <ele>21</ele>
        <time>2026-03-09T20:25:53.000Z</time>
      </trkpt>
      <trkpt lat="43.35407" lon="-1.6206">
        <ele>21</ele>
        <time>2026-03-09T20:25:58.000Z</time>
      </trkpt>
      <trkpt lat="43.3524" lon="-1.62126">
        <ele>14</ele>
        <time>2026-03-09T20:26:29.000Z</time>
      </trkpt>
      <trkpt lat="43.35214" lon="-1.62143">
        <ele>12</ele>
        <time>2026-03-09T20:26:34.000Z</time>
      </trkpt>
      <trkpt lat="43.35201" lon="-1.62157">
        <ele>12</ele>
        <time>2026-03-09T20:26:37.000Z</time>
      </trkpt>
      <trkpt lat="43.35181" lon="-1.62185">
        <ele>11</ele>
        <time>2026-03-09T20:26:42.000Z</time>
      </trkpt>
      <trkpt lat="43.35127" lon="-1.62289">
        <ele>11</ele>
        <time>2026-03-09T20:26:59.000Z</time>
      </trkpt>
      <trkpt lat="43.35118" lon="-1.62308">
        <ele>11</ele>
        <time>2026-03-09T20:27:02.000Z</time>
      </trkpt>
      <trkpt lat="43.35109" lon="-1.62334">
        <ele>10</ele>
        <time>2026-03-09T20:27:05.000Z</time>
      </trkpt>
      <trkpt lat="43.35103" lon="-1.62402">
        <ele>11</ele>
        <time>2026-03-09T20:27:14.000Z</time>
      </trkpt>
      <trkpt lat="43.35103" lon="-1.62461">
        <ele>10</ele>
        <time>2026-03-09T20:27:22.000Z</time>
      </trkpt>
      <trkpt lat="43.35108" lon="-1.62493">
        <ele>11</ele>
        <time>2026-03-09T20:27:26.000Z</time>
      </trkpt>
      <trkpt lat="43.35118" lon="-1.62528">
        <ele>12</ele>
        <time>2026-03-09T20:27:31.000Z</time>
      </trkpt>
      <trkpt lat="43.35207" lon="-1.62759">
        <ele>8</ele>
        <time>2026-03-09T20:28:05.000Z</time>
      </trkpt>
      <trkpt lat="43.35255" lon="-1.629">
        <ele>6</ele>
        <time>2026-03-09T20:28:25.000Z</time>
      </trkpt>
      <trkpt lat="43.35268" lon="-1.62932">
        <ele>6</ele>
        <time>2026-03-09T20:28:30.000Z</time>
      </trkpt>
      <trkpt lat="43.35289" lon="-1.62974">
        <ele>6</ele>
        <time>2026-03-09T20:28:36.000Z</time>
      </trkpt>
      <trkpt lat="43.35306" lon="-1.62998">
        <ele>6</ele>
        <time>2026-03-09T20:28:41.000Z</time>
      </trkpt>
      <trkpt lat="43.3535" lon="-1.63044">
        <ele>7</ele>
        <time>2026-03-09T20:28:50.000Z</time>
      </trkpt>
      <trkpt lat="43.35386" lon="-1.63073">
        <ele>7</ele>
        <time>2026-03-09T20:28:58.000Z</time>
      </trkpt>
      <trkpt lat="43.35403" lon="-1.63082">
        <ele>7</ele>
        <time>2026-03-09T20:29:01.000Z</time>
      </trkpt>
      <trkpt lat="43.3544" lon="-1.63097">
        <ele>6</ele>
        <time>2026-03-09T20:29:08.000Z</time>
      </trkpt>
      <trkpt lat="43.35614" lon="-1.63148">
        <ele>5</ele>
        <time>2026-03-09T20:29:40.000Z</time>
      </trkpt>
      <trkpt lat="43.35639" lon="-1.63145">
        <ele>6</ele>
        <time>2026-03-09T20:29:44.000Z</time>
      </trkpt>
      <trkpt lat="43.35647" lon="-1.63139">
        <ele>6</ele>
        <time>2026-03-09T20:29:46.000Z</time>
      </trkpt>
      <trkpt lat="43.35653" lon="-1.63131">
        <ele>7</ele>
        <time>2026-03-09T20:29:47.000Z</time>
      </trkpt>
      <trkpt lat="43.35657" lon="-1.63129">
        <ele>7</ele>
        <time>2026-03-09T20:29:48.000Z</time>
      </trkpt>
      <trkpt lat="43.35664" lon="-1.63131">
        <ele>7</ele>
        <time>2026-03-09T20:29:49.000Z</time>
      </trkpt>
      <trkpt lat="43.3567" lon="-1.63137">
        <ele>7</ele>
        <time>2026-03-09T20:29:50.000Z</time>
      </trkpt>
      <trkpt lat="43.35673" lon="-1.63149">
        <ele>7</ele>
        <time>2026-03-09T20:29:52.000Z</time>
      </trkpt>
      <trkpt lat="43.35676" lon="-1.63154">
        <ele>7</ele>
        <time>2026-03-09T20:29:53.000Z</time>
      </trkpt>
      <trkpt lat="43.35699" lon="-1.63173">
        <ele>6</ele>
        <time>2026-03-09T20:29:58.000Z</time>
      </trkpt>
      <trkpt lat="43.35728" lon="-1.63183">
        <ele>7</ele>
        <time>2026-03-09T20:30:03.000Z</time>
      </trkpt>
      <trkpt lat="43.3575" lon="-1.63192">
        <ele>7</ele>
        <time>2026-03-09T20:30:07.000Z</time>
      </trkpt>
      <trkpt lat="43.35789" lon="-1.63219">
        <ele>9</ele>
        <time>2026-03-09T20:30:15.000Z</time>
      </trkpt>
      <trkpt lat="43.35836" lon="-1.63259">
        <ele>8</ele>
        <time>2026-03-09T20:30:25.000Z</time>
      </trkpt>
      <trkpt lat="43.35859" lon="-1.6328">
        <ele>9</ele>
        <time>2026-03-09T20:30:30.000Z</time>
      </trkpt>
      <trkpt lat="43.35921" lon="-1.63341">
        <ele>8</ele>
        <time>2026-03-09T20:30:43.000Z</time>
      </trkpt>
      <trkpt lat="43.35935" lon="-1.63358">
        <ele>9</ele>
        <time>2026-03-09T20:30:47.000Z</time>
      </trkpt>
      <trkpt lat="43.35984" lon="-1.63434">
        <ele>8</ele>
        <time>2026-03-09T20:31:00.000Z</time>
      </trkpt>
      <trkpt lat="43.35995" lon="-1.63453">
        <ele>8</ele>
        <time>2026-03-09T20:31:03.000Z</time>
      </trkpt>
      <trkpt lat="43.36014" lon="-1.63501">
        <ele>6</ele>
        <time>2026-03-09T20:31:10.000Z</time>
      </trkpt>
      <trkpt lat="43.36029" lon="-1.63531">
        <ele>6</ele>
        <time>2026-03-09T20:31:15.000Z</time>
      </trkpt>
      <trkpt lat="43.36039" lon="-1.63549">
        <ele>6</ele>
        <time>2026-03-09T20:31:18.000Z</time>
      </trkpt>
      <trkpt lat="43.36061" lon="-1.63577">
        <ele>5</ele>
        <time>2026-03-09T20:31:23.000Z</time>
      </trkpt>
      <trkpt lat="43.36075" lon="-1.63589">
        <ele>5</ele>
        <time>2026-03-09T20:31:26.000Z</time>
      </trkpt>
      <trkpt lat="43.36097" lon="-1.63603">
        <ele>5</ele>
        <time>2026-03-09T20:31:30.000Z</time>
      </trkpt>
      <trkpt lat="43.36255" lon="-1.63666">
        <ele>6</ele>
        <time>2026-03-09T20:31:59.000Z</time>
      </trkpt>
      <trkpt lat="43.36277" lon="-1.63671">
        <ele>6</ele>
        <time>2026-03-09T20:32:03.000Z</time>
      </trkpt>
      <trkpt lat="43.36308" lon="-1.63673">
        <ele>7</ele>
        <time>2026-03-09T20:32:09.000Z</time>
      </trkpt>
      <trkpt lat="43.36349" lon="-1.63669">
        <ele>7</ele>
        <time>2026-03-09T20:32:16.000Z</time>
      </trkpt>
      <trkpt lat="43.36595" lon="-1.63589">
        <ele>5</ele>
        <time>2026-03-09T20:33:01.000Z</time>
      </trkpt>
      <trkpt lat="43.36638" lon="-1.63578">
        <ele>7</ele>
        <time>2026-03-09T20:33:09.000Z</time>
      </trkpt>
      <trkpt lat="43.36675" lon="-1.63576">
        <ele>8</ele>
        <time>2026-03-09T20:33:16.000Z</time>
      </trkpt>
      <trkpt lat="43.36709" lon="-1.63582">
        <ele>8</ele>
        <time>2026-03-09T20:33:22.000Z</time>
      </trkpt>
      <trkpt lat="43.36753" lon="-1.63597">
        <ele>7</ele>
        <time>2026-03-09T20:33:30.000Z</time>
      </trkpt>
      <trkpt lat="43.37067" lon="-1.63794">
        <ele>6</ele>
        <time>2026-03-09T20:34:31.000Z</time>
      </trkpt>
      <trkpt lat="43.37085" lon="-1.63801">
        <ele>6</ele>
        <time>2026-03-09T20:34:34.000Z</time>
      </trkpt>
      <trkpt lat="43.37111" lon="-1.63806">
        <ele>5</ele>
        <time>2026-03-09T20:34:39.000Z</time>
      </trkpt>
      <trkpt lat="43.37409" lon="-1.63788">
        <ele>4</ele>
        <time>2026-03-09T20:35:32.000Z</time>
      </trkpt>
      <trkpt lat="43.37444" lon="-1.63779">
        <ele>4</ele>
        <time>2026-03-09T20:35:39.000Z</time>
      </trkpt>
      <trkpt lat="43.37508" lon="-1.63777">
        <ele>4</ele>
        <time>2026-03-09T20:35:50.000Z</time>
      </trkpt>
      <trkpt lat="43.37526" lon="-1.63781">
        <ele>5</ele>
        <time>2026-03-09T20:35:53.000Z</time>
      </trkpt>
      <trkpt lat="43.37541" lon="-1.63773">
        <ele>5</ele>
        <time>2026-03-09T20:35:56.000Z</time>
      </trkpt>
      <trkpt lat="43.37607" lon="-1.63771">
        <ele>6</ele>
        <time>2026-03-09T20:36:08.000Z</time>
      </trkpt>
      <trkpt lat="43.37642" lon="-1.63776">
        <ele>6</ele>
        <time>2026-03-09T20:36:14.000Z</time>
      </trkpt>
      <trkpt lat="43.37738" lon="-1.63772">
        <ele>8</ele>
        <time>2026-03-09T20:36:31.000Z</time>
      </trkpt>
      <trkpt lat="43.37759" lon="-1.63774">
        <ele>8</ele>
        <time>2026-03-09T20:36:35.000Z</time>
      </trkpt>
      <trkpt lat="43.37776" lon="-1.63786">
        <ele>8</ele>
        <time>2026-03-09T20:36:38.000Z</time>
      </trkpt>
      <trkpt lat="43.37906" lon="-1.63917">
        <ele>6</ele>
        <time>2026-03-09T20:37:07.000Z</time>
      </trkpt>
      <trkpt lat="43.38056" lon="-1.64058">
        <ele>9</ele>
        <time>2026-03-09T20:37:39.000Z</time>
      </trkpt>
      <trkpt lat="43.3812" lon="-1.64193">
        <ele>6</ele>
        <time>2026-03-09T20:38:00.000Z</time>
      </trkpt>
      <trkpt lat="43.38155" lon="-1.6423">
        <ele>6</ele>
        <time>2026-03-09T20:38:08.000Z</time>
      </trkpt>
      <trkpt lat="43.38212" lon="-1.64283">
        <ele>5</ele>
        <time>2026-03-09T20:38:20.000Z</time>
      </trkpt>
      <trkpt lat="43.38232" lon="-1.64309">
        <ele>5</ele>
        <time>2026-03-09T20:38:25.000Z</time>
      </trkpt>
      <trkpt lat="43.3825" lon="-1.64341">
        <ele>5</ele>
        <time>2026-03-09T20:38:30.000Z</time>
      </trkpt>
      <trkpt lat="43.38264" lon="-1.64383">
        <ele>7</ele>
        <time>2026-03-09T20:38:36.000Z</time>
      </trkpt>
      <trkpt lat="43.38272" lon="-1.64424">
        <ele>8</ele>
        <time>2026-03-09T20:38:42.000Z</time>
      </trkpt>
      <trkpt lat="43.38277" lon="-1.64488">
        <ele>10</ele>
        <time>2026-03-09T20:38:50.000Z</time>
      </trkpt>
      <trkpt lat="43.3828" lon="-1.64595">
        <ele>8</ele>
        <time>2026-03-09T20:39:04.000Z</time>
      </trkpt>
      <trkpt lat="43.38273" lon="-1.64701">
        <ele>7</ele>
        <time>2026-03-09T20:39:18.000Z</time>
      </trkpt>
      <trkpt lat="43.38255" lon="-1.6488">
        <ele>9</ele>
        <time>2026-03-09T20:39:41.000Z</time>
      </trkpt>
      <trkpt lat="43.38252" lon="-1.64928">
        <ele>8</ele>
        <time>2026-03-09T20:39:47.000Z</time>
      </trkpt>
      <trkpt lat="43.38254" lon="-1.64945">
        <ele>8</ele>
        <time>2026-03-09T20:39:50.000Z</time>
      </trkpt>
      <trkpt lat="43.3826" lon="-1.64971">
        <ele>8</ele>
        <time>2026-03-09T20:39:53.000Z</time>
      </trkpt>
      <trkpt lat="43.38276" lon="-1.65016">
        <ele>9</ele>
        <time>2026-03-09T20:40:00.000Z</time>
      </trkpt>
      <trkpt lat="43.38343" lon="-1.652">
        <ele>12</ele>
        <time>2026-03-09T20:40:26.000Z</time>
      </trkpt>
      <trkpt lat="43.38356" lon="-1.65227">
        <ele>13</ele>
        <time>2026-03-09T20:40:30.000Z</time>
      </trkpt>
      <trkpt lat="43.38363" lon="-1.65232">
        <ele>13</ele>
        <time>2026-03-09T20:40:32.000Z</time>
      </trkpt>
      <trkpt lat="43.38379" lon="-1.65254">
        <ele>14</ele>
        <time>2026-03-09T20:40:36.000Z</time>
      </trkpt>
      <trkpt lat="43.384" lon="-1.6527">
        <ele>14</ele>
        <time>2026-03-09T20:40:40.000Z</time>
      </trkpt>
      <trkpt lat="43.38412" lon="-1.65283">
        <ele>13</ele>
        <time>2026-03-09T20:40:43.000Z</time>
      </trkpt>
      <trkpt lat="43.38412" lon="-1.65303">
        <ele>10</ele>
        <time>2026-03-09T20:40:45.000Z</time>
      </trkpt>
      <trkpt lat="43.38407" lon="-1.65318">
        <ele>8</ele>
        <time>2026-03-09T20:40:47.000Z</time>
      </trkpt>
      <trkpt lat="43.38404" lon="-1.65322">
        <ele>7</ele>
        <time>2026-03-09T20:40:48.000Z</time>
      </trkpt>
      <trkpt lat="43.38343" lon="-1.65446">
        <ele>5</ele>
        <time>2026-03-09T20:41:08.000Z</time>
      </trkpt>
      <trkpt lat="43.38341" lon="-1.65462">
        <ele>4</ele>
        <time>2026-03-09T20:41:10.000Z</time>
      </trkpt>
      <trkpt lat="43.38363" lon="-1.65495">
        <ele>4</ele>
        <time>2026-03-09T20:41:15.000Z</time>
      </trkpt>
      <trkpt lat="43.38364" lon="-1.655">
        <ele>4</ele>
        <time>2026-03-09T20:41:16.000Z</time>
      </trkpt>
      <trkpt lat="43.38362" lon="-1.65506">
        <ele>4</ele>
        <time>2026-03-09T20:41:17.000Z</time>
      </trkpt>
      <trkpt lat="43.3836" lon="-1.65509">
        <ele>4</ele>
        <time>2026-03-09T20:41:18.000Z</time>
      </trkpt>
      <trkpt lat="43.38357" lon="-1.65509">
        <ele>4</ele>
        <time>2026-03-09T20:41:18.000Z</time>
      </trkpt>
      <trkpt lat="43.38351" lon="-1.65522">
        <ele>4</ele>
        <time>2026-03-09T20:41:20.000Z</time>
      </trkpt>
      <trkpt lat="43.38252" lon="-1.65655">
        <ele>4</ele>
        <time>2026-03-09T20:41:45.000Z</time>
      </trkpt>
      <trkpt lat="43.38236" lon="-1.65679">
        <ele>4</ele>
        <time>2026-03-09T20:41:49.000Z</time>
      </trkpt>
      <trkpt lat="43.38233" lon="-1.65687">
        <ele>4</ele>
        <time>2026-03-09T20:41:50.000Z</time>
      </trkpt>
      <trkpt lat="43.38234" lon="-1.65703">
        <ele>4</ele>
        <time>2026-03-09T20:41:52.000Z</time>
      </trkpt>
      <trkpt lat="43.38298" lon="-1.65877">
        <ele>4</ele>
        <time>2026-03-09T20:42:17.000Z</time>
      </trkpt>
      <trkpt lat="43.38309" lon="-1.65902">
        <ele>5</ele>
        <time>2026-03-09T20:42:21.000Z</time>
      </trkpt>
      <trkpt lat="43.38324" lon="-1.65923">
        <ele>6</ele>
        <time>2026-03-09T20:42:25.000Z</time>
      </trkpt>
      <trkpt lat="43.3833" lon="-1.65928">
        <ele>6</ele>
        <time>2026-03-09T20:42:26.000Z</time>
      </trkpt>
      <trkpt lat="43.38334" lon="-1.65923">
        <ele>6</ele>
        <time>2026-03-09T20:42:27.000Z</time>
      </trkpt>
      <trkpt lat="43.38337" lon="-1.65923">
        <ele>6</ele>
        <time>2026-03-09T20:42:28.000Z</time>
      </trkpt>
      <trkpt lat="43.38342" lon="-1.65926">
        <ele>6</ele>
        <time>2026-03-09T20:42:29.000Z</time>
      </trkpt>
      <trkpt lat="43.38344" lon="-1.65934">
        <ele>6</ele>
        <time>2026-03-09T20:42:30.000Z</time>
      </trkpt>
      <trkpt lat="43.38342" lon="-1.65941">
        <ele>6</ele>
        <time>2026-03-09T20:42:31.000Z</time>
      </trkpt>
      <trkpt lat="43.3834" lon="-1.65943">
        <ele>6</ele>
        <time>2026-03-09T20:42:31.000Z</time>
      </trkpt>
      <trkpt lat="43.38347" lon="-1.65961">
        <ele>6</ele>
        <time>2026-03-09T20:42:34.000Z</time>
      </trkpt>
      <trkpt lat="43.38362" lon="-1.65982">
        <ele>5</ele>
        <time>2026-03-09T20:42:38.000Z</time>
      </trkpt>
      <trkpt lat="43.38445" lon="-1.66095">
        <ele>5</ele>
        <time>2026-03-09T20:42:58.000Z</time>
      </trkpt>
      <trkpt lat="43.38462" lon="-1.66121">
        <ele>5</ele>
        <time>2026-03-09T20:43:03.000Z</time>
      </trkpt>
      <trkpt lat="43.38479" lon="-1.66155">
        <ele>5</ele>
        <time>2026-03-09T20:43:08.000Z</time>
      </trkpt>
      <trkpt lat="43.38481" lon="-1.66153">
        <ele>5</ele>
        <time>2026-03-09T20:43:09.000Z</time>
      </trkpt>
      <trkpt lat="43.38488" lon="-1.66152">
        <ele>5</ele>
        <time>2026-03-09T20:43:10.000Z</time>
      </trkpt>
      <trkpt lat="43.38492" lon="-1.66157">
        <ele>5</ele>
        <time>2026-03-09T20:43:11.000Z</time>
      </trkpt>
      <trkpt lat="43.38493" lon="-1.66163">
        <ele>5</ele>
        <time>2026-03-09T20:43:12.000Z</time>
      </trkpt>
      <trkpt lat="43.38491" lon="-1.66169">
        <ele>5</ele>
        <time>2026-03-09T20:43:13.000Z</time>
      </trkpt>
      <trkpt lat="43.38487" lon="-1.66173">
        <ele>5</ele>
        <time>2026-03-09T20:43:13.000Z</time>
      </trkpt>
      <trkpt lat="43.38496" lon="-1.66199">
        <ele>5</ele>
        <time>2026-03-09T20:43:17.000Z</time>
      </trkpt>
      <trkpt lat="43.38503" lon="-1.66208">
        <ele>4</ele>
        <time>2026-03-09T20:43:19.000Z</time>
      </trkpt>
      <trkpt lat="43.38616" lon="-1.66309">
        <ele>1</ele>
        <time>2026-03-09T20:43:43.000Z</time>
      </trkpt>
      <trkpt lat="43.38636" lon="-1.66319">
        <ele>3.9</ele>
        <time>2026-03-09T20:43:47.000Z</time>
      </trkpt>
      <trkpt lat="43.38651" lon="-1.66321">
        <ele>4</ele>
        <time>2026-03-09T20:43:49.000Z</time>
      </trkpt>
      <trkpt lat="43.38651" lon="-1.66308">
        <ele>1</ele>
        <time>2026-03-09T20:43:51.000Z</time>
      </trkpt>
      <trkpt lat="43.38634" lon="-1.66254">
        <ele>3</ele>
        <time>2026-03-09T20:43:59.000Z</time>
      </trkpt>
      <trkpt lat="43.38628" lon="-1.66242">
        <ele>4</ele>
        <time>2026-03-09T20:44:00.000Z</time>
      </trkpt>
      <trkpt lat="43.38621" lon="-1.66235">
        <ele>4</ele>
        <time>2026-03-09T20:44:02.000Z</time>
      </trkpt>
      <trkpt lat="43.38612" lon="-1.66229">
        <ele>4</ele>
        <time>2026-03-09T20:44:04.000Z</time>
      </trkpt>
      <trkpt lat="43.38604" lon="-1.66226">
        <ele>4</ele>
        <time>2026-03-09T20:44:05.000Z</time>
      </trkpt>
      <trkpt lat="43.38592" lon="-1.66228">
        <ele>3</ele>
        <time>2026-03-09T20:44:07.000Z</time>
      </trkpt>
      <trkpt lat="43.38583" lon="-1.66231">
        <ele>3</ele>
        <time>2026-03-09T20:44:09.000Z</time>
      </trkpt>
      <trkpt lat="43.38558" lon="-1.6625">
        <ele>3</ele>
        <time>2026-03-09T20:44:14.000Z</time>
      </trkpt>
      <trkpt lat="43.38548" lon="-1.66274">
        <ele>3</ele>
        <time>2026-03-09T20:44:18.000Z</time>
      </trkpt>
      <trkpt lat="43.38517" lon="-1.66346">
        <ele>2</ele>
        <time>2026-03-09T20:44:29.000Z</time>
      </trkpt>
      <trkpt lat="43.38512" lon="-1.66357">
        <ele>3</ele>
        <time>2026-03-09T20:44:30.000Z</time>
      </trkpt>
      <trkpt lat="43.38489" lon="-1.66425">
        <ele>5</ele>
        <time>2026-03-09T20:44:40.000Z</time>
      </trkpt>
      <trkpt lat="43.38484" lon="-1.6644">
        <ele>6</ele>
        <time>2026-03-09T20:44:42.000Z</time>
      </trkpt>
      <trkpt lat="43.38437" lon="-1.66547">
        <ele>5</ele>
        <time>2026-03-09T20:44:58.000Z</time>
      </trkpt>
      <trkpt lat="43.38433" lon="-1.66561">
        <ele>4</ele>
        <time>2026-03-09T20:45:00.000Z</time>
      </trkpt>
      <trkpt lat="43.38434" lon="-1.66573">
        <ele>4</ele>
        <time>2026-03-09T20:45:02.000Z</time>
      </trkpt>
      <trkpt lat="43.38436" lon="-1.66585">
        <ele>4</ele>
        <time>2026-03-09T20:45:03.000Z</time>
      </trkpt>
      <trkpt lat="43.3845" lon="-1.66622">
        <ele>4</ele>
        <time>2026-03-09T20:45:09.000Z</time>
      </trkpt>
      <trkpt lat="43.38456" lon="-1.66621">
        <ele>4</ele>
        <time>2026-03-09T20:45:10.000Z</time>
      </trkpt>
      <trkpt lat="43.38462" lon="-1.66624">
        <ele>4</ele>
        <time>2026-03-09T20:45:11.000Z</time>
      </trkpt>
      <trkpt lat="43.38463" lon="-1.66637">
        <ele>4</ele>
        <time>2026-03-09T20:45:13.000Z</time>
      </trkpt>
      <trkpt lat="43.3846" lon="-1.66647">
        <ele>4</ele>
        <time>2026-03-09T20:45:14.000Z</time>
      </trkpt>
      <trkpt lat="43.38455" lon="-1.66649">
        <ele>4</ele>
        <time>2026-03-09T20:45:15.000Z</time>
      </trkpt>
      <trkpt lat="43.38449" lon="-1.66646">
        <ele>4</ele>
        <time>2026-03-09T20:45:16.000Z</time>
      </trkpt>
      <trkpt lat="43.38378" lon="-1.66744">
        <ele>5</ele>
        <time>2026-03-09T20:45:34.000Z</time>
      </trkpt>
      <trkpt lat="43.38366" lon="-1.66755">
        <ele>6</ele>
        <time>2026-03-09T20:45:37.000Z</time>
      </trkpt>
      <trkpt lat="43.38344" lon="-1.66759">
        <ele>7</ele>
        <time>2026-03-09T20:45:40.000Z</time>
      </trkpt>
      <trkpt lat="43.38343" lon="-1.66748">
        <ele>6</ele>
        <time>2026-03-09T20:45:42.000Z</time>
      </trkpt>
      <trkpt lat="43.38327" lon="-1.66703">
        <ele>6</ele>
        <time>2026-03-09T20:45:48.000Z</time>
      </trkpt>
      <trkpt lat="43.38272" lon="-1.66557">
        <ele>4</ele>
        <time>2026-03-09T20:46:10.000Z</time>
      </trkpt>
      <trkpt lat="43.38264" lon="-1.66503">
        <ele>4</ele>
        <time>2026-03-09T20:46:17.000Z</time>
      </trkpt>
      <trkpt lat="43.3826" lon="-1.66462">
        <ele>5</ele>
        <time>2026-03-09T20:46:22.000Z</time>
      </trkpt>
      <trkpt lat="43.38284" lon="-1.66442">
        <ele>5</ele>
        <time>2026-03-09T20:46:27.000Z</time>
      </trkpt>
      <trkpt lat="43.38291" lon="-1.66432">
        <ele>5</ele>
        <time>2026-03-09T20:46:29.000Z</time>
      </trkpt>
      <trkpt lat="43.38297" lon="-1.66411">
        <ele>5</ele>
        <time>2026-03-09T20:46:32.000Z</time>
      </trkpt>
      <trkpt lat="43.38306" lon="-1.66354">
        <ele>5</ele>
        <time>2026-03-09T20:46:39.000Z</time>
      </trkpt>
      <trkpt lat="43.38298" lon="-1.66335">
        <ele>5</ele>
        <time>2026-03-09T20:46:42.000Z</time>
      </trkpt>
      <trkpt lat="43.38238" lon="-1.66228">
        <ele>4</ele>
        <time>2026-03-09T20:47:00.000Z</time>
      </trkpt>
      <trkpt lat="43.38205" lon="-1.66172">
        <ele>3</ele>
        <time>2026-03-09T20:47:09.000Z</time>
      </trkpt>
    </trkseg>
  </trk>
</gpx>